<?xml version="1.0" encoding="UTF-8" standalone="no" ?>
<gpx xmlns="http://www.topografix.com/GPX/1/1" xmlns:xsi="http://www.w3.org/2001/XMLSchema-instance" xsi:schemaLocation="http://www.topografix.com/GPX/1/1 http://www.topografix.com/GPX/1/1/gpx.xsd" version="1.1" creator="VisuGPX - https://www.visugpx.com">
  <metadata>
    <name>CKCV - 2013/10/26 matin - De larmor-Baden vers la sortie du golfe</name>
    <desc><![CDATA[Lieu: Golfe.
PM Arradon 12h01 Coef 40
départ Larmor-Baden vers sortie du golfe ]]></desc>
  </metadata>
  <trk>
    <name><![CDATA[Parcours 2013-10-26 08:41]]></name>
    <trkseg>
      <trkpt lat="47.58194" lon="-2.89483">
        <ele>4</ele>
        <time>2013-10-26T06:41:30Z</time>
      </trkpt>
      <trkpt lat="47.58199" lon="-2.89505">
        <ele>4</ele>
        <time>2013-10-26T06:41:48Z</time>
      </trkpt>
      <trkpt lat="47.58205" lon="-2.89501">
        <ele>4</ele>
        <time>2013-10-26T06:42:00Z</time>
      </trkpt>
      <trkpt lat="47.582" lon="-2.89501">
        <ele>4</ele>
        <time>2013-10-26T06:43:24Z</time>
      </trkpt>
      <trkpt lat="47.582" lon="-2.89509">
        <ele>4</ele>
        <time>2013-10-26T06:43:29Z</time>
      </trkpt>
      <trkpt lat="47.58195" lon="-2.8951">
        <ele>4</ele>
        <time>2013-10-26T06:44:05Z</time>
      </trkpt>
      <trkpt lat="47.5819" lon="-2.89511">
        <ele>4</ele>
        <time>2013-10-26T06:56:09Z</time>
      </trkpt>
      <trkpt lat="47.58185" lon="-2.8951">
        <ele>4</ele>
        <time>2013-10-26T06:56:14Z</time>
      </trkpt>
      <trkpt lat="47.5818" lon="-2.89512">
        <ele>4</ele>
        <time>2013-10-26T06:56:19Z</time>
      </trkpt>
      <trkpt lat="47.58176" lon="-2.89514">
        <ele>4</ele>
        <time>2013-10-26T06:58:46Z</time>
      </trkpt>
      <trkpt lat="47.58171" lon="-2.89515">
        <ele>4</ele>
        <time>2013-10-26T06:58:51Z</time>
      </trkpt>
      <trkpt lat="47.58168" lon="-2.89512">
        <ele>4</ele>
        <time>2013-10-26T07:00:00Z</time>
      </trkpt>
      <trkpt lat="47.58166" lon="-2.89505">
        <time>2013-10-26T07:00:08Z</time>
      </trkpt>
      <trkpt lat="47.58163" lon="-2.89499">
        <time>2013-10-26T07:00:15Z</time>
      </trkpt>
      <trkpt lat="47.58164" lon="-2.89492">
        <time>2013-10-26T07:00:33Z</time>
      </trkpt>
      <trkpt lat="47.58166" lon="-2.89486">
        <time>2013-10-26T07:00:42Z</time>
      </trkpt>
      <trkpt lat="47.58171" lon="-2.89473">
        <ele>4</ele>
        <time>2013-10-26T07:01:26Z</time>
      </trkpt>
      <trkpt lat="47.58166" lon="-2.89468">
        <time>2013-10-26T07:02:01Z</time>
      </trkpt>
      <trkpt lat="47.58162" lon="-2.89471">
        <time>2013-10-26T07:02:08Z</time>
      </trkpt>
      <trkpt lat="47.58167" lon="-2.89469">
        <time>2013-10-26T07:02:27Z</time>
      </trkpt>
      <trkpt lat="47.5817" lon="-2.89464">
        <ele>4</ele>
        <time>2013-10-26T07:02:59Z</time>
      </trkpt>
      <trkpt lat="47.58174" lon="-2.89463">
        <ele>4</ele>
        <time>2013-10-26T07:03:13Z</time>
      </trkpt>
      <trkpt lat="47.58179" lon="-2.89461">
        <ele>4</ele>
        <time>2013-10-26T07:03:22Z</time>
      </trkpt>
      <trkpt lat="47.58183" lon="-2.89459">
        <ele>4</ele>
        <time>2013-10-26T07:04:02Z</time>
      </trkpt>
      <trkpt lat="47.58188" lon="-2.89462">
        <ele>4</ele>
        <time>2013-10-26T07:06:50Z</time>
      </trkpt>
      <trkpt lat="47.58183" lon="-2.89459">
        <ele>4</ele>
        <time>2013-10-26T07:09:44Z</time>
      </trkpt>
      <trkpt lat="47.58178" lon="-2.8946">
        <ele>4</ele>
        <time>2013-10-26T07:09:48Z</time>
      </trkpt>
      <trkpt lat="47.58172" lon="-2.89462">
        <ele>4</ele>
        <time>2013-10-26T07:09:52Z</time>
      </trkpt>
      <trkpt lat="47.58167" lon="-2.89464">
        <ele>4</ele>
        <time>2013-10-26T07:09:56Z</time>
      </trkpt>
      <trkpt lat="47.58162" lon="-2.89467">
        <time>2013-10-26T07:10:00Z</time>
      </trkpt>
      <trkpt lat="47.58157" lon="-2.8947">
        <time>2013-10-26T07:10:04Z</time>
      </trkpt>
      <trkpt lat="47.58152" lon="-2.89473">
        <time>2013-10-26T07:10:07Z</time>
      </trkpt>
      <trkpt lat="47.58147" lon="-2.89476">
        <time>2013-10-26T07:10:10Z</time>
      </trkpt>
      <trkpt lat="47.58142" lon="-2.89477">
        <time>2013-10-26T07:10:13Z</time>
      </trkpt>
      <trkpt lat="47.58137" lon="-2.89477">
        <time>2013-10-26T07:10:16Z</time>
      </trkpt>
      <trkpt lat="47.58131" lon="-2.89479">
        <time>2013-10-26T07:10:20Z</time>
      </trkpt>
      <trkpt lat="47.58125" lon="-2.89479">
        <time>2013-10-26T07:10:24Z</time>
      </trkpt>
      <trkpt lat="47.58119" lon="-2.8948">
        <time>2013-10-26T07:10:28Z</time>
      </trkpt>
      <trkpt lat="47.58114" lon="-2.89481">
        <time>2013-10-26T07:10:31Z</time>
      </trkpt>
      <trkpt lat="47.58109" lon="-2.89482">
        <time>2013-10-26T07:10:34Z</time>
      </trkpt>
      <trkpt lat="47.58104" lon="-2.89482">
        <time>2013-10-26T07:10:37Z</time>
      </trkpt>
      <trkpt lat="47.58099" lon="-2.89482">
        <time>2013-10-26T07:10:40Z</time>
      </trkpt>
      <trkpt lat="47.58094" lon="-2.89482">
        <time>2013-10-26T07:10:43Z</time>
      </trkpt>
      <trkpt lat="47.58089" lon="-2.89482">
        <time>2013-10-26T07:10:46Z</time>
      </trkpt>
      <trkpt lat="47.58084" lon="-2.89483">
        <time>2013-10-26T07:10:49Z</time>
      </trkpt>
      <trkpt lat="47.58079" lon="-2.89483">
        <time>2013-10-26T07:10:52Z</time>
      </trkpt>
      <trkpt lat="47.58074" lon="-2.89484">
        <time>2013-10-26T07:10:55Z</time>
      </trkpt>
      <trkpt lat="47.58069" lon="-2.89484">
        <time>2013-10-26T07:10:58Z</time>
      </trkpt>
      <trkpt lat="47.58064" lon="-2.89484">
        <time>2013-10-26T07:11:02Z</time>
      </trkpt>
      <trkpt lat="47.58059" lon="-2.89483">
        <time>2013-10-26T07:11:05Z</time>
      </trkpt>
      <trkpt lat="47.58054" lon="-2.89483">
        <time>2013-10-26T07:11:08Z</time>
      </trkpt>
      <trkpt lat="47.58049" lon="-2.89484">
        <time>2013-10-26T07:11:11Z</time>
      </trkpt>
      <trkpt lat="47.58044" lon="-2.89484">
        <time>2013-10-26T07:11:15Z</time>
      </trkpt>
      <trkpt lat="47.58039" lon="-2.89485">
        <time>2013-10-26T07:11:18Z</time>
      </trkpt>
      <trkpt lat="47.58034" lon="-2.89487">
        <time>2013-10-26T07:11:21Z</time>
      </trkpt>
      <trkpt lat="47.5803" lon="-2.89489">
        <time>2013-10-26T07:11:24Z</time>
      </trkpt>
      <trkpt lat="47.58024" lon="-2.89492">
        <time>2013-10-26T07:11:28Z</time>
      </trkpt>
      <trkpt lat="47.58019" lon="-2.89494">
        <time>2013-10-26T07:11:31Z</time>
      </trkpt>
      <trkpt lat="47.58014" lon="-2.89497">
        <time>2013-10-26T07:11:35Z</time>
      </trkpt>
      <trkpt lat="47.58009" lon="-2.89499">
        <time>2013-10-26T07:11:38Z</time>
      </trkpt>
      <trkpt lat="47.58003" lon="-2.895">
        <time>2013-10-26T07:11:41Z</time>
      </trkpt>
      <trkpt lat="47.57998" lon="-2.89502">
        <time>2013-10-26T07:11:44Z</time>
      </trkpt>
      <trkpt lat="47.57994" lon="-2.89504">
        <time>2013-10-26T07:11:47Z</time>
      </trkpt>
      <trkpt lat="47.57988" lon="-2.89508">
        <time>2013-10-26T07:11:51Z</time>
      </trkpt>
      <trkpt lat="47.57984" lon="-2.8951">
        <time>2013-10-26T07:11:54Z</time>
      </trkpt>
      <trkpt lat="47.57978" lon="-2.89512">
        <time>2013-10-26T07:11:57Z</time>
      </trkpt>
      <trkpt lat="47.57974" lon="-2.89514">
        <time>2013-10-26T07:12:00Z</time>
      </trkpt>
      <trkpt lat="47.57969" lon="-2.89516">
        <time>2013-10-26T07:12:03Z</time>
      </trkpt>
      <trkpt lat="47.57963" lon="-2.89518">
        <time>2013-10-26T07:12:07Z</time>
      </trkpt>
      <trkpt lat="47.57959" lon="-2.89521">
        <time>2013-10-26T07:12:10Z</time>
      </trkpt>
      <trkpt lat="47.57955" lon="-2.89523">
        <time>2013-10-26T07:12:13Z</time>
      </trkpt>
      <trkpt lat="47.5795" lon="-2.89525">
        <time>2013-10-26T07:12:17Z</time>
      </trkpt>
      <trkpt lat="47.57944" lon="-2.89529">
        <time>2013-10-26T07:12:21Z</time>
      </trkpt>
      <trkpt lat="47.5794" lon="-2.89532">
        <time>2013-10-26T07:12:24Z</time>
      </trkpt>
      <trkpt lat="47.57935" lon="-2.89535">
        <time>2013-10-26T07:12:27Z</time>
      </trkpt>
      <trkpt lat="47.57929" lon="-2.89538">
        <time>2013-10-26T07:12:31Z</time>
      </trkpt>
      <trkpt lat="47.57925" lon="-2.8954">
        <time>2013-10-26T07:12:34Z</time>
      </trkpt>
      <trkpt lat="47.5792" lon="-2.89543">
        <time>2013-10-26T07:12:37Z</time>
      </trkpt>
      <trkpt lat="47.57916" lon="-2.89545">
        <time>2013-10-26T07:12:40Z</time>
      </trkpt>
      <trkpt lat="47.57909" lon="-2.8955">
        <time>2013-10-26T07:12:46Z</time>
      </trkpt>
      <trkpt lat="47.57904" lon="-2.89553">
        <time>2013-10-26T07:12:50Z</time>
      </trkpt>
      <trkpt lat="47.57899" lon="-2.89555">
        <time>2013-10-26T07:12:54Z</time>
      </trkpt>
      <trkpt lat="47.57894" lon="-2.89557">
        <time>2013-10-26T07:12:58Z</time>
      </trkpt>
      <trkpt lat="47.57889" lon="-2.89558">
        <time>2013-10-26T07:13:02Z</time>
      </trkpt>
      <trkpt lat="47.57884" lon="-2.89561">
        <time>2013-10-26T07:13:06Z</time>
      </trkpt>
      <trkpt lat="47.57879" lon="-2.89564">
        <time>2013-10-26T07:13:10Z</time>
      </trkpt>
      <trkpt lat="47.57875" lon="-2.89567">
        <time>2013-10-26T07:13:14Z</time>
      </trkpt>
      <trkpt lat="47.57869" lon="-2.8957">
        <time>2013-10-26T07:13:18Z</time>
      </trkpt>
      <trkpt lat="47.57864" lon="-2.89574">
        <time>2013-10-26T07:13:22Z</time>
      </trkpt>
      <trkpt lat="47.5786" lon="-2.89577">
        <time>2013-10-26T07:13:25Z</time>
      </trkpt>
      <trkpt lat="47.57854" lon="-2.89581">
        <time>2013-10-26T07:13:29Z</time>
      </trkpt>
      <trkpt lat="47.5785" lon="-2.89585">
        <time>2013-10-26T07:13:33Z</time>
      </trkpt>
      <trkpt lat="47.57844" lon="-2.89587">
        <time>2013-10-26T07:13:37Z</time>
      </trkpt>
      <trkpt lat="47.57839" lon="-2.89591">
        <time>2013-10-26T07:13:41Z</time>
      </trkpt>
      <trkpt lat="47.57834" lon="-2.89592">
        <time>2013-10-26T07:13:47Z</time>
      </trkpt>
      <trkpt lat="47.57828" lon="-2.89594">
        <time>2013-10-26T07:13:53Z</time>
      </trkpt>
      <trkpt lat="47.57824" lon="-2.89599">
        <time>2013-10-26T07:13:57Z</time>
      </trkpt>
      <trkpt lat="47.5782" lon="-2.89603">
        <time>2013-10-26T07:14:01Z</time>
      </trkpt>
      <trkpt lat="47.57816" lon="-2.89607">
        <time>2013-10-26T07:14:05Z</time>
      </trkpt>
      <trkpt lat="47.57811" lon="-2.89614">
        <time>2013-10-26T07:14:10Z</time>
      </trkpt>
      <trkpt lat="47.57808" lon="-2.8962">
        <time>2013-10-26T07:14:15Z</time>
      </trkpt>
      <trkpt lat="47.57804" lon="-2.89626">
        <time>2013-10-26T07:14:22Z</time>
      </trkpt>
      <trkpt lat="47.57796" lon="-2.89637">
        <time>2013-10-26T07:14:33Z</time>
      </trkpt>
      <trkpt lat="47.57793" lon="-2.89644">
        <time>2013-10-26T07:14:38Z</time>
      </trkpt>
      <trkpt lat="47.5779" lon="-2.8965">
        <time>2013-10-26T07:14:42Z</time>
      </trkpt>
      <trkpt lat="47.57785" lon="-2.89655">
        <time>2013-10-26T07:14:45Z</time>
      </trkpt>
      <trkpt lat="47.57782" lon="-2.89661">
        <time>2013-10-26T07:14:48Z</time>
      </trkpt>
      <trkpt lat="47.5778" lon="-2.89669">
        <time>2013-10-26T07:14:53Z</time>
      </trkpt>
      <trkpt lat="47.57778" lon="-2.89675">
        <time>2013-10-26T07:14:58Z</time>
      </trkpt>
      <trkpt lat="47.57776" lon="-2.89681">
        <time>2013-10-26T07:15:04Z</time>
      </trkpt>
      <trkpt lat="47.57772" lon="-2.89685">
        <time>2013-10-26T07:15:10Z</time>
      </trkpt>
      <trkpt lat="47.57767" lon="-2.8969">
        <time>2013-10-26T07:15:16Z</time>
      </trkpt>
      <trkpt lat="47.57763" lon="-2.89696">
        <time>2013-10-26T07:15:20Z</time>
      </trkpt>
      <trkpt lat="47.57761" lon="-2.89703">
        <time>2013-10-26T07:15:26Z</time>
      </trkpt>
      <trkpt lat="47.5776" lon="-2.8971">
        <time>2013-10-26T07:15:32Z</time>
      </trkpt>
      <trkpt lat="47.57759" lon="-2.89717">
        <time>2013-10-26T07:15:38Z</time>
      </trkpt>
      <trkpt lat="47.57754" lon="-2.89721">
        <time>2013-10-26T07:16:11Z</time>
      </trkpt>
      <trkpt lat="47.5775" lon="-2.8972">
        <ele>8</ele>
        <time>2013-10-26T07:16:16Z</time>
      </trkpt>
      <trkpt lat="47.57746" lon="-2.89715">
        <ele>8</ele>
        <time>2013-10-26T07:16:24Z</time>
      </trkpt>
      <trkpt lat="47.57744" lon="-2.8971">
        <ele>8</ele>
        <time>2013-10-26T07:16:32Z</time>
      </trkpt>
      <trkpt lat="47.5774" lon="-2.89704">
        <ele>7</ele>
        <time>2013-10-26T07:16:38Z</time>
      </trkpt>
      <trkpt lat="47.57738" lon="-2.89698">
        <ele>7</ele>
        <time>2013-10-26T07:16:43Z</time>
      </trkpt>
      <trkpt lat="47.57736" lon="-2.89691">
        <ele>7</ele>
        <time>2013-10-26T07:16:48Z</time>
      </trkpt>
      <trkpt lat="47.57734" lon="-2.89684">
        <ele>7</ele>
        <time>2013-10-26T07:16:54Z</time>
      </trkpt>
      <trkpt lat="47.57732" lon="-2.89678">
        <ele>7</ele>
        <time>2013-10-26T07:16:59Z</time>
      </trkpt>
      <trkpt lat="47.57729" lon="-2.89672">
        <ele>7</ele>
        <time>2013-10-26T07:17:04Z</time>
      </trkpt>
      <trkpt lat="47.57726" lon="-2.89665">
        <ele>7</ele>
        <time>2013-10-26T07:17:08Z</time>
      </trkpt>
      <trkpt lat="47.57722" lon="-2.8966">
        <ele>7</ele>
        <time>2013-10-26T07:17:11Z</time>
      </trkpt>
      <trkpt lat="47.57719" lon="-2.89654">
        <ele>7</ele>
        <time>2013-10-26T07:17:15Z</time>
      </trkpt>
      <trkpt lat="47.57715" lon="-2.89648">
        <ele>7</ele>
        <time>2013-10-26T07:17:19Z</time>
      </trkpt>
      <trkpt lat="47.57711" lon="-2.89643">
        <ele>7</ele>
        <time>2013-10-26T07:17:23Z</time>
      </trkpt>
      <trkpt lat="47.57707" lon="-2.89638">
        <ele>7</ele>
        <time>2013-10-26T07:17:28Z</time>
      </trkpt>
      <trkpt lat="47.57704" lon="-2.89633">
        <ele>7</ele>
        <time>2013-10-26T07:17:32Z</time>
      </trkpt>
      <trkpt lat="47.577" lon="-2.89626">
        <ele>7</ele>
        <time>2013-10-26T07:17:37Z</time>
      </trkpt>
      <trkpt lat="47.57696" lon="-2.89621">
        <ele>7</ele>
        <time>2013-10-26T07:17:40Z</time>
      </trkpt>
      <trkpt lat="47.57693" lon="-2.89616">
        <ele>7</ele>
        <time>2013-10-26T07:17:43Z</time>
      </trkpt>
      <trkpt lat="47.57689" lon="-2.89612">
        <ele>7</ele>
        <time>2013-10-26T07:17:46Z</time>
      </trkpt>
      <trkpt lat="47.57685" lon="-2.89607">
        <ele>7</ele>
        <time>2013-10-26T07:17:49Z</time>
      </trkpt>
      <trkpt lat="47.57681" lon="-2.89604">
        <ele>7</ele>
        <time>2013-10-26T07:17:52Z</time>
      </trkpt>
      <trkpt lat="47.57676" lon="-2.89602">
        <ele>7</ele>
        <time>2013-10-26T07:17:55Z</time>
      </trkpt>
      <trkpt lat="47.57671" lon="-2.896">
        <ele>7</ele>
        <time>2013-10-26T07:17:58Z</time>
      </trkpt>
      <trkpt lat="47.57666" lon="-2.89598">
        <ele>8</ele>
        <time>2013-10-26T07:18:01Z</time>
      </trkpt>
      <trkpt lat="47.5766" lon="-2.89597">
        <ele>8</ele>
        <time>2013-10-26T07:18:05Z</time>
      </trkpt>
      <trkpt lat="47.57655" lon="-2.89597">
        <ele>8</ele>
        <time>2013-10-26T07:18:10Z</time>
      </trkpt>
      <trkpt lat="47.5765" lon="-2.89596">
        <ele>8</ele>
        <time>2013-10-26T07:18:15Z</time>
      </trkpt>
      <trkpt lat="47.57644" lon="-2.89594">
        <ele>8</ele>
        <time>2013-10-26T07:18:19Z</time>
      </trkpt>
      <trkpt lat="47.57639" lon="-2.89592">
        <ele>8</ele>
        <time>2013-10-26T07:18:22Z</time>
      </trkpt>
      <trkpt lat="47.57633" lon="-2.8959">
        <ele>8</ele>
        <time>2013-10-26T07:18:25Z</time>
      </trkpt>
      <trkpt lat="47.57627" lon="-2.89589">
        <ele>8</ele>
        <time>2013-10-26T07:18:28Z</time>
      </trkpt>
      <trkpt lat="47.57621" lon="-2.89587">
        <ele>9</ele>
        <time>2013-10-26T07:18:31Z</time>
      </trkpt>
      <trkpt lat="47.57615" lon="-2.89586">
        <ele>9</ele>
        <time>2013-10-26T07:18:34Z</time>
      </trkpt>
      <trkpt lat="47.57609" lon="-2.89585">
        <ele>9</ele>
        <time>2013-10-26T07:18:37Z</time>
      </trkpt>
      <trkpt lat="47.57603" lon="-2.89585">
        <ele>9</ele>
        <time>2013-10-26T07:18:40Z</time>
      </trkpt>
      <trkpt lat="47.57598" lon="-2.89583">
        <time>2013-10-26T07:18:43Z</time>
      </trkpt>
      <trkpt lat="47.57593" lon="-2.8958">
        <time>2013-10-26T07:18:46Z</time>
      </trkpt>
      <trkpt lat="47.57588" lon="-2.89579">
        <time>2013-10-26T07:18:49Z</time>
      </trkpt>
      <trkpt lat="47.57584" lon="-2.89577">
        <time>2013-10-26T07:18:52Z</time>
      </trkpt>
      <trkpt lat="47.57579" lon="-2.89575">
        <time>2013-10-26T07:18:55Z</time>
      </trkpt>
      <trkpt lat="47.57573" lon="-2.89573">
        <time>2013-10-26T07:18:58Z</time>
      </trkpt>
      <trkpt lat="47.57567" lon="-2.89572">
        <time>2013-10-26T07:19:01Z</time>
      </trkpt>
      <trkpt lat="47.57561" lon="-2.89571">
        <time>2013-10-26T07:19:04Z</time>
      </trkpt>
      <trkpt lat="47.57555" lon="-2.89569">
        <time>2013-10-26T07:19:07Z</time>
      </trkpt>
      <trkpt lat="47.57547" lon="-2.89567">
        <time>2013-10-26T07:19:11Z</time>
      </trkpt>
      <trkpt lat="47.57539" lon="-2.89565">
        <time>2013-10-26T07:19:15Z</time>
      </trkpt>
      <trkpt lat="47.57533" lon="-2.89562">
        <time>2013-10-26T07:19:18Z</time>
      </trkpt>
      <trkpt lat="47.57525" lon="-2.89559">
        <time>2013-10-26T07:19:22Z</time>
      </trkpt>
      <trkpt lat="47.57519" lon="-2.89558">
        <time>2013-10-26T07:19:25Z</time>
      </trkpt>
      <trkpt lat="47.57512" lon="-2.89557">
        <time>2013-10-26T07:19:28Z</time>
      </trkpt>
      <trkpt lat="47.57506" lon="-2.89556">
        <time>2013-10-26T07:19:31Z</time>
      </trkpt>
      <trkpt lat="47.57501" lon="-2.89554">
        <time>2013-10-26T07:19:34Z</time>
      </trkpt>
      <trkpt lat="47.57495" lon="-2.89551">
        <ele>10</ele>
        <time>2013-10-26T07:19:37Z</time>
      </trkpt>
      <trkpt lat="47.57486" lon="-2.89546">
        <ele>10</ele>
        <time>2013-10-26T07:19:41Z</time>
      </trkpt>
      <trkpt lat="47.57476" lon="-2.89543">
        <ele>10</ele>
        <time>2013-10-26T07:19:47Z</time>
      </trkpt>
      <trkpt lat="47.57466" lon="-2.89542">
        <ele>10</ele>
        <time>2013-10-26T07:19:55Z</time>
      </trkpt>
      <trkpt lat="47.57461" lon="-2.8954">
        <ele>10</ele>
        <time>2013-10-26T07:19:58Z</time>
      </trkpt>
      <trkpt lat="47.57456" lon="-2.89537">
        <ele>10</ele>
        <time>2013-10-26T07:20:01Z</time>
      </trkpt>
      <trkpt lat="47.57451" lon="-2.89533">
        <ele>10</ele>
        <time>2013-10-26T07:20:04Z</time>
      </trkpt>
      <trkpt lat="47.57445" lon="-2.89531">
        <ele>10</ele>
        <time>2013-10-26T07:20:07Z</time>
      </trkpt>
      <trkpt lat="47.5744" lon="-2.89531">
        <ele>10</ele>
        <time>2013-10-26T07:20:09Z</time>
      </trkpt>
      <trkpt lat="47.57435" lon="-2.89529">
        <ele>10</ele>
        <time>2013-10-26T07:20:12Z</time>
      </trkpt>
      <trkpt lat="47.57431" lon="-2.89531">
        <ele>10</ele>
        <time>2013-10-26T07:20:15Z</time>
      </trkpt>
      <trkpt lat="47.57426" lon="-2.8953">
        <ele>10</ele>
        <time>2013-10-26T07:20:18Z</time>
      </trkpt>
      <trkpt lat="47.5742" lon="-2.89529">
        <ele>10</ele>
        <time>2013-10-26T07:20:21Z</time>
      </trkpt>
      <trkpt lat="47.57416" lon="-2.89527">
        <ele>10</ele>
        <time>2013-10-26T07:20:24Z</time>
      </trkpt>
      <trkpt lat="47.5741" lon="-2.89526">
        <ele>10</ele>
        <time>2013-10-26T07:20:28Z</time>
      </trkpt>
      <trkpt lat="47.57406" lon="-2.89524">
        <ele>10</ele>
        <time>2013-10-26T07:20:31Z</time>
      </trkpt>
      <trkpt lat="47.57396" lon="-2.89525">
        <ele>10</ele>
        <time>2013-10-26T07:20:37Z</time>
      </trkpt>
      <trkpt lat="47.5739" lon="-2.89526">
        <ele>10</ele>
        <time>2013-10-26T07:20:40Z</time>
      </trkpt>
      <trkpt lat="47.5738" lon="-2.89526">
        <ele>10</ele>
        <time>2013-10-26T07:20:46Z</time>
      </trkpt>
      <trkpt lat="47.57375" lon="-2.89526">
        <ele>11</ele>
        <time>2013-10-26T07:20:49Z</time>
      </trkpt>
      <trkpt lat="47.57368" lon="-2.89526">
        <ele>11</ele>
        <time>2013-10-26T07:20:53Z</time>
      </trkpt>
      <trkpt lat="47.57363" lon="-2.89526">
        <ele>11</ele>
        <time>2013-10-26T07:20:57Z</time>
      </trkpt>
      <trkpt lat="47.57354" lon="-2.89528">
        <ele>11</ele>
        <time>2013-10-26T07:21:08Z</time>
      </trkpt>
      <trkpt lat="47.57346" lon="-2.89529">
        <ele>11</ele>
        <time>2013-10-26T07:21:13Z</time>
      </trkpt>
      <trkpt lat="47.5734" lon="-2.89529">
        <ele>11</ele>
        <time>2013-10-26T07:21:16Z</time>
      </trkpt>
      <trkpt lat="47.57334" lon="-2.89532">
        <ele>11</ele>
        <time>2013-10-26T07:21:19Z</time>
      </trkpt>
      <trkpt lat="47.57329" lon="-2.89534">
        <ele>10</ele>
        <time>2013-10-26T07:21:22Z</time>
      </trkpt>
      <trkpt lat="47.57324" lon="-2.89535">
        <ele>10</ele>
        <time>2013-10-26T07:21:25Z</time>
      </trkpt>
      <trkpt lat="47.57312" lon="-2.89534">
        <ele>10</ele>
        <time>2013-10-26T07:21:33Z</time>
      </trkpt>
      <trkpt lat="47.57307" lon="-2.89534">
        <ele>10</ele>
        <time>2013-10-26T07:21:36Z</time>
      </trkpt>
      <trkpt lat="47.57302" lon="-2.89535">
        <ele>10</ele>
        <time>2013-10-26T07:21:39Z</time>
      </trkpt>
      <trkpt lat="47.57297" lon="-2.89538">
        <ele>10</ele>
        <time>2013-10-26T07:21:42Z</time>
      </trkpt>
      <trkpt lat="47.57291" lon="-2.8954">
        <ele>9</ele>
        <time>2013-10-26T07:21:46Z</time>
      </trkpt>
      <trkpt lat="47.57286" lon="-2.89544">
        <ele>9</ele>
        <time>2013-10-26T07:21:50Z</time>
      </trkpt>
      <trkpt lat="47.57281" lon="-2.89547">
        <ele>9</ele>
        <time>2013-10-26T07:21:54Z</time>
      </trkpt>
      <trkpt lat="47.57276" lon="-2.89549">
        <ele>9</ele>
        <time>2013-10-26T07:21:59Z</time>
      </trkpt>
      <trkpt lat="47.57272" lon="-2.89549">
        <ele>9</ele>
        <time>2013-10-26T07:22:09Z</time>
      </trkpt>
      <trkpt lat="47.57267" lon="-2.8955">
        <ele>9</ele>
        <time>2013-10-26T07:22:15Z</time>
      </trkpt>
      <trkpt lat="47.57257" lon="-2.8956">
        <ele>9</ele>
        <time>2013-10-26T07:22:27Z</time>
      </trkpt>
      <trkpt lat="47.57253" lon="-2.89563">
        <ele>9</ele>
        <time>2013-10-26T07:22:30Z</time>
      </trkpt>
      <trkpt lat="47.57249" lon="-2.89567">
        <ele>8</ele>
        <time>2013-10-26T07:22:32Z</time>
      </trkpt>
      <trkpt lat="47.57245" lon="-2.89571">
        <ele>8</ele>
        <time>2013-10-26T07:22:34Z</time>
      </trkpt>
      <trkpt lat="47.57237" lon="-2.89583">
        <ele>8</ele>
        <time>2013-10-26T07:22:38Z</time>
      </trkpt>
      <trkpt lat="47.57232" lon="-2.8959">
        <ele>8</ele>
        <time>2013-10-26T07:22:41Z</time>
      </trkpt>
      <trkpt lat="47.57227" lon="-2.89595">
        <ele>9</ele>
        <time>2013-10-26T07:22:44Z</time>
      </trkpt>
      <trkpt lat="47.57223" lon="-2.89601">
        <ele>9</ele>
        <time>2013-10-26T07:22:47Z</time>
      </trkpt>
      <trkpt lat="47.57218" lon="-2.89607">
        <ele>9</ele>
        <time>2013-10-26T07:22:50Z</time>
      </trkpt>
      <trkpt lat="47.57215" lon="-2.89612">
        <ele>9</ele>
        <time>2013-10-26T07:22:52Z</time>
      </trkpt>
      <trkpt lat="47.57211" lon="-2.89619">
        <ele>9</ele>
        <time>2013-10-26T07:22:54Z</time>
      </trkpt>
      <trkpt lat="47.57208" lon="-2.89626">
        <ele>9</ele>
        <time>2013-10-26T07:22:56Z</time>
      </trkpt>
      <trkpt lat="47.57205" lon="-2.89632">
        <ele>9</ele>
        <time>2013-10-26T07:22:58Z</time>
      </trkpt>
      <trkpt lat="47.57202" lon="-2.89637">
        <ele>9</ele>
        <time>2013-10-26T07:23:00Z</time>
      </trkpt>
      <trkpt lat="47.57198" lon="-2.89643">
        <ele>9</ele>
        <time>2013-10-26T07:23:02Z</time>
      </trkpt>
      <trkpt lat="47.57195" lon="-2.89648">
        <ele>9</ele>
        <time>2013-10-26T07:23:04Z</time>
      </trkpt>
      <trkpt lat="47.57192" lon="-2.89653">
        <ele>9</ele>
        <time>2013-10-26T07:23:06Z</time>
      </trkpt>
      <trkpt lat="47.57189" lon="-2.89658">
        <ele>9</ele>
        <time>2013-10-26T07:23:08Z</time>
      </trkpt>
      <trkpt lat="47.57183" lon="-2.89663">
        <ele>9</ele>
        <time>2013-10-26T07:23:11Z</time>
      </trkpt>
      <trkpt lat="47.57178" lon="-2.89669">
        <ele>10</ele>
        <time>2013-10-26T07:23:14Z</time>
      </trkpt>
      <trkpt lat="47.57174" lon="-2.89675">
        <ele>10</ele>
        <time>2013-10-26T07:23:17Z</time>
      </trkpt>
      <trkpt lat="47.57171" lon="-2.89681">
        <ele>9</ele>
        <time>2013-10-26T07:23:21Z</time>
      </trkpt>
      <trkpt lat="47.57167" lon="-2.89685">
        <ele>9</ele>
        <time>2013-10-26T07:23:25Z</time>
      </trkpt>
      <trkpt lat="47.57164" lon="-2.8969">
        <ele>6</ele>
        <time>2013-10-26T07:23:29Z</time>
      </trkpt>
      <trkpt lat="47.5716" lon="-2.89697">
        <ele>6</ele>
        <time>2013-10-26T07:23:33Z</time>
      </trkpt>
      <trkpt lat="47.57157" lon="-2.89703">
        <ele>6</ele>
        <time>2013-10-26T07:23:36Z</time>
      </trkpt>
      <trkpt lat="47.57155" lon="-2.89708">
        <ele>6</ele>
        <time>2013-10-26T07:23:39Z</time>
      </trkpt>
      <trkpt lat="47.57152" lon="-2.89714">
        <ele>6</ele>
        <time>2013-10-26T07:23:42Z</time>
      </trkpt>
      <trkpt lat="47.5715" lon="-2.89722">
        <ele>6</ele>
        <time>2013-10-26T07:23:45Z</time>
      </trkpt>
      <trkpt lat="47.5715" lon="-2.89729">
        <ele>6</ele>
        <time>2013-10-26T07:23:47Z</time>
      </trkpt>
      <trkpt lat="47.57149" lon="-2.89739">
        <ele>6</ele>
        <time>2013-10-26T07:23:50Z</time>
      </trkpt>
      <trkpt lat="47.57148" lon="-2.89747">
        <ele>6</ele>
        <time>2013-10-26T07:23:53Z</time>
      </trkpt>
      <trkpt lat="47.57146" lon="-2.89755">
        <ele>7</ele>
        <time>2013-10-26T07:23:56Z</time>
      </trkpt>
      <trkpt lat="47.57143" lon="-2.89761">
        <ele>8</ele>
        <time>2013-10-26T07:23:59Z</time>
      </trkpt>
      <trkpt lat="47.57141" lon="-2.89768">
        <ele>8</ele>
        <time>2013-10-26T07:24:03Z</time>
      </trkpt>
      <trkpt lat="47.57138" lon="-2.89775">
        <ele>9</ele>
        <time>2013-10-26T07:24:07Z</time>
      </trkpt>
      <trkpt lat="47.57135" lon="-2.89781">
        <ele>9</ele>
        <time>2013-10-26T07:24:11Z</time>
      </trkpt>
      <trkpt lat="47.57132" lon="-2.89787">
        <ele>9</ele>
        <time>2013-10-26T07:24:15Z</time>
      </trkpt>
      <trkpt lat="47.57129" lon="-2.89793">
        <ele>10</ele>
        <time>2013-10-26T07:24:19Z</time>
      </trkpt>
      <trkpt lat="47.57125" lon="-2.89797">
        <ele>10</ele>
        <time>2013-10-26T07:24:23Z</time>
      </trkpt>
      <trkpt lat="47.57122" lon="-2.89801">
        <ele>10</ele>
        <time>2013-10-26T07:24:29Z</time>
      </trkpt>
      <trkpt lat="47.57123" lon="-2.89809">
        <ele>10</ele>
        <time>2013-10-26T07:24:36Z</time>
      </trkpt>
      <trkpt lat="47.57121" lon="-2.89815">
        <ele>10</ele>
        <time>2013-10-26T07:24:42Z</time>
      </trkpt>
      <trkpt lat="47.57119" lon="-2.89822">
        <ele>10</ele>
        <time>2013-10-26T07:24:47Z</time>
      </trkpt>
      <trkpt lat="47.57117" lon="-2.89829">
        <ele>11</ele>
        <time>2013-10-26T07:24:51Z</time>
      </trkpt>
      <trkpt lat="47.57116" lon="-2.89837">
        <ele>13</ele>
        <time>2013-10-26T07:24:55Z</time>
      </trkpt>
      <trkpt lat="47.57116" lon="-2.89845">
        <ele>13</ele>
        <time>2013-10-26T07:24:59Z</time>
      </trkpt>
      <trkpt lat="47.57114" lon="-2.89853">
        <ele>13</ele>
        <time>2013-10-26T07:25:03Z</time>
      </trkpt>
      <trkpt lat="47.57112" lon="-2.8986">
        <ele>13</ele>
        <time>2013-10-26T07:25:07Z</time>
      </trkpt>
      <trkpt lat="47.57108" lon="-2.89864">
        <ele>13</ele>
        <time>2013-10-26T07:25:12Z</time>
      </trkpt>
      <trkpt lat="47.57108" lon="-2.89871">
        <ele>13</ele>
        <time>2013-10-26T07:25:21Z</time>
      </trkpt>
      <trkpt lat="47.57108" lon="-2.8988">
        <ele>12</ele>
        <time>2013-10-26T07:25:26Z</time>
      </trkpt>
      <trkpt lat="47.57108" lon="-2.89887">
        <ele>12</ele>
        <time>2013-10-26T07:25:29Z</time>
      </trkpt>
      <trkpt lat="47.57107" lon="-2.89895">
        <ele>12</ele>
        <time>2013-10-26T07:25:32Z</time>
      </trkpt>
      <trkpt lat="47.57106" lon="-2.89902">
        <ele>12</ele>
        <time>2013-10-26T07:25:35Z</time>
      </trkpt>
      <trkpt lat="47.57105" lon="-2.89908">
        <ele>12</ele>
        <time>2013-10-26T07:25:38Z</time>
      </trkpt>
      <trkpt lat="47.57104" lon="-2.89916">
        <ele>12</ele>
        <time>2013-10-26T07:25:41Z</time>
      </trkpt>
      <trkpt lat="47.57102" lon="-2.89922">
        <ele>10</ele>
        <time>2013-10-26T07:25:44Z</time>
      </trkpt>
      <trkpt lat="47.57101" lon="-2.8993">
        <ele>10</ele>
        <time>2013-10-26T07:25:47Z</time>
      </trkpt>
      <trkpt lat="47.571" lon="-2.89936">
        <ele>9</ele>
        <time>2013-10-26T07:25:50Z</time>
      </trkpt>
      <trkpt lat="47.571" lon="-2.89945">
        <ele>9</ele>
        <time>2013-10-26T07:25:54Z</time>
      </trkpt>
      <trkpt lat="47.57102" lon="-2.89952">
        <ele>9</ele>
        <time>2013-10-26T07:25:58Z</time>
      </trkpt>
      <trkpt lat="47.57104" lon="-2.89958">
        <ele>9</ele>
        <time>2013-10-26T07:26:02Z</time>
      </trkpt>
      <trkpt lat="47.57105" lon="-2.89965">
        <ele>9</ele>
        <time>2013-10-26T07:26:09Z</time>
      </trkpt>
      <trkpt lat="47.57106" lon="-2.89973">
        <ele>9</ele>
        <time>2013-10-26T07:26:15Z</time>
      </trkpt>
      <trkpt lat="47.57107" lon="-2.89979">
        <ele>9</ele>
        <time>2013-10-26T07:26:20Z</time>
      </trkpt>
      <trkpt lat="47.57107" lon="-2.89986">
        <ele>8</ele>
        <time>2013-10-26T07:26:26Z</time>
      </trkpt>
      <trkpt lat="47.57109" lon="-2.89993">
        <ele>8</ele>
        <time>2013-10-26T07:26:38Z</time>
      </trkpt>
      <trkpt lat="47.57108" lon="-2.90001">
        <ele>6</ele>
        <time>2013-10-26T07:26:44Z</time>
      </trkpt>
      <trkpt lat="47.57116" lon="-2.90007">
        <ele>6</ele>
        <time>2013-10-26T07:28:25Z</time>
      </trkpt>
      <trkpt lat="47.57118" lon="-2.90001">
        <ele>6</ele>
        <time>2013-10-26T07:28:33Z</time>
      </trkpt>
      <trkpt lat="47.57113" lon="-2.89992">
        <ele>8</ele>
        <time>2013-10-26T07:29:12Z</time>
      </trkpt>
      <trkpt lat="47.57108" lon="-2.89992">
        <ele>8</ele>
        <time>2013-10-26T07:29:17Z</time>
      </trkpt>
      <trkpt lat="47.57103" lon="-2.89993">
        <ele>8</ele>
        <time>2013-10-26T07:29:23Z</time>
      </trkpt>
      <trkpt lat="47.57098" lon="-2.89992">
        <ele>8</ele>
        <time>2013-10-26T07:29:36Z</time>
      </trkpt>
      <trkpt lat="47.57094" lon="-2.89994">
        <ele>8</ele>
        <time>2013-10-26T07:29:41Z</time>
      </trkpt>
      <trkpt lat="47.57089" lon="-2.89996">
        <ele>8</ele>
        <time>2013-10-26T07:29:53Z</time>
      </trkpt>
      <trkpt lat="47.57085" lon="-2.90002">
        <ele>6</ele>
        <time>2013-10-26T07:29:59Z</time>
      </trkpt>
      <trkpt lat="47.57084" lon="-2.90008">
        <ele>6</ele>
        <time>2013-10-26T07:30:03Z</time>
      </trkpt>
      <trkpt lat="47.57083" lon="-2.90017">
        <time>2013-10-26T07:30:07Z</time>
      </trkpt>
      <trkpt lat="47.57081" lon="-2.90025">
        <time>2013-10-26T07:30:11Z</time>
      </trkpt>
      <trkpt lat="47.57079" lon="-2.90031">
        <time>2013-10-26T07:30:14Z</time>
      </trkpt>
      <trkpt lat="47.57077" lon="-2.90037">
        <time>2013-10-26T07:30:17Z</time>
      </trkpt>
      <trkpt lat="47.57075" lon="-2.90043">
        <time>2013-10-26T07:30:20Z</time>
      </trkpt>
      <trkpt lat="47.57073" lon="-2.90051">
        <time>2013-10-26T07:30:24Z</time>
      </trkpt>
      <trkpt lat="47.57071" lon="-2.90059">
        <time>2013-10-26T07:30:28Z</time>
      </trkpt>
      <trkpt lat="47.57069" lon="-2.90066">
        <time>2013-10-26T07:30:31Z</time>
      </trkpt>
      <trkpt lat="47.57068" lon="-2.90073">
        <time>2013-10-26T07:30:34Z</time>
      </trkpt>
      <trkpt lat="47.57066" lon="-2.90083">
        <time>2013-10-26T07:30:38Z</time>
      </trkpt>
      <trkpt lat="47.57063" lon="-2.90092">
        <time>2013-10-26T07:30:41Z</time>
      </trkpt>
      <trkpt lat="47.57062" lon="-2.90098">
        <time>2013-10-26T07:30:43Z</time>
      </trkpt>
      <trkpt lat="47.5706" lon="-2.90105">
        <time>2013-10-26T07:30:45Z</time>
      </trkpt>
      <trkpt lat="47.57057" lon="-2.90111">
        <time>2013-10-26T07:30:47Z</time>
      </trkpt>
      <trkpt lat="47.57054" lon="-2.90119">
        <time>2013-10-26T07:30:50Z</time>
      </trkpt>
      <trkpt lat="47.57051" lon="-2.90127">
        <time>2013-10-26T07:30:53Z</time>
      </trkpt>
      <trkpt lat="47.57048" lon="-2.90136">
        <time>2013-10-26T07:30:56Z</time>
      </trkpt>
      <trkpt lat="47.57045" lon="-2.90143">
        <time>2013-10-26T07:30:59Z</time>
      </trkpt>
      <trkpt lat="47.57041" lon="-2.90151">
        <time>2013-10-26T07:31:02Z</time>
      </trkpt>
      <trkpt lat="47.57039" lon="-2.90158">
        <time>2013-10-26T07:31:04Z</time>
      </trkpt>
      <trkpt lat="47.57037" lon="-2.90163">
        <time>2013-10-26T07:31:06Z</time>
      </trkpt>
      <trkpt lat="47.57034" lon="-2.90169">
        <time>2013-10-26T07:31:08Z</time>
      </trkpt>
      <trkpt lat="47.5703" lon="-2.90177">
        <time>2013-10-26T07:31:11Z</time>
      </trkpt>
      <trkpt lat="47.57027" lon="-2.90185">
        <time>2013-10-26T07:31:14Z</time>
      </trkpt>
      <trkpt lat="47.57022" lon="-2.90191">
        <time>2013-10-26T07:31:17Z</time>
      </trkpt>
      <trkpt lat="47.57018" lon="-2.90196">
        <time>2013-10-26T07:31:20Z</time>
      </trkpt>
      <trkpt lat="47.57014" lon="-2.90201">
        <time>2013-10-26T07:31:23Z</time>
      </trkpt>
      <trkpt lat="47.5701" lon="-2.90207">
        <time>2013-10-26T07:31:26Z</time>
      </trkpt>
      <trkpt lat="47.57006" lon="-2.90213">
        <time>2013-10-26T07:31:29Z</time>
      </trkpt>
      <trkpt lat="47.57002" lon="-2.9022">
        <time>2013-10-26T07:31:32Z</time>
      </trkpt>
      <trkpt lat="47.56998" lon="-2.90228">
        <time>2013-10-26T07:31:35Z</time>
      </trkpt>
      <trkpt lat="47.56994" lon="-2.90235">
        <time>2013-10-26T07:31:38Z</time>
      </trkpt>
      <trkpt lat="47.5699" lon="-2.90242">
        <time>2013-10-26T07:31:41Z</time>
      </trkpt>
      <trkpt lat="47.56986" lon="-2.90251">
        <time>2013-10-26T07:31:44Z</time>
      </trkpt>
      <trkpt lat="47.56983" lon="-2.90258">
        <time>2013-10-26T07:31:47Z</time>
      </trkpt>
      <trkpt lat="47.56979" lon="-2.90265">
        <time>2013-10-26T07:31:50Z</time>
      </trkpt>
      <trkpt lat="47.56976" lon="-2.90273">
        <time>2013-10-26T07:31:53Z</time>
      </trkpt>
      <trkpt lat="47.56971" lon="-2.90284">
        <time>2013-10-26T07:31:57Z</time>
      </trkpt>
      <trkpt lat="47.56967" lon="-2.90292">
        <time>2013-10-26T07:32:00Z</time>
      </trkpt>
      <trkpt lat="47.56965" lon="-2.90304">
        <time>2013-10-26T07:32:04Z</time>
      </trkpt>
      <trkpt lat="47.56963" lon="-2.90314">
        <time>2013-10-26T07:32:07Z</time>
      </trkpt>
      <trkpt lat="47.56963" lon="-2.9032">
        <time>2013-10-26T07:32:09Z</time>
      </trkpt>
      <trkpt lat="47.56961" lon="-2.9033">
        <time>2013-10-26T07:32:12Z</time>
      </trkpt>
      <trkpt lat="47.56958" lon="-2.90338">
        <time>2013-10-26T07:32:15Z</time>
      </trkpt>
      <trkpt lat="47.56956" lon="-2.90346">
        <time>2013-10-26T07:32:18Z</time>
      </trkpt>
      <trkpt lat="47.56953" lon="-2.90355">
        <time>2013-10-26T07:32:21Z</time>
      </trkpt>
      <trkpt lat="47.5695" lon="-2.90366">
        <time>2013-10-26T07:32:25Z</time>
      </trkpt>
      <trkpt lat="47.56947" lon="-2.90375">
        <time>2013-10-26T07:32:28Z</time>
      </trkpt>
      <trkpt lat="47.56944" lon="-2.90383">
        <time>2013-10-26T07:32:31Z</time>
      </trkpt>
      <trkpt lat="47.56942" lon="-2.90391">
        <time>2013-10-26T07:32:34Z</time>
      </trkpt>
      <trkpt lat="47.56939" lon="-2.904">
        <time>2013-10-26T07:32:37Z</time>
      </trkpt>
      <trkpt lat="47.56936" lon="-2.90408">
        <time>2013-10-26T07:32:40Z</time>
      </trkpt>
      <trkpt lat="47.56933" lon="-2.90416">
        <time>2013-10-26T07:32:43Z</time>
      </trkpt>
      <trkpt lat="47.5693" lon="-2.90424">
        <time>2013-10-26T07:32:46Z</time>
      </trkpt>
      <trkpt lat="47.56926" lon="-2.90432">
        <time>2013-10-26T07:32:49Z</time>
      </trkpt>
      <trkpt lat="47.56923" lon="-2.9044">
        <time>2013-10-26T07:32:52Z</time>
      </trkpt>
      <trkpt lat="47.5692" lon="-2.90448">
        <time>2013-10-26T07:32:55Z</time>
      </trkpt>
      <trkpt lat="47.56917" lon="-2.90455">
        <time>2013-10-26T07:32:58Z</time>
      </trkpt>
      <trkpt lat="47.56914" lon="-2.90462">
        <time>2013-10-26T07:33:01Z</time>
      </trkpt>
      <trkpt lat="47.5691" lon="-2.90469">
        <time>2013-10-26T07:33:04Z</time>
      </trkpt>
      <trkpt lat="47.56907" lon="-2.90476">
        <time>2013-10-26T07:33:07Z</time>
      </trkpt>
      <trkpt lat="47.56904" lon="-2.90483">
        <time>2013-10-26T07:33:10Z</time>
      </trkpt>
      <trkpt lat="47.56901" lon="-2.9049">
        <time>2013-10-26T07:33:13Z</time>
      </trkpt>
      <trkpt lat="47.56897" lon="-2.90496">
        <time>2013-10-26T07:33:16Z</time>
      </trkpt>
      <trkpt lat="47.56894" lon="-2.90503">
        <time>2013-10-26T07:33:19Z</time>
      </trkpt>
      <trkpt lat="47.5689" lon="-2.90509">
        <time>2013-10-26T07:33:22Z</time>
      </trkpt>
      <trkpt lat="47.56885" lon="-2.90515">
        <time>2013-10-26T07:33:26Z</time>
      </trkpt>
      <trkpt lat="47.56881" lon="-2.90518">
        <time>2013-10-26T07:33:29Z</time>
      </trkpt>
      <trkpt lat="47.56877" lon="-2.90521">
        <time>2013-10-26T07:33:32Z</time>
      </trkpt>
      <trkpt lat="47.56873" lon="-2.90525">
        <time>2013-10-26T07:33:35Z</time>
      </trkpt>
      <trkpt lat="47.5687" lon="-2.9053">
        <time>2013-10-26T07:33:38Z</time>
      </trkpt>
      <trkpt lat="47.56867" lon="-2.90536">
        <time>2013-10-26T07:33:42Z</time>
      </trkpt>
      <trkpt lat="47.56864" lon="-2.90543">
        <time>2013-10-26T07:33:46Z</time>
      </trkpt>
      <trkpt lat="47.5686" lon="-2.90547">
        <time>2013-10-26T07:33:49Z</time>
      </trkpt>
      <trkpt lat="47.56857" lon="-2.90555">
        <time>2013-10-26T07:33:53Z</time>
      </trkpt>
      <trkpt lat="47.56854" lon="-2.9056">
        <time>2013-10-26T07:33:56Z</time>
      </trkpt>
      <trkpt lat="47.56852" lon="-2.90566">
        <time>2013-10-26T07:33:59Z</time>
      </trkpt>
      <trkpt lat="47.56849" lon="-2.90572">
        <time>2013-10-26T07:34:02Z</time>
      </trkpt>
      <trkpt lat="47.56845" lon="-2.90577">
        <time>2013-10-26T07:34:05Z</time>
      </trkpt>
      <trkpt lat="47.56842" lon="-2.90583">
        <time>2013-10-26T07:34:09Z</time>
      </trkpt>
      <trkpt lat="47.5684" lon="-2.90588">
        <ele>6</ele>
        <time>2013-10-26T07:34:16Z</time>
      </trkpt>
      <trkpt lat="47.56839" lon="-2.90595">
        <ele>6</ele>
        <time>2013-10-26T07:35:54Z</time>
      </trkpt>
      <trkpt lat="47.56837" lon="-2.90588">
        <ele>6</ele>
        <time>2013-10-26T07:36:52Z</time>
      </trkpt>
      <trkpt lat="47.56833" lon="-2.90584">
        <ele>5</ele>
        <time>2013-10-26T07:36:58Z</time>
      </trkpt>
      <trkpt lat="47.56828" lon="-2.90584">
        <ele>5</ele>
        <time>2013-10-26T07:37:03Z</time>
      </trkpt>
      <trkpt lat="47.56824" lon="-2.90587">
        <ele>5</ele>
        <time>2013-10-26T07:37:07Z</time>
      </trkpt>
      <trkpt lat="47.5682" lon="-2.90592">
        <ele>5</ele>
        <time>2013-10-26T07:37:11Z</time>
      </trkpt>
      <trkpt lat="47.56816" lon="-2.90596">
        <ele>5</ele>
        <time>2013-10-26T07:37:14Z</time>
      </trkpt>
      <trkpt lat="47.56812" lon="-2.90601">
        <ele>5</ele>
        <time>2013-10-26T07:37:17Z</time>
      </trkpt>
      <trkpt lat="47.56809" lon="-2.90607">
        <ele>5</ele>
        <time>2013-10-26T07:37:20Z</time>
      </trkpt>
      <trkpt lat="47.56804" lon="-2.90613">
        <ele>5</ele>
        <time>2013-10-26T07:37:24Z</time>
      </trkpt>
      <trkpt lat="47.568" lon="-2.90618">
        <ele>5</ele>
        <time>2013-10-26T07:37:28Z</time>
      </trkpt>
      <trkpt lat="47.56796" lon="-2.90624">
        <ele>5</ele>
        <time>2013-10-26T07:37:32Z</time>
      </trkpt>
      <trkpt lat="47.56792" lon="-2.9063">
        <ele>5</ele>
        <time>2013-10-26T07:37:36Z</time>
      </trkpt>
      <trkpt lat="47.56788" lon="-2.90635">
        <ele>4</ele>
        <time>2013-10-26T07:37:40Z</time>
      </trkpt>
      <trkpt lat="47.56781" lon="-2.90645">
        <ele>4</ele>
        <time>2013-10-26T07:37:46Z</time>
      </trkpt>
      <trkpt lat="47.56777" lon="-2.9065">
        <ele>4</ele>
        <time>2013-10-26T07:37:49Z</time>
      </trkpt>
      <trkpt lat="47.56774" lon="-2.90657">
        <ele>4</ele>
        <time>2013-10-26T07:37:53Z</time>
      </trkpt>
      <trkpt lat="47.5677" lon="-2.90663">
        <ele>4</ele>
        <time>2013-10-26T07:37:56Z</time>
      </trkpt>
      <trkpt lat="47.56763" lon="-2.90674">
        <ele>5</ele>
        <time>2013-10-26T07:38:02Z</time>
      </trkpt>
      <trkpt lat="47.56758" lon="-2.90677">
        <ele>5</ele>
        <time>2013-10-26T07:38:05Z</time>
      </trkpt>
      <trkpt lat="47.56754" lon="-2.90683">
        <ele>5</ele>
        <time>2013-10-26T07:38:08Z</time>
      </trkpt>
      <trkpt lat="47.56751" lon="-2.90689">
        <ele>6</ele>
        <time>2013-10-26T07:38:11Z</time>
      </trkpt>
      <trkpt lat="47.56748" lon="-2.90695">
        <ele>5</ele>
        <time>2013-10-26T07:38:14Z</time>
      </trkpt>
      <trkpt lat="47.56744" lon="-2.90701">
        <ele>6</ele>
        <time>2013-10-26T07:38:18Z</time>
      </trkpt>
      <trkpt lat="47.56736" lon="-2.9071">
        <ele>7</ele>
        <time>2013-10-26T07:38:26Z</time>
      </trkpt>
      <trkpt lat="47.56731" lon="-2.90714">
        <ele>7</ele>
        <time>2013-10-26T07:38:29Z</time>
      </trkpt>
      <trkpt lat="47.56728" lon="-2.9072">
        <ele>7</ele>
        <time>2013-10-26T07:38:32Z</time>
      </trkpt>
      <trkpt lat="47.56726" lon="-2.90727">
        <ele>8</ele>
        <time>2013-10-26T07:38:35Z</time>
      </trkpt>
      <trkpt lat="47.56723" lon="-2.90733">
        <ele>8</ele>
        <time>2013-10-26T07:38:38Z</time>
      </trkpt>
      <trkpt lat="47.56717" lon="-2.90745">
        <ele>8</ele>
        <time>2013-10-26T07:38:45Z</time>
      </trkpt>
      <trkpt lat="47.56712" lon="-2.90757">
        <ele>11</ele>
        <time>2013-10-26T07:38:51Z</time>
      </trkpt>
      <trkpt lat="47.56706" lon="-2.90769">
        <ele>11</ele>
        <time>2013-10-26T07:38:59Z</time>
      </trkpt>
      <trkpt lat="47.56702" lon="-2.90775">
        <ele>11</ele>
        <time>2013-10-26T07:39:03Z</time>
      </trkpt>
      <trkpt lat="47.56699" lon="-2.9078">
        <ele>11</ele>
        <time>2013-10-26T07:39:07Z</time>
      </trkpt>
      <trkpt lat="47.56696" lon="-2.90785">
        <ele>11</ele>
        <time>2013-10-26T07:39:12Z</time>
      </trkpt>
      <trkpt lat="47.56694" lon="-2.90792">
        <ele>11</ele>
        <time>2013-10-26T07:39:16Z</time>
      </trkpt>
      <trkpt lat="47.56691" lon="-2.90797">
        <ele>11</ele>
        <time>2013-10-26T07:39:21Z</time>
      </trkpt>
      <trkpt lat="47.56691" lon="-2.90805">
        <ele>11</ele>
        <time>2013-10-26T07:39:27Z</time>
      </trkpt>
      <trkpt lat="47.56691" lon="-2.90813">
        <ele>11</ele>
        <time>2013-10-26T07:39:32Z</time>
      </trkpt>
      <trkpt lat="47.56691" lon="-2.9082">
        <ele>11</ele>
        <time>2013-10-26T07:39:36Z</time>
      </trkpt>
      <trkpt lat="47.56691" lon="-2.90828">
        <ele>11</ele>
        <time>2013-10-26T07:39:41Z</time>
      </trkpt>
      <trkpt lat="47.5669" lon="-2.90836">
        <ele>11</ele>
        <time>2013-10-26T07:39:46Z</time>
      </trkpt>
      <trkpt lat="47.56691" lon="-2.90845">
        <ele>10</ele>
        <time>2013-10-26T07:39:51Z</time>
      </trkpt>
      <trkpt lat="47.56693" lon="-2.90852">
        <ele>10</ele>
        <time>2013-10-26T07:39:54Z</time>
      </trkpt>
      <trkpt lat="47.56693" lon="-2.9086">
        <ele>10</ele>
        <time>2013-10-26T07:39:57Z</time>
      </trkpt>
      <trkpt lat="47.56691" lon="-2.90869">
        <ele>10</ele>
        <time>2013-10-26T07:40:00Z</time>
      </trkpt>
      <trkpt lat="47.56689" lon="-2.90876">
        <ele>10</ele>
        <time>2013-10-26T07:40:03Z</time>
      </trkpt>
      <trkpt lat="47.56689" lon="-2.90883">
        <ele>10</ele>
        <time>2013-10-26T07:40:07Z</time>
      </trkpt>
      <trkpt lat="47.56693" lon="-2.90897">
        <ele>10</ele>
        <time>2013-10-26T07:40:19Z</time>
      </trkpt>
      <trkpt lat="47.56697" lon="-2.90908">
        <ele>9</ele>
        <time>2013-10-26T07:40:26Z</time>
      </trkpt>
      <trkpt lat="47.56697" lon="-2.90916">
        <ele>9</ele>
        <time>2013-10-26T07:40:30Z</time>
      </trkpt>
      <trkpt lat="47.56699" lon="-2.90923">
        <ele>8</ele>
        <time>2013-10-26T07:40:36Z</time>
      </trkpt>
      <trkpt lat="47.56705" lon="-2.90934">
        <ele>8</ele>
        <time>2013-10-26T07:40:47Z</time>
      </trkpt>
      <trkpt lat="47.56709" lon="-2.90938">
        <ele>8</ele>
        <time>2013-10-26T07:40:51Z</time>
      </trkpt>
      <trkpt lat="47.56711" lon="-2.90944">
        <ele>8</ele>
        <time>2013-10-26T07:41:01Z</time>
      </trkpt>
      <trkpt lat="47.56716" lon="-2.90949">
        <ele>8</ele>
        <time>2013-10-26T07:41:07Z</time>
      </trkpt>
      <trkpt lat="47.56719" lon="-2.90955">
        <ele>8</ele>
        <time>2013-10-26T07:41:12Z</time>
      </trkpt>
      <trkpt lat="47.56721" lon="-2.90961">
        <ele>8</ele>
        <time>2013-10-26T07:41:17Z</time>
      </trkpt>
      <trkpt lat="47.56722" lon="-2.90968">
        <ele>8</ele>
        <time>2013-10-26T07:41:21Z</time>
      </trkpt>
      <trkpt lat="47.56726" lon="-2.90974">
        <ele>8</ele>
        <time>2013-10-26T07:41:25Z</time>
      </trkpt>
      <trkpt lat="47.56729" lon="-2.9098">
        <ele>8</ele>
        <time>2013-10-26T07:41:30Z</time>
      </trkpt>
      <trkpt lat="47.56732" lon="-2.90988">
        <ele>8</ele>
        <time>2013-10-26T07:41:36Z</time>
      </trkpt>
      <trkpt lat="47.56737" lon="-2.90991">
        <ele>8</ele>
        <time>2013-10-26T07:41:40Z</time>
      </trkpt>
      <trkpt lat="47.56743" lon="-2.90993">
        <ele>8</ele>
        <time>2013-10-26T07:41:44Z</time>
      </trkpt>
      <trkpt lat="47.56748" lon="-2.90993">
        <ele>8</ele>
        <time>2013-10-26T07:41:47Z</time>
      </trkpt>
      <trkpt lat="47.56752" lon="-2.90994">
        <ele>10</ele>
        <time>2013-10-26T07:41:50Z</time>
      </trkpt>
      <trkpt lat="47.56758" lon="-2.90995">
        <ele>10</ele>
        <time>2013-10-26T07:41:54Z</time>
      </trkpt>
      <trkpt lat="47.56763" lon="-2.90997">
        <ele>10</ele>
        <time>2013-10-26T07:41:59Z</time>
      </trkpt>
      <trkpt lat="47.56767" lon="-2.90999">
        <ele>10</ele>
        <time>2013-10-26T07:42:04Z</time>
      </trkpt>
      <trkpt lat="47.56772" lon="-2.91002">
        <ele>8</ele>
        <time>2013-10-26T07:42:10Z</time>
      </trkpt>
      <trkpt lat="47.56777" lon="-2.91003">
        <ele>8</ele>
        <time>2013-10-26T07:42:17Z</time>
      </trkpt>
      <trkpt lat="47.56781" lon="-2.91007">
        <ele>8</ele>
        <time>2013-10-26T07:42:25Z</time>
      </trkpt>
      <trkpt lat="47.56787" lon="-2.91009">
        <ele>8</ele>
        <time>2013-10-26T07:42:32Z</time>
      </trkpt>
      <trkpt lat="47.56793" lon="-2.9101">
        <ele>8</ele>
        <time>2013-10-26T07:42:36Z</time>
      </trkpt>
      <trkpt lat="47.56798" lon="-2.91011">
        <ele>8</ele>
        <time>2013-10-26T07:42:43Z</time>
      </trkpt>
      <trkpt lat="47.56802" lon="-2.91015">
        <ele>8</ele>
        <time>2013-10-26T07:42:57Z</time>
      </trkpt>
      <trkpt lat="47.56805" lon="-2.9102">
        <ele>8</ele>
        <time>2013-10-26T07:43:02Z</time>
      </trkpt>
      <trkpt lat="47.5681" lon="-2.91019">
        <ele>8</ele>
        <time>2013-10-26T07:43:11Z</time>
      </trkpt>
      <trkpt lat="47.56814" lon="-2.91017">
        <ele>8</ele>
        <time>2013-10-26T07:43:22Z</time>
      </trkpt>
      <trkpt lat="47.56817" lon="-2.91023">
        <ele>8</ele>
        <time>2013-10-26T07:43:43Z</time>
      </trkpt>
      <trkpt lat="47.56821" lon="-2.91029">
        <ele>8</ele>
        <time>2013-10-26T07:43:49Z</time>
      </trkpt>
      <trkpt lat="47.56817" lon="-2.91031">
        <ele>8</ele>
        <time>2013-10-26T07:44:10Z</time>
      </trkpt>
      <trkpt lat="47.56811" lon="-2.91029">
        <ele>8</ele>
        <time>2013-10-26T07:44:20Z</time>
      </trkpt>
      <trkpt lat="47.56807" lon="-2.91027">
        <ele>8</ele>
        <time>2013-10-26T07:44:27Z</time>
      </trkpt>
      <trkpt lat="47.56803" lon="-2.91025">
        <ele>8</ele>
        <time>2013-10-26T07:44:57Z</time>
      </trkpt>
      <trkpt lat="47.56798" lon="-2.91022">
        <ele>8</ele>
        <time>2013-10-26T07:45:02Z</time>
      </trkpt>
      <trkpt lat="47.56795" lon="-2.91016">
        <ele>8</ele>
        <time>2013-10-26T07:46:07Z</time>
      </trkpt>
      <trkpt lat="47.5679" lon="-2.91017">
        <ele>8</ele>
        <time>2013-10-26T07:46:12Z</time>
      </trkpt>
      <trkpt lat="47.56785" lon="-2.91019">
        <ele>8</ele>
        <time>2013-10-26T07:46:15Z</time>
      </trkpt>
      <trkpt lat="47.56779" lon="-2.91022">
        <ele>8</ele>
        <time>2013-10-26T07:46:18Z</time>
      </trkpt>
      <trkpt lat="47.56775" lon="-2.91025">
        <ele>8</ele>
        <time>2013-10-26T07:46:20Z</time>
      </trkpt>
      <trkpt lat="47.56771" lon="-2.91028">
        <ele>8</ele>
        <time>2013-10-26T07:46:22Z</time>
      </trkpt>
      <trkpt lat="47.56767" lon="-2.91031">
        <ele>8</ele>
        <time>2013-10-26T07:46:24Z</time>
      </trkpt>
      <trkpt lat="47.56761" lon="-2.91034">
        <ele>8</ele>
        <time>2013-10-26T07:46:27Z</time>
      </trkpt>
      <trkpt lat="47.56755" lon="-2.91037">
        <ele>8</ele>
        <time>2013-10-26T07:46:30Z</time>
      </trkpt>
      <trkpt lat="47.5675" lon="-2.91039">
        <ele>8</ele>
        <time>2013-10-26T07:46:33Z</time>
      </trkpt>
      <trkpt lat="47.56745" lon="-2.91042">
        <time>2013-10-26T07:46:36Z</time>
      </trkpt>
      <trkpt lat="47.56741" lon="-2.91043">
        <time>2013-10-26T07:46:39Z</time>
      </trkpt>
      <trkpt lat="47.56736" lon="-2.91044">
        <time>2013-10-26T07:46:42Z</time>
      </trkpt>
      <trkpt lat="47.56731" lon="-2.91045">
        <time>2013-10-26T07:46:45Z</time>
      </trkpt>
      <trkpt lat="47.56725" lon="-2.91047">
        <time>2013-10-26T07:46:49Z</time>
      </trkpt>
      <trkpt lat="47.56721" lon="-2.91047">
        <time>2013-10-26T07:46:51Z</time>
      </trkpt>
      <trkpt lat="47.56713" lon="-2.91044">
        <time>2013-10-26T07:46:55Z</time>
      </trkpt>
      <trkpt lat="47.56708" lon="-2.91046">
        <time>2013-10-26T07:46:58Z</time>
      </trkpt>
      <trkpt lat="47.56704" lon="-2.91048">
        <time>2013-10-26T07:47:01Z</time>
      </trkpt>
      <trkpt lat="47.56698" lon="-2.9105">
        <time>2013-10-26T07:47:04Z</time>
      </trkpt>
      <trkpt lat="47.56692" lon="-2.91051">
        <time>2013-10-26T07:47:08Z</time>
      </trkpt>
      <trkpt lat="47.56687" lon="-2.91053">
        <time>2013-10-26T07:47:11Z</time>
      </trkpt>
      <trkpt lat="47.56681" lon="-2.91056">
        <time>2013-10-26T07:47:14Z</time>
      </trkpt>
      <trkpt lat="47.56676" lon="-2.91058">
        <time>2013-10-26T07:47:17Z</time>
      </trkpt>
      <trkpt lat="47.5667" lon="-2.9106">
        <time>2013-10-26T07:47:20Z</time>
      </trkpt>
      <trkpt lat="47.56665" lon="-2.91062">
        <time>2013-10-26T07:47:23Z</time>
      </trkpt>
      <trkpt lat="47.5666" lon="-2.91061">
        <time>2013-10-26T07:47:27Z</time>
      </trkpt>
      <trkpt lat="47.56654" lon="-2.91062">
        <time>2013-10-26T07:47:31Z</time>
      </trkpt>
      <trkpt lat="47.5665" lon="-2.91062">
        <time>2013-10-26T07:47:35Z</time>
      </trkpt>
      <trkpt lat="47.56645" lon="-2.91059">
        <time>2013-10-26T07:47:37Z</time>
      </trkpt>
      <trkpt lat="47.5664" lon="-2.91056">
        <time>2013-10-26T07:47:40Z</time>
      </trkpt>
      <trkpt lat="47.56635" lon="-2.91053">
        <time>2013-10-26T07:47:43Z</time>
      </trkpt>
      <trkpt lat="47.56631" lon="-2.9105">
        <time>2013-10-26T07:47:47Z</time>
      </trkpt>
      <trkpt lat="47.56626" lon="-2.91048">
        <time>2013-10-26T07:47:49Z</time>
      </trkpt>
      <trkpt lat="47.56621" lon="-2.91046">
        <time>2013-10-26T07:47:53Z</time>
      </trkpt>
      <trkpt lat="47.56616" lon="-2.91043">
        <time>2013-10-26T07:47:55Z</time>
      </trkpt>
      <trkpt lat="47.56611" lon="-2.91041">
        <time>2013-10-26T07:47:58Z</time>
      </trkpt>
      <trkpt lat="47.56605" lon="-2.91038">
        <time>2013-10-26T07:48:02Z</time>
      </trkpt>
      <trkpt lat="47.566" lon="-2.91035">
        <time>2013-10-26T07:48:04Z</time>
      </trkpt>
      <trkpt lat="47.56593" lon="-2.91031">
        <time>2013-10-26T07:48:08Z</time>
      </trkpt>
      <trkpt lat="47.56588" lon="-2.91029">
        <time>2013-10-26T07:48:11Z</time>
      </trkpt>
      <trkpt lat="47.56583" lon="-2.91027">
        <time>2013-10-26T07:48:15Z</time>
      </trkpt>
      <trkpt lat="47.56578" lon="-2.91025">
        <time>2013-10-26T07:48:17Z</time>
      </trkpt>
      <trkpt lat="47.56572" lon="-2.91022">
        <time>2013-10-26T07:48:20Z</time>
      </trkpt>
      <trkpt lat="47.56567" lon="-2.9102">
        <time>2013-10-26T07:48:23Z</time>
      </trkpt>
      <trkpt lat="47.56562" lon="-2.91017">
        <time>2013-10-26T07:48:27Z</time>
      </trkpt>
      <trkpt lat="47.56557" lon="-2.91014">
        <time>2013-10-26T07:48:30Z</time>
      </trkpt>
      <trkpt lat="47.56552" lon="-2.9101">
        <time>2013-10-26T07:48:33Z</time>
      </trkpt>
      <trkpt lat="47.56548" lon="-2.91007">
        <time>2013-10-26T07:48:36Z</time>
      </trkpt>
      <trkpt lat="47.56544" lon="-2.91005">
        <time>2013-10-26T07:48:39Z</time>
      </trkpt>
      <trkpt lat="47.56538" lon="-2.91002">
        <time>2013-10-26T07:48:43Z</time>
      </trkpt>
      <trkpt lat="47.56533" lon="-2.90998">
        <time>2013-10-26T07:48:47Z</time>
      </trkpt>
      <trkpt lat="47.56529" lon="-2.90993">
        <time>2013-10-26T07:48:49Z</time>
      </trkpt>
      <trkpt lat="47.56524" lon="-2.90988">
        <time>2013-10-26T07:48:52Z</time>
      </trkpt>
      <trkpt lat="47.56519" lon="-2.90983">
        <time>2013-10-26T07:48:55Z</time>
      </trkpt>
      <trkpt lat="47.56514" lon="-2.9098">
        <time>2013-10-26T07:48:58Z</time>
      </trkpt>
      <trkpt lat="47.56509" lon="-2.90979">
        <time>2013-10-26T07:49:01Z</time>
      </trkpt>
      <trkpt lat="47.56505" lon="-2.90978">
        <time>2013-10-26T07:49:05Z</time>
      </trkpt>
      <trkpt lat="47.565" lon="-2.90974">
        <time>2013-10-26T07:49:07Z</time>
      </trkpt>
      <trkpt lat="47.56496" lon="-2.90969">
        <time>2013-10-26T07:49:10Z</time>
      </trkpt>
      <trkpt lat="47.56491" lon="-2.90966">
        <time>2013-10-26T07:49:14Z</time>
      </trkpt>
      <trkpt lat="47.56486" lon="-2.90964">
        <time>2013-10-26T07:49:17Z</time>
      </trkpt>
      <trkpt lat="47.56481" lon="-2.90963">
        <time>2013-10-26T07:49:22Z</time>
      </trkpt>
      <trkpt lat="47.56476" lon="-2.90961">
        <time>2013-10-26T07:49:31Z</time>
      </trkpt>
      <trkpt lat="47.56472" lon="-2.90957">
        <time>2013-10-26T07:49:35Z</time>
      </trkpt>
      <trkpt lat="47.56467" lon="-2.90954">
        <time>2013-10-26T07:49:39Z</time>
      </trkpt>
      <trkpt lat="47.56463" lon="-2.90952">
        <time>2013-10-26T07:49:42Z</time>
      </trkpt>
      <trkpt lat="47.56458" lon="-2.90949">
        <time>2013-10-26T07:49:46Z</time>
      </trkpt>
      <trkpt lat="47.56453" lon="-2.90946">
        <time>2013-10-26T07:49:49Z</time>
      </trkpt>
      <trkpt lat="47.56449" lon="-2.90946">
        <time>2013-10-26T07:49:52Z</time>
      </trkpt>
      <trkpt lat="47.56444" lon="-2.90946">
        <time>2013-10-26T07:49:55Z</time>
      </trkpt>
      <trkpt lat="47.56438" lon="-2.90944">
        <time>2013-10-26T07:49:59Z</time>
      </trkpt>
      <trkpt lat="47.56433" lon="-2.90941">
        <time>2013-10-26T07:50:03Z</time>
      </trkpt>
      <trkpt lat="47.56429" lon="-2.90935">
        <time>2013-10-26T07:50:07Z</time>
      </trkpt>
      <trkpt lat="47.56424" lon="-2.90932">
        <time>2013-10-26T07:50:11Z</time>
      </trkpt>
      <trkpt lat="47.5642" lon="-2.90931">
        <time>2013-10-26T07:50:15Z</time>
      </trkpt>
      <trkpt lat="47.56415" lon="-2.9093">
        <time>2013-10-26T07:50:18Z</time>
      </trkpt>
      <trkpt lat="47.56409" lon="-2.90928">
        <time>2013-10-26T07:50:23Z</time>
      </trkpt>
      <trkpt lat="47.56403" lon="-2.90925">
        <time>2013-10-26T07:50:27Z</time>
      </trkpt>
      <trkpt lat="47.56399" lon="-2.90923">
        <time>2013-10-26T07:50:29Z</time>
      </trkpt>
      <trkpt lat="47.56393" lon="-2.9092">
        <time>2013-10-26T07:50:33Z</time>
      </trkpt>
      <trkpt lat="47.56388" lon="-2.90916">
        <time>2013-10-26T07:50:37Z</time>
      </trkpt>
      <trkpt lat="47.56384" lon="-2.90912">
        <time>2013-10-26T07:50:41Z</time>
      </trkpt>
      <trkpt lat="47.56379" lon="-2.90909">
        <time>2013-10-26T07:50:43Z</time>
      </trkpt>
      <trkpt lat="47.56374" lon="-2.90908">
        <time>2013-10-26T07:50:47Z</time>
      </trkpt>
      <trkpt lat="47.56369" lon="-2.90906">
        <time>2013-10-26T07:50:50Z</time>
      </trkpt>
      <trkpt lat="47.56364" lon="-2.90903">
        <time>2013-10-26T07:50:52Z</time>
      </trkpt>
      <trkpt lat="47.56359" lon="-2.90902">
        <time>2013-10-26T07:50:56Z</time>
      </trkpt>
      <trkpt lat="47.56353" lon="-2.90898">
        <time>2013-10-26T07:51:00Z</time>
      </trkpt>
      <trkpt lat="47.56349" lon="-2.90894">
        <time>2013-10-26T07:51:04Z</time>
      </trkpt>
      <trkpt lat="47.56344" lon="-2.90891">
        <time>2013-10-26T07:51:08Z</time>
      </trkpt>
      <trkpt lat="47.56338" lon="-2.90889">
        <time>2013-10-26T07:51:11Z</time>
      </trkpt>
      <trkpt lat="47.56334" lon="-2.90888">
        <time>2013-10-26T07:51:14Z</time>
      </trkpt>
      <trkpt lat="47.56329" lon="-2.90885">
        <time>2013-10-26T07:51:18Z</time>
      </trkpt>
      <trkpt lat="47.56324" lon="-2.90882">
        <time>2013-10-26T07:51:20Z</time>
      </trkpt>
      <trkpt lat="47.56319" lon="-2.90879">
        <time>2013-10-26T07:51:23Z</time>
      </trkpt>
      <trkpt lat="47.56315" lon="-2.90877">
        <time>2013-10-26T07:51:26Z</time>
      </trkpt>
      <trkpt lat="47.5631" lon="-2.90875">
        <time>2013-10-26T07:51:29Z</time>
      </trkpt>
      <trkpt lat="47.56306" lon="-2.9087">
        <time>2013-10-26T07:51:32Z</time>
      </trkpt>
      <trkpt lat="47.56302" lon="-2.90866">
        <time>2013-10-26T07:51:35Z</time>
      </trkpt>
      <trkpt lat="47.56298" lon="-2.90861">
        <time>2013-10-26T07:51:38Z</time>
      </trkpt>
      <trkpt lat="47.56294" lon="-2.90858">
        <time>2013-10-26T07:51:42Z</time>
      </trkpt>
      <trkpt lat="47.5629" lon="-2.90854">
        <time>2013-10-26T07:51:46Z</time>
      </trkpt>
      <trkpt lat="47.56287" lon="-2.90848">
        <time>2013-10-26T07:51:50Z</time>
      </trkpt>
      <trkpt lat="47.56283" lon="-2.90842">
        <time>2013-10-26T07:51:54Z</time>
      </trkpt>
      <trkpt lat="47.56279" lon="-2.90837">
        <time>2013-10-26T07:51:58Z</time>
      </trkpt>
      <trkpt lat="47.56275" lon="-2.90833">
        <ele>5</ele>
        <time>2013-10-26T07:52:02Z</time>
      </trkpt>
      <trkpt lat="47.5627" lon="-2.90831">
        <ele>5</ele>
        <time>2013-10-26T07:52:06Z</time>
      </trkpt>
      <trkpt lat="47.56266" lon="-2.90832">
        <ele>5</ele>
        <time>2013-10-26T07:52:10Z</time>
      </trkpt>
      <trkpt lat="47.56261" lon="-2.90831">
        <ele>5</ele>
        <time>2013-10-26T07:52:14Z</time>
      </trkpt>
      <trkpt lat="47.56256" lon="-2.90831">
        <ele>5</ele>
        <time>2013-10-26T07:52:18Z</time>
      </trkpt>
      <trkpt lat="47.56251" lon="-2.9083">
        <ele>5</ele>
        <time>2013-10-26T07:52:22Z</time>
      </trkpt>
      <trkpt lat="47.56245" lon="-2.9083">
        <ele>7</ele>
        <time>2013-10-26T07:52:26Z</time>
      </trkpt>
      <trkpt lat="47.56241" lon="-2.90827">
        <ele>7</ele>
        <time>2013-10-26T07:52:31Z</time>
      </trkpt>
      <trkpt lat="47.56243" lon="-2.9082">
        <ele>7</ele>
        <time>2013-10-26T07:52:41Z</time>
      </trkpt>
      <trkpt lat="47.56242" lon="-2.90813">
        <ele>7</ele>
        <time>2013-10-26T07:53:08Z</time>
      </trkpt>
      <trkpt lat="47.56238" lon="-2.90813">
        <ele>7</ele>
        <time>2013-10-26T07:53:19Z</time>
      </trkpt>
      <trkpt lat="47.56233" lon="-2.90815">
        <ele>7</ele>
        <time>2013-10-26T07:53:27Z</time>
      </trkpt>
      <trkpt lat="47.56238" lon="-2.90814">
        <ele>7</ele>
        <time>2013-10-26T07:54:14Z</time>
      </trkpt>
      <trkpt lat="47.56243" lon="-2.90812">
        <ele>7</ele>
        <time>2013-10-26T07:54:18Z</time>
      </trkpt>
      <trkpt lat="47.56248" lon="-2.90812">
        <ele>7</ele>
        <time>2013-10-26T07:54:23Z</time>
      </trkpt>
      <trkpt lat="47.56253" lon="-2.90812">
        <ele>5</ele>
        <time>2013-10-26T07:54:26Z</time>
      </trkpt>
      <trkpt lat="47.56259" lon="-2.90812">
        <ele>5</ele>
        <time>2013-10-26T07:54:31Z</time>
      </trkpt>
      <trkpt lat="47.56263" lon="-2.90811">
        <ele>5</ele>
        <time>2013-10-26T07:54:48Z</time>
      </trkpt>
      <trkpt lat="47.56269" lon="-2.9081">
        <ele>5</ele>
        <time>2013-10-26T07:54:55Z</time>
      </trkpt>
      <trkpt lat="47.56274" lon="-2.90812">
        <ele>5</ele>
        <time>2013-10-26T07:54:59Z</time>
      </trkpt>
      <trkpt lat="47.56279" lon="-2.90813">
        <ele>5</ele>
        <time>2013-10-26T07:55:02Z</time>
      </trkpt>
      <trkpt lat="47.56285" lon="-2.90814">
        <ele>5</ele>
        <time>2013-10-26T07:55:07Z</time>
      </trkpt>
      <trkpt lat="47.5629" lon="-2.90815">
        <ele>5</ele>
        <time>2013-10-26T07:55:10Z</time>
      </trkpt>
      <trkpt lat="47.56296" lon="-2.90813">
        <ele>5</ele>
        <time>2013-10-26T07:55:15Z</time>
      </trkpt>
      <trkpt lat="47.56301" lon="-2.90812">
        <ele>5</ele>
        <time>2013-10-26T07:55:17Z</time>
      </trkpt>
      <trkpt lat="47.56306" lon="-2.90809">
        <ele>5</ele>
        <time>2013-10-26T07:55:20Z</time>
      </trkpt>
      <trkpt lat="47.56312" lon="-2.90805">
        <ele>5</ele>
        <time>2013-10-26T07:55:23Z</time>
      </trkpt>
      <trkpt lat="47.56316" lon="-2.90802">
        <ele>5</ele>
        <time>2013-10-26T07:55:26Z</time>
      </trkpt>
      <trkpt lat="47.56323" lon="-2.90797">
        <ele>5</ele>
        <time>2013-10-26T07:55:29Z</time>
      </trkpt>
      <trkpt lat="47.56329" lon="-2.90791">
        <ele>5</ele>
        <time>2013-10-26T07:55:32Z</time>
      </trkpt>
      <trkpt lat="47.56332" lon="-2.90787">
        <ele>5</ele>
        <time>2013-10-26T07:55:35Z</time>
      </trkpt>
      <trkpt lat="47.56335" lon="-2.90779">
        <time>2013-10-26T07:55:38Z</time>
      </trkpt>
      <trkpt lat="47.56336" lon="-2.90773">
        <time>2013-10-26T07:55:42Z</time>
      </trkpt>
      <trkpt lat="47.56337" lon="-2.90766">
        <time>2013-10-26T07:55:49Z</time>
      </trkpt>
      <trkpt lat="47.56337" lon="-2.90759">
        <time>2013-10-26T07:55:54Z</time>
      </trkpt>
      <trkpt lat="47.56336" lon="-2.90752">
        <time>2013-10-26T07:56:00Z</time>
      </trkpt>
      <trkpt lat="47.56336" lon="-2.90745">
        <time>2013-10-26T07:56:08Z</time>
      </trkpt>
      <trkpt lat="47.56336" lon="-2.90738">
        <time>2013-10-26T07:56:16Z</time>
      </trkpt>
      <trkpt lat="47.56336" lon="-2.90731">
        <time>2013-10-26T07:56:41Z</time>
      </trkpt>
      <trkpt lat="47.56335" lon="-2.90724">
        <time>2013-10-26T07:56:59Z</time>
      </trkpt>
      <trkpt lat="47.56335" lon="-2.90717">
        <time>2013-10-26T07:57:13Z</time>
      </trkpt>
      <trkpt lat="47.56332" lon="-2.90711">
        <ele>5</ele>
        <time>2013-10-26T07:57:26Z</time>
      </trkpt>
      <trkpt lat="47.56333" lon="-2.90703">
        <ele>4</ele>
        <time>2013-10-26T07:57:35Z</time>
      </trkpt>
      <trkpt lat="47.56335" lon="-2.90696">
        <time>2013-10-26T07:57:49Z</time>
      </trkpt>
      <trkpt lat="47.56336" lon="-2.9069">
        <time>2013-10-26T07:58:14Z</time>
      </trkpt>
      <trkpt lat="47.56341" lon="-2.90693">
        <time>2013-10-26T07:58:49Z</time>
      </trkpt>
      <trkpt lat="47.56341" lon="-2.907">
        <time>2013-10-26T07:58:54Z</time>
      </trkpt>
      <trkpt lat="47.5634" lon="-2.90708">
        <time>2013-10-26T07:58:59Z</time>
      </trkpt>
      <trkpt lat="47.5634" lon="-2.90715">
        <time>2013-10-26T07:59:03Z</time>
      </trkpt>
      <trkpt lat="47.56341" lon="-2.90722">
        <time>2013-10-26T07:59:09Z</time>
      </trkpt>
      <trkpt lat="47.56341" lon="-2.90729">
        <time>2013-10-26T07:59:15Z</time>
      </trkpt>
      <trkpt lat="47.5634" lon="-2.90737">
        <time>2013-10-26T07:59:23Z</time>
      </trkpt>
      <trkpt lat="47.5634" lon="-2.90745">
        <time>2013-10-26T07:59:28Z</time>
      </trkpt>
      <trkpt lat="47.56339" lon="-2.90751">
        <time>2013-10-26T07:59:34Z</time>
      </trkpt>
      <trkpt lat="47.5634" lon="-2.90759">
        <time>2013-10-26T07:59:41Z</time>
      </trkpt>
      <trkpt lat="47.5634" lon="-2.90766">
        <time>2013-10-26T07:59:47Z</time>
      </trkpt>
      <trkpt lat="47.56339" lon="-2.90774">
        <time>2013-10-26T07:59:51Z</time>
      </trkpt>
      <trkpt lat="47.56338" lon="-2.90782">
        <time>2013-10-26T07:59:55Z</time>
      </trkpt>
      <trkpt lat="47.56335" lon="-2.90788">
        <time>2013-10-26T08:00:01Z</time>
      </trkpt>
      <trkpt lat="47.5633" lon="-2.9079">
        <ele>5</ele>
        <time>2013-10-26T08:00:07Z</time>
      </trkpt>
      <trkpt lat="47.56325" lon="-2.90793">
        <ele>5</ele>
        <time>2013-10-26T08:00:13Z</time>
      </trkpt>
      <trkpt lat="47.56321" lon="-2.90795">
        <ele>5</ele>
        <time>2013-10-26T08:00:17Z</time>
      </trkpt>
      <trkpt lat="47.56317" lon="-2.908">
        <ele>5</ele>
        <time>2013-10-26T08:00:21Z</time>
      </trkpt>
      <trkpt lat="47.56313" lon="-2.90804">
        <ele>5</ele>
        <time>2013-10-26T08:00:25Z</time>
      </trkpt>
      <trkpt lat="47.56308" lon="-2.90806">
        <ele>5</ele>
        <time>2013-10-26T08:00:30Z</time>
      </trkpt>
      <trkpt lat="47.56303" lon="-2.90809">
        <ele>5</ele>
        <time>2013-10-26T08:00:34Z</time>
      </trkpt>
      <trkpt lat="47.56297" lon="-2.90812">
        <ele>5</ele>
        <time>2013-10-26T08:00:38Z</time>
      </trkpt>
      <trkpt lat="47.56291" lon="-2.90813">
        <ele>5</ele>
        <time>2013-10-26T08:00:42Z</time>
      </trkpt>
      <trkpt lat="47.56286" lon="-2.90813">
        <ele>5</ele>
        <time>2013-10-26T08:00:47Z</time>
      </trkpt>
      <trkpt lat="47.5628" lon="-2.90814">
        <ele>5</ele>
        <time>2013-10-26T08:00:51Z</time>
      </trkpt>
      <trkpt lat="47.56275" lon="-2.90815">
        <ele>5</ele>
        <time>2013-10-26T08:00:55Z</time>
      </trkpt>
      <trkpt lat="47.56268" lon="-2.90816">
        <ele>5</ele>
        <time>2013-10-26T08:00:58Z</time>
      </trkpt>
      <trkpt lat="47.56263" lon="-2.90817">
        <ele>5</ele>
        <time>2013-10-26T08:01:01Z</time>
      </trkpt>
      <trkpt lat="47.56257" lon="-2.90817">
        <ele>5</ele>
        <time>2013-10-26T08:01:05Z</time>
      </trkpt>
      <trkpt lat="47.56252" lon="-2.90817">
        <ele>5</ele>
        <time>2013-10-26T08:01:08Z</time>
      </trkpt>
      <trkpt lat="47.56246" lon="-2.90818">
        <ele>7</ele>
        <time>2013-10-26T08:01:12Z</time>
      </trkpt>
      <trkpt lat="47.5624" lon="-2.90817">
        <ele>7</ele>
        <time>2013-10-26T08:01:15Z</time>
      </trkpt>
      <trkpt lat="47.56234" lon="-2.90817">
        <ele>7</ele>
        <time>2013-10-26T08:01:18Z</time>
      </trkpt>
      <trkpt lat="47.56229" lon="-2.90817">
        <ele>7</ele>
        <time>2013-10-26T08:01:22Z</time>
      </trkpt>
      <trkpt lat="47.56225" lon="-2.90821">
        <ele>7</ele>
        <time>2013-10-26T08:01:25Z</time>
      </trkpt>
      <trkpt lat="47.5622" lon="-2.90824">
        <ele>7</ele>
        <time>2013-10-26T08:01:28Z</time>
      </trkpt>
      <trkpt lat="47.56216" lon="-2.90828">
        <ele>7</ele>
        <time>2013-10-26T08:01:31Z</time>
      </trkpt>
      <trkpt lat="47.56207" lon="-2.90835">
        <ele>5</ele>
        <time>2013-10-26T08:01:38Z</time>
      </trkpt>
      <trkpt lat="47.56198" lon="-2.90842">
        <ele>5</ele>
        <time>2013-10-26T08:01:44Z</time>
      </trkpt>
      <trkpt lat="47.56194" lon="-2.90846">
        <ele>5</ele>
        <time>2013-10-26T08:01:47Z</time>
      </trkpt>
      <trkpt lat="47.56189" lon="-2.90849">
        <ele>5</ele>
        <time>2013-10-26T08:01:50Z</time>
      </trkpt>
      <trkpt lat="47.56183" lon="-2.90851">
        <ele>5</ele>
        <time>2013-10-26T08:01:53Z</time>
      </trkpt>
      <trkpt lat="47.56177" lon="-2.90855">
        <ele>5</ele>
        <time>2013-10-26T08:01:56Z</time>
      </trkpt>
      <trkpt lat="47.56173" lon="-2.90861">
        <ele>5</ele>
        <time>2013-10-26T08:01:59Z</time>
      </trkpt>
      <trkpt lat="47.56168" lon="-2.90863">
        <ele>5</ele>
        <time>2013-10-26T08:02:03Z</time>
      </trkpt>
      <trkpt lat="47.56161" lon="-2.90867">
        <ele>6</ele>
        <time>2013-10-26T08:02:06Z</time>
      </trkpt>
      <trkpt lat="47.56156" lon="-2.90868">
        <ele>6</ele>
        <time>2013-10-26T08:02:10Z</time>
      </trkpt>
      <trkpt lat="47.5615" lon="-2.9087">
        <ele>6</ele>
        <time>2013-10-26T08:02:15Z</time>
      </trkpt>
      <trkpt lat="47.56141" lon="-2.90878">
        <ele>6</ele>
        <time>2013-10-26T08:02:23Z</time>
      </trkpt>
      <trkpt lat="47.56136" lon="-2.90882">
        <ele>6</ele>
        <time>2013-10-26T08:02:26Z</time>
      </trkpt>
      <trkpt lat="47.5613" lon="-2.90884">
        <ele>6</ele>
        <time>2013-10-26T08:02:29Z</time>
      </trkpt>
      <trkpt lat="47.56125" lon="-2.90887">
        <ele>6</ele>
        <time>2013-10-26T08:02:32Z</time>
      </trkpt>
      <trkpt lat="47.5612" lon="-2.90889">
        <ele>6</ele>
        <time>2013-10-26T08:02:36Z</time>
      </trkpt>
      <trkpt lat="47.56116" lon="-2.90891">
        <ele>6</ele>
        <time>2013-10-26T08:02:39Z</time>
      </trkpt>
      <trkpt lat="47.5611" lon="-2.90895">
        <ele>6</ele>
        <time>2013-10-26T08:02:43Z</time>
      </trkpt>
      <trkpt lat="47.56106" lon="-2.90899">
        <ele>6</ele>
        <time>2013-10-26T08:02:46Z</time>
      </trkpt>
      <trkpt lat="47.56102" lon="-2.90903">
        <ele>6</ele>
        <time>2013-10-26T08:02:49Z</time>
      </trkpt>
      <trkpt lat="47.56099" lon="-2.90908">
        <ele>6</ele>
        <time>2013-10-26T08:02:52Z</time>
      </trkpt>
      <trkpt lat="47.56095" lon="-2.90913">
        <ele>6</ele>
        <time>2013-10-26T08:02:55Z</time>
      </trkpt>
      <trkpt lat="47.56092" lon="-2.90919">
        <time>2013-10-26T08:02:58Z</time>
      </trkpt>
      <trkpt lat="47.56088" lon="-2.90924">
        <time>2013-10-26T08:03:01Z</time>
      </trkpt>
      <trkpt lat="47.56084" lon="-2.90928">
        <time>2013-10-26T08:03:04Z</time>
      </trkpt>
      <trkpt lat="47.56079" lon="-2.90933">
        <time>2013-10-26T08:03:08Z</time>
      </trkpt>
      <trkpt lat="47.56076" lon="-2.90938">
        <time>2013-10-26T08:03:12Z</time>
      </trkpt>
      <trkpt lat="47.56071" lon="-2.90944">
        <time>2013-10-26T08:03:15Z</time>
      </trkpt>
      <trkpt lat="47.56066" lon="-2.90946">
        <time>2013-10-26T08:03:19Z</time>
      </trkpt>
      <trkpt lat="47.56061" lon="-2.90948">
        <time>2013-10-26T08:03:22Z</time>
      </trkpt>
      <trkpt lat="47.56052" lon="-2.90954">
        <time>2013-10-26T08:03:29Z</time>
      </trkpt>
      <trkpt lat="47.56045" lon="-2.90958">
        <time>2013-10-26T08:03:32Z</time>
      </trkpt>
      <trkpt lat="47.5604" lon="-2.90962">
        <time>2013-10-26T08:03:35Z</time>
      </trkpt>
      <trkpt lat="47.56036" lon="-2.90967">
        <time>2013-10-26T08:03:39Z</time>
      </trkpt>
      <trkpt lat="47.5603" lon="-2.9097">
        <time>2013-10-26T08:03:42Z</time>
      </trkpt>
      <trkpt lat="47.56024" lon="-2.90973">
        <time>2013-10-26T08:03:45Z</time>
      </trkpt>
      <trkpt lat="47.5602" lon="-2.90976">
        <time>2013-10-26T08:03:47Z</time>
      </trkpt>
      <trkpt lat="47.56015" lon="-2.90979">
        <time>2013-10-26T08:03:49Z</time>
      </trkpt>
      <trkpt lat="47.56011" lon="-2.90983">
        <time>2013-10-26T08:03:51Z</time>
      </trkpt>
      <trkpt lat="47.56007" lon="-2.90986">
        <time>2013-10-26T08:03:53Z</time>
      </trkpt>
      <trkpt lat="47.56002" lon="-2.9099">
        <time>2013-10-26T08:03:55Z</time>
      </trkpt>
      <trkpt lat="47.55997" lon="-2.90994">
        <time>2013-10-26T08:03:58Z</time>
      </trkpt>
      <trkpt lat="47.5599" lon="-2.90999">
        <time>2013-10-26T08:04:02Z</time>
      </trkpt>
      <trkpt lat="47.55986" lon="-2.91001">
        <time>2013-10-26T08:04:06Z</time>
      </trkpt>
      <trkpt lat="47.55981" lon="-2.91003">
        <time>2013-10-26T08:04:08Z</time>
      </trkpt>
      <trkpt lat="47.55978" lon="-2.91008">
        <time>2013-10-26T08:04:11Z</time>
      </trkpt>
      <trkpt lat="47.55974" lon="-2.91012">
        <time>2013-10-26T08:04:14Z</time>
      </trkpt>
      <trkpt lat="47.5597" lon="-2.91017">
        <time>2013-10-26T08:04:17Z</time>
      </trkpt>
      <trkpt lat="47.55965" lon="-2.91023">
        <time>2013-10-26T08:04:20Z</time>
      </trkpt>
      <trkpt lat="47.55961" lon="-2.91028">
        <time>2013-10-26T08:04:23Z</time>
      </trkpt>
      <trkpt lat="47.55956" lon="-2.91033">
        <time>2013-10-26T08:04:26Z</time>
      </trkpt>
      <trkpt lat="47.55952" lon="-2.91038">
        <time>2013-10-26T08:04:29Z</time>
      </trkpt>
      <trkpt lat="47.55948" lon="-2.91043">
        <time>2013-10-26T08:04:33Z</time>
      </trkpt>
      <trkpt lat="47.55944" lon="-2.91048">
        <time>2013-10-26T08:04:35Z</time>
      </trkpt>
      <trkpt lat="47.55939" lon="-2.91055">
        <time>2013-10-26T08:04:38Z</time>
      </trkpt>
      <trkpt lat="47.55935" lon="-2.9106">
        <time>2013-10-26T08:04:41Z</time>
      </trkpt>
      <trkpt lat="47.5593" lon="-2.91064">
        <time>2013-10-26T08:04:44Z</time>
      </trkpt>
      <trkpt lat="47.55926" lon="-2.91068">
        <time>2013-10-26T08:04:47Z</time>
      </trkpt>
      <trkpt lat="47.55922" lon="-2.91073">
        <time>2013-10-26T08:04:50Z</time>
      </trkpt>
      <trkpt lat="47.55918" lon="-2.9108">
        <time>2013-10-26T08:04:53Z</time>
      </trkpt>
      <trkpt lat="47.55915" lon="-2.91086">
        <time>2013-10-26T08:04:56Z</time>
      </trkpt>
      <trkpt lat="47.55911" lon="-2.91092">
        <time>2013-10-26T08:05:00Z</time>
      </trkpt>
      <trkpt lat="47.55907" lon="-2.91098">
        <time>2013-10-26T08:05:02Z</time>
      </trkpt>
      <trkpt lat="47.55903" lon="-2.91103">
        <time>2013-10-26T08:05:05Z</time>
      </trkpt>
      <trkpt lat="47.559" lon="-2.91109">
        <time>2013-10-26T08:05:08Z</time>
      </trkpt>
      <trkpt lat="47.55896" lon="-2.91114">
        <time>2013-10-26T08:05:11Z</time>
      </trkpt>
      <trkpt lat="47.55892" lon="-2.91122">
        <time>2013-10-26T08:05:14Z</time>
      </trkpt>
      <trkpt lat="47.55889" lon="-2.91128">
        <time>2013-10-26T08:05:17Z</time>
      </trkpt>
      <trkpt lat="47.55886" lon="-2.91134">
        <time>2013-10-26T08:05:20Z</time>
      </trkpt>
      <trkpt lat="47.55882" lon="-2.91139">
        <time>2013-10-26T08:05:23Z</time>
      </trkpt>
      <trkpt lat="47.55878" lon="-2.91145">
        <time>2013-10-26T08:05:26Z</time>
      </trkpt>
      <trkpt lat="47.55874" lon="-2.91152">
        <time>2013-10-26T08:05:29Z</time>
      </trkpt>
      <trkpt lat="47.55869" lon="-2.91158">
        <time>2013-10-26T08:05:32Z</time>
      </trkpt>
      <trkpt lat="47.55866" lon="-2.91163">
        <time>2013-10-26T08:05:34Z</time>
      </trkpt>
      <trkpt lat="47.55861" lon="-2.9117">
        <time>2013-10-26T08:05:37Z</time>
      </trkpt>
      <trkpt lat="47.55859" lon="-2.91175">
        <time>2013-10-26T08:05:39Z</time>
      </trkpt>
      <trkpt lat="47.55855" lon="-2.91183">
        <time>2013-10-26T08:05:42Z</time>
      </trkpt>
      <trkpt lat="47.55852" lon="-2.91192">
        <time>2013-10-26T08:05:45Z</time>
      </trkpt>
      <trkpt lat="47.55848" lon="-2.912">
        <time>2013-10-26T08:05:48Z</time>
      </trkpt>
      <trkpt lat="47.55846" lon="-2.91206">
        <time>2013-10-26T08:05:50Z</time>
      </trkpt>
      <trkpt lat="47.55843" lon="-2.91215">
        <time>2013-10-26T08:05:53Z</time>
      </trkpt>
      <trkpt lat="47.5584" lon="-2.91223">
        <time>2013-10-26T08:05:56Z</time>
      </trkpt>
      <trkpt lat="47.55837" lon="-2.91231">
        <time>2013-10-26T08:05:59Z</time>
      </trkpt>
      <trkpt lat="47.55835" lon="-2.91239">
        <time>2013-10-26T08:06:02Z</time>
      </trkpt>
      <trkpt lat="47.55832" lon="-2.91246">
        <time>2013-10-26T08:06:05Z</time>
      </trkpt>
      <trkpt lat="47.55829" lon="-2.91252">
        <time>2013-10-26T08:06:08Z</time>
      </trkpt>
      <trkpt lat="47.55826" lon="-2.9126">
        <time>2013-10-26T08:06:12Z</time>
      </trkpt>
      <trkpt lat="47.55824" lon="-2.91267">
        <time>2013-10-26T08:06:16Z</time>
      </trkpt>
      <trkpt lat="47.5582" lon="-2.91274">
        <time>2013-10-26T08:06:20Z</time>
      </trkpt>
      <trkpt lat="47.55816" lon="-2.9128">
        <time>2013-10-26T08:06:25Z</time>
      </trkpt>
      <trkpt lat="47.55811" lon="-2.91285">
        <time>2013-10-26T08:06:28Z</time>
      </trkpt>
      <trkpt lat="47.55808" lon="-2.9129">
        <time>2013-10-26T08:06:31Z</time>
      </trkpt>
      <trkpt lat="47.55804" lon="-2.91296">
        <time>2013-10-26T08:06:35Z</time>
      </trkpt>
      <trkpt lat="47.55802" lon="-2.91301">
        <time>2013-10-26T08:06:38Z</time>
      </trkpt>
      <trkpt lat="47.55798" lon="-2.91308">
        <time>2013-10-26T08:06:42Z</time>
      </trkpt>
      <trkpt lat="47.55794" lon="-2.91314">
        <time>2013-10-26T08:06:46Z</time>
      </trkpt>
      <trkpt lat="47.5579" lon="-2.91321">
        <time>2013-10-26T08:06:50Z</time>
      </trkpt>
      <trkpt lat="47.55786" lon="-2.91325">
        <time>2013-10-26T08:06:53Z</time>
      </trkpt>
      <trkpt lat="47.55783" lon="-2.91331">
        <time>2013-10-26T08:06:56Z</time>
      </trkpt>
      <trkpt lat="47.55781" lon="-2.91337">
        <time>2013-10-26T08:06:59Z</time>
      </trkpt>
      <trkpt lat="47.55779" lon="-2.91344">
        <time>2013-10-26T08:07:03Z</time>
      </trkpt>
      <trkpt lat="47.55776" lon="-2.91349">
        <time>2013-10-26T08:07:08Z</time>
      </trkpt>
      <trkpt lat="47.55774" lon="-2.91356">
        <time>2013-10-26T08:07:13Z</time>
      </trkpt>
      <trkpt lat="47.55771" lon="-2.91362">
        <ele>1</ele>
        <time>2013-10-26T08:07:18Z</time>
      </trkpt>
      <trkpt lat="47.55767" lon="-2.9137">
        <ele>1</ele>
        <time>2013-10-26T08:07:24Z</time>
      </trkpt>
      <trkpt lat="47.55766" lon="-2.91377">
        <ele>1</ele>
        <time>2013-10-26T08:07:28Z</time>
      </trkpt>
      <trkpt lat="47.55767" lon="-2.91385">
        <ele>1</ele>
        <time>2013-10-26T08:07:32Z</time>
      </trkpt>
      <trkpt lat="47.55767" lon="-2.91392">
        <ele>1</ele>
        <time>2013-10-26T08:07:39Z</time>
      </trkpt>
      <trkpt lat="47.55767" lon="-2.91399">
        <ele>1</ele>
        <time>2013-10-26T08:07:43Z</time>
      </trkpt>
      <trkpt lat="47.55765" lon="-2.91405">
        <ele>1</ele>
        <time>2013-10-26T08:07:47Z</time>
      </trkpt>
      <trkpt lat="47.55763" lon="-2.91411">
        <ele>1</ele>
        <time>2013-10-26T08:07:50Z</time>
      </trkpt>
      <trkpt lat="47.5576" lon="-2.91418">
        <ele>1</ele>
        <time>2013-10-26T08:07:53Z</time>
      </trkpt>
      <trkpt lat="47.55754" lon="-2.91425">
        <ele>1</ele>
        <time>2013-10-26T08:07:58Z</time>
      </trkpt>
      <trkpt lat="47.5575" lon="-2.9143">
        <ele>1</ele>
        <time>2013-10-26T08:08:00Z</time>
      </trkpt>
      <trkpt lat="47.55745" lon="-2.91436">
        <ele>9</ele>
        <time>2013-10-26T08:08:03Z</time>
      </trkpt>
      <trkpt lat="47.5574" lon="-2.91441">
        <ele>9</ele>
        <time>2013-10-26T08:08:06Z</time>
      </trkpt>
      <trkpt lat="47.55736" lon="-2.91446">
        <ele>9</ele>
        <time>2013-10-26T08:08:09Z</time>
      </trkpt>
      <trkpt lat="47.55727" lon="-2.91452">
        <ele>9</ele>
        <time>2013-10-26T08:08:17Z</time>
      </trkpt>
      <trkpt lat="47.55721" lon="-2.91455">
        <ele>9</ele>
        <time>2013-10-26T08:08:20Z</time>
      </trkpt>
      <trkpt lat="47.55718" lon="-2.9146">
        <ele>9</ele>
        <time>2013-10-26T08:08:25Z</time>
      </trkpt>
      <trkpt lat="47.55714" lon="-2.91464">
        <ele>9</ele>
        <time>2013-10-26T08:08:28Z</time>
      </trkpt>
      <trkpt lat="47.55709" lon="-2.91466">
        <ele>9</ele>
        <time>2013-10-26T08:08:31Z</time>
      </trkpt>
      <trkpt lat="47.55702" lon="-2.91471">
        <ele>9</ele>
        <time>2013-10-26T08:08:37Z</time>
      </trkpt>
      <trkpt lat="47.55697" lon="-2.91474">
        <ele>9</ele>
        <time>2013-10-26T08:08:39Z</time>
      </trkpt>
      <trkpt lat="47.55691" lon="-2.91476">
        <ele>9</ele>
        <time>2013-10-26T08:08:44Z</time>
      </trkpt>
      <trkpt lat="47.55685" lon="-2.91477">
        <ele>9</ele>
        <time>2013-10-26T08:08:47Z</time>
      </trkpt>
      <trkpt lat="47.5568" lon="-2.91478">
        <ele>9</ele>
        <time>2013-10-26T08:08:50Z</time>
      </trkpt>
      <trkpt lat="47.55675" lon="-2.91479">
        <ele>9</ele>
        <time>2013-10-26T08:08:53Z</time>
      </trkpt>
      <trkpt lat="47.5567" lon="-2.91481">
        <ele>9</ele>
        <time>2013-10-26T08:08:57Z</time>
      </trkpt>
      <trkpt lat="47.55661" lon="-2.91486">
        <ele>11</ele>
        <time>2013-10-26T08:09:05Z</time>
      </trkpt>
      <trkpt lat="47.55657" lon="-2.9149">
        <ele>11</ele>
        <time>2013-10-26T08:09:09Z</time>
      </trkpt>
      <trkpt lat="47.55652" lon="-2.9149">
        <ele>11</ele>
        <time>2013-10-26T08:09:14Z</time>
      </trkpt>
      <trkpt lat="47.55648" lon="-2.91491">
        <ele>11</ele>
        <time>2013-10-26T08:09:18Z</time>
      </trkpt>
      <trkpt lat="47.55642" lon="-2.91493">
        <ele>11</ele>
        <time>2013-10-26T08:09:21Z</time>
      </trkpt>
      <trkpt lat="47.55637" lon="-2.91495">
        <ele>11</ele>
        <time>2013-10-26T08:09:24Z</time>
      </trkpt>
      <trkpt lat="47.55632" lon="-2.91496">
        <ele>11</ele>
        <time>2013-10-26T08:09:27Z</time>
      </trkpt>
      <trkpt lat="47.55627" lon="-2.91497">
        <ele>11</ele>
        <time>2013-10-26T08:09:30Z</time>
      </trkpt>
      <trkpt lat="47.55622" lon="-2.915">
        <ele>11</ele>
        <time>2013-10-26T08:09:34Z</time>
      </trkpt>
      <trkpt lat="47.55618" lon="-2.91501">
        <time>2013-10-26T08:09:38Z</time>
      </trkpt>
      <trkpt lat="47.55613" lon="-2.91503">
        <time>2013-10-26T08:09:40Z</time>
      </trkpt>
      <trkpt lat="47.55609" lon="-2.91504">
        <ele>1</ele>
        <time>2013-10-26T08:09:43Z</time>
      </trkpt>
      <trkpt lat="47.55603" lon="-2.91506">
        <ele>1</ele>
        <time>2013-10-26T08:09:47Z</time>
      </trkpt>
      <trkpt lat="47.55597" lon="-2.91507">
        <ele>1</ele>
        <time>2013-10-26T08:09:51Z</time>
      </trkpt>
      <trkpt lat="47.55592" lon="-2.91509">
        <ele>1</ele>
        <time>2013-10-26T08:09:55Z</time>
      </trkpt>
      <trkpt lat="47.55587" lon="-2.91511">
        <ele>1</ele>
        <time>2013-10-26T08:09:59Z</time>
      </trkpt>
      <trkpt lat="47.55583" lon="-2.91512">
        <ele>1</ele>
        <time>2013-10-26T08:10:03Z</time>
      </trkpt>
      <trkpt lat="47.55578" lon="-2.91514">
        <ele>1</ele>
        <time>2013-10-26T08:10:08Z</time>
      </trkpt>
      <trkpt lat="47.55572" lon="-2.91515">
        <ele>1</ele>
        <time>2013-10-26T08:10:11Z</time>
      </trkpt>
      <trkpt lat="47.55566" lon="-2.91515">
        <ele>1</ele>
        <time>2013-10-26T08:10:14Z</time>
      </trkpt>
      <trkpt lat="47.55561" lon="-2.91515">
        <ele>1</ele>
        <time>2013-10-26T08:10:16Z</time>
      </trkpt>
      <trkpt lat="47.55556" lon="-2.91515">
        <ele>1</ele>
        <time>2013-10-26T08:10:19Z</time>
      </trkpt>
      <trkpt lat="47.5555" lon="-2.91513">
        <ele>1</ele>
        <time>2013-10-26T08:10:21Z</time>
      </trkpt>
      <trkpt lat="47.55544" lon="-2.91513">
        <ele>1</ele>
        <time>2013-10-26T08:10:24Z</time>
      </trkpt>
      <trkpt lat="47.55536" lon="-2.91512">
        <ele>1</ele>
        <time>2013-10-26T08:10:28Z</time>
      </trkpt>
      <trkpt lat="47.55529" lon="-2.91512">
        <ele>1</ele>
        <time>2013-10-26T08:10:32Z</time>
      </trkpt>
      <trkpt lat="47.55523" lon="-2.91511">
        <ele>1</ele>
        <time>2013-10-26T08:10:34Z</time>
      </trkpt>
      <trkpt lat="47.55517" lon="-2.91511">
        <ele>1</ele>
        <time>2013-10-26T08:10:37Z</time>
      </trkpt>
      <trkpt lat="47.55511" lon="-2.91511">
        <ele>1</ele>
        <time>2013-10-26T08:10:40Z</time>
      </trkpt>
      <trkpt lat="47.55506" lon="-2.9151">
        <ele>1</ele>
        <time>2013-10-26T08:10:42Z</time>
      </trkpt>
      <trkpt lat="47.55499" lon="-2.91509">
        <time>2013-10-26T08:10:46Z</time>
      </trkpt>
      <trkpt lat="47.55493" lon="-2.91506">
        <time>2013-10-26T08:10:48Z</time>
      </trkpt>
      <trkpt lat="47.55488" lon="-2.91503">
        <time>2013-10-26T08:10:51Z</time>
      </trkpt>
      <trkpt lat="47.55481" lon="-2.915">
        <time>2013-10-26T08:10:55Z</time>
      </trkpt>
      <trkpt lat="47.55475" lon="-2.91499">
        <ele>9</ele>
        <time>2013-10-26T08:10:58Z</time>
      </trkpt>
      <trkpt lat="47.55469" lon="-2.91498">
        <ele>9</ele>
        <time>2013-10-26T08:11:01Z</time>
      </trkpt>
      <trkpt lat="47.55463" lon="-2.91495">
        <ele>9</ele>
        <time>2013-10-26T08:11:05Z</time>
      </trkpt>
      <trkpt lat="47.55457" lon="-2.91493">
        <ele>8</ele>
        <time>2013-10-26T08:11:07Z</time>
      </trkpt>
      <trkpt lat="47.55451" lon="-2.9149">
        <ele>8</ele>
        <time>2013-10-26T08:11:10Z</time>
      </trkpt>
      <trkpt lat="47.55446" lon="-2.91489">
        <ele>8</ele>
        <time>2013-10-26T08:11:12Z</time>
      </trkpt>
      <trkpt lat="47.55441" lon="-2.91487">
        <ele>8</ele>
        <time>2013-10-26T08:11:15Z</time>
      </trkpt>
      <trkpt lat="47.55434" lon="-2.91487">
        <ele>8</ele>
        <time>2013-10-26T08:11:18Z</time>
      </trkpt>
      <trkpt lat="47.5543" lon="-2.91486">
        <ele>8</ele>
        <time>2013-10-26T08:11:20Z</time>
      </trkpt>
      <trkpt lat="47.55423" lon="-2.91486">
        <ele>8</ele>
        <time>2013-10-26T08:11:24Z</time>
      </trkpt>
      <trkpt lat="47.55417" lon="-2.91486">
        <ele>8</ele>
        <time>2013-10-26T08:11:26Z</time>
      </trkpt>
      <trkpt lat="47.55412" lon="-2.91485">
        <ele>6</ele>
        <time>2013-10-26T08:11:30Z</time>
      </trkpt>
      <trkpt lat="47.55406" lon="-2.91485">
        <ele>6</ele>
        <time>2013-10-26T08:11:32Z</time>
      </trkpt>
      <trkpt lat="47.554" lon="-2.91485">
        <ele>6</ele>
        <time>2013-10-26T08:11:36Z</time>
      </trkpt>
      <trkpt lat="47.55394" lon="-2.91484">
        <ele>6</ele>
        <time>2013-10-26T08:11:39Z</time>
      </trkpt>
      <trkpt lat="47.55388" lon="-2.91483">
        <ele>6</ele>
        <time>2013-10-26T08:11:41Z</time>
      </trkpt>
      <trkpt lat="47.55382" lon="-2.91482">
        <ele>6</ele>
        <time>2013-10-26T08:11:45Z</time>
      </trkpt>
      <trkpt lat="47.55377" lon="-2.91481">
        <ele>6</ele>
        <time>2013-10-26T08:11:47Z</time>
      </trkpt>
      <trkpt lat="47.55372" lon="-2.91481">
        <ele>6</ele>
        <time>2013-10-26T08:11:51Z</time>
      </trkpt>
      <trkpt lat="47.55366" lon="-2.91481">
        <ele>6</ele>
        <time>2013-10-26T08:11:53Z</time>
      </trkpt>
      <trkpt lat="47.5536" lon="-2.9148">
        <ele>6</ele>
        <time>2013-10-26T08:11:57Z</time>
      </trkpt>
      <trkpt lat="47.55355" lon="-2.91479">
        <ele>6</ele>
        <time>2013-10-26T08:11:59Z</time>
      </trkpt>
      <trkpt lat="47.55349" lon="-2.91479">
        <ele>6</ele>
        <time>2013-10-26T08:12:02Z</time>
      </trkpt>
      <trkpt lat="47.55342" lon="-2.91479">
        <ele>6</ele>
        <time>2013-10-26T08:12:05Z</time>
      </trkpt>
      <trkpt lat="47.55333" lon="-2.91481">
        <time>2013-10-26T08:12:09Z</time>
      </trkpt>
      <trkpt lat="47.55327" lon="-2.91483">
        <time>2013-10-26T08:12:12Z</time>
      </trkpt>
      <trkpt lat="47.55321" lon="-2.91485">
        <time>2013-10-26T08:12:15Z</time>
      </trkpt>
      <trkpt lat="47.55316" lon="-2.91486">
        <time>2013-10-26T08:12:17Z</time>
      </trkpt>
      <trkpt lat="47.55308" lon="-2.91488">
        <time>2013-10-26T08:12:21Z</time>
      </trkpt>
      <trkpt lat="47.55303" lon="-2.91489">
        <time>2013-10-26T08:12:24Z</time>
      </trkpt>
      <trkpt lat="47.55292" lon="-2.91491">
        <time>2013-10-26T08:12:31Z</time>
      </trkpt>
      <trkpt lat="47.55287" lon="-2.91492">
        <time>2013-10-26T08:12:32Z</time>
      </trkpt>
      <trkpt lat="47.55281" lon="-2.91494">
        <time>2013-10-26T08:12:35Z</time>
      </trkpt>
      <trkpt lat="47.55275" lon="-2.91497">
        <time>2013-10-26T08:12:38Z</time>
      </trkpt>
      <trkpt lat="47.5527" lon="-2.91501">
        <time>2013-10-26T08:12:41Z</time>
      </trkpt>
      <trkpt lat="47.55264" lon="-2.91505">
        <time>2013-10-26T08:12:44Z</time>
      </trkpt>
      <trkpt lat="47.55254" lon="-2.9151">
        <time>2013-10-26T08:12:49Z</time>
      </trkpt>
      <trkpt lat="47.55249" lon="-2.91511">
        <time>2013-10-26T08:12:52Z</time>
      </trkpt>
      <trkpt lat="47.55244" lon="-2.91513">
        <time>2013-10-26T08:12:57Z</time>
      </trkpt>
      <trkpt lat="47.55239" lon="-2.91516">
        <time>2013-10-26T08:13:00Z</time>
      </trkpt>
      <trkpt lat="47.55235" lon="-2.91519">
        <time>2013-10-26T08:13:04Z</time>
      </trkpt>
      <trkpt lat="47.5523" lon="-2.91521">
        <time>2013-10-26T08:13:08Z</time>
      </trkpt>
      <trkpt lat="47.55225" lon="-2.91524">
        <time>2013-10-26T08:13:11Z</time>
      </trkpt>
      <trkpt lat="47.5522" lon="-2.91527">
        <time>2013-10-26T08:13:15Z</time>
      </trkpt>
      <trkpt lat="47.55215" lon="-2.9153">
        <time>2013-10-26T08:13:17Z</time>
      </trkpt>
      <trkpt lat="47.55209" lon="-2.91533">
        <time>2013-10-26T08:13:20Z</time>
      </trkpt>
      <trkpt lat="47.55203" lon="-2.91535">
        <time>2013-10-26T08:13:23Z</time>
      </trkpt>
      <trkpt lat="47.55199" lon="-2.91538">
        <time>2013-10-26T08:13:25Z</time>
      </trkpt>
      <trkpt lat="47.55193" lon="-2.91543">
        <time>2013-10-26T08:13:28Z</time>
      </trkpt>
      <trkpt lat="47.5519" lon="-2.91547">
        <time>2013-10-26T08:13:30Z</time>
      </trkpt>
      <trkpt lat="47.55184" lon="-2.91552">
        <time>2013-10-26T08:13:33Z</time>
      </trkpt>
      <trkpt lat="47.5518" lon="-2.91555">
        <time>2013-10-26T08:13:35Z</time>
      </trkpt>
      <trkpt lat="47.55176" lon="-2.91558">
        <time>2013-10-26T08:13:37Z</time>
      </trkpt>
      <trkpt lat="47.55172" lon="-2.91562">
        <time>2013-10-26T08:13:39Z</time>
      </trkpt>
      <trkpt lat="47.55167" lon="-2.91568">
        <time>2013-10-26T08:13:43Z</time>
      </trkpt>
      <trkpt lat="47.55159" lon="-2.91574">
        <time>2013-10-26T08:13:46Z</time>
      </trkpt>
      <trkpt lat="47.55154" lon="-2.91577">
        <time>2013-10-26T08:13:49Z</time>
      </trkpt>
      <trkpt lat="47.55149" lon="-2.91582">
        <time>2013-10-26T08:13:52Z</time>
      </trkpt>
      <trkpt lat="47.55144" lon="-2.91587">
        <time>2013-10-26T08:13:56Z</time>
      </trkpt>
      <trkpt lat="47.5514" lon="-2.91592">
        <time>2013-10-26T08:13:58Z</time>
      </trkpt>
      <trkpt lat="47.55134" lon="-2.91596">
        <time>2013-10-26T08:14:01Z</time>
      </trkpt>
      <trkpt lat="47.5513" lon="-2.91599">
        <time>2013-10-26T08:14:04Z</time>
      </trkpt>
      <trkpt lat="47.55126" lon="-2.91604">
        <time>2013-10-26T08:14:07Z</time>
      </trkpt>
      <trkpt lat="47.55121" lon="-2.91609">
        <time>2013-10-26T08:14:10Z</time>
      </trkpt>
      <trkpt lat="47.55116" lon="-2.91613">
        <time>2013-10-26T08:14:14Z</time>
      </trkpt>
      <trkpt lat="47.55111" lon="-2.91615">
        <time>2013-10-26T08:14:16Z</time>
      </trkpt>
      <trkpt lat="47.55107" lon="-2.91619">
        <time>2013-10-26T08:14:19Z</time>
      </trkpt>
      <trkpt lat="47.55102" lon="-2.91623">
        <time>2013-10-26T08:14:23Z</time>
      </trkpt>
      <trkpt lat="47.55098" lon="-2.91625">
        <time>2013-10-26T08:14:26Z</time>
      </trkpt>
      <trkpt lat="47.55094" lon="-2.91628">
        <time>2013-10-26T08:14:33Z</time>
      </trkpt>
      <trkpt lat="47.55089" lon="-2.91629">
        <time>2013-10-26T08:14:37Z</time>
      </trkpt>
      <trkpt lat="47.55084" lon="-2.91631">
        <time>2013-10-26T08:14:41Z</time>
      </trkpt>
      <trkpt lat="47.55079" lon="-2.91633">
        <time>2013-10-26T08:14:45Z</time>
      </trkpt>
      <trkpt lat="47.55074" lon="-2.91637">
        <time>2013-10-26T08:14:50Z</time>
      </trkpt>
      <trkpt lat="47.55069" lon="-2.91638">
        <time>2013-10-26T08:14:53Z</time>
      </trkpt>
      <trkpt lat="47.55064" lon="-2.9164">
        <time>2013-10-26T08:14:57Z</time>
      </trkpt>
      <trkpt lat="47.55059" lon="-2.91642">
        <time>2013-10-26T08:15:03Z</time>
      </trkpt>
      <trkpt lat="47.55054" lon="-2.9164">
        <time>2013-10-26T08:15:16Z</time>
      </trkpt>
      <trkpt lat="47.5505" lon="-2.91636">
        <time>2013-10-26T08:15:38Z</time>
      </trkpt>
      <trkpt lat="47.55046" lon="-2.91637">
        <time>2013-10-26T08:16:04Z</time>
      </trkpt>
      <trkpt lat="47.55043" lon="-2.91643">
        <time>2013-10-26T08:16:34Z</time>
      </trkpt>
      <trkpt lat="47.55039" lon="-2.91648">
        <time>2013-10-26T08:16:42Z</time>
      </trkpt>
      <trkpt lat="47.55036" lon="-2.91654">
        <time>2013-10-26T08:16:48Z</time>
      </trkpt>
      <trkpt lat="47.55033" lon="-2.91659">
        <time>2013-10-26T08:16:58Z</time>
      </trkpt>
      <trkpt lat="47.55029" lon="-2.91663">
        <time>2013-10-26T08:17:04Z</time>
      </trkpt>
      <trkpt lat="47.55024" lon="-2.91666">
        <ele>4</ele>
        <time>2013-10-26T08:17:08Z</time>
      </trkpt>
      <trkpt lat="47.55021" lon="-2.91672">
        <ele>4</ele>
        <time>2013-10-26T08:17:13Z</time>
      </trkpt>
      <trkpt lat="47.55017" lon="-2.91675">
        <ele>4</ele>
        <time>2013-10-26T08:17:25Z</time>
      </trkpt>
      <trkpt lat="47.55013" lon="-2.9168">
        <ele>4</ele>
        <time>2013-10-26T08:17:31Z</time>
      </trkpt>
      <trkpt lat="47.55009" lon="-2.91685">
        <ele>4</ele>
        <time>2013-10-26T08:17:49Z</time>
      </trkpt>
      <trkpt lat="47.55007" lon="-2.9169">
        <ele>4</ele>
        <time>2013-10-26T08:18:08Z</time>
      </trkpt>
      <trkpt lat="47.55003" lon="-2.91695">
        <time>2013-10-26T08:18:43Z</time>
      </trkpt>
      <trkpt lat="47.55" lon="-2.917">
        <ele>2</ele>
        <time>2013-10-26T08:18:47Z</time>
      </trkpt>
      <trkpt lat="47.54996" lon="-2.91706">
        <ele>2</ele>
        <time>2013-10-26T08:18:52Z</time>
      </trkpt>
      <trkpt lat="47.54993" lon="-2.91713">
        <ele>2</ele>
        <time>2013-10-26T08:18:57Z</time>
      </trkpt>
      <trkpt lat="47.54989" lon="-2.91719">
        <ele>2</ele>
        <time>2013-10-26T08:19:01Z</time>
      </trkpt>
      <trkpt lat="47.54984" lon="-2.91724">
        <ele>2</ele>
        <time>2013-10-26T08:19:06Z</time>
      </trkpt>
      <trkpt lat="47.54979" lon="-2.91729">
        <ele>2</ele>
        <time>2013-10-26T08:19:10Z</time>
      </trkpt>
      <trkpt lat="47.54976" lon="-2.91734">
        <ele>2</ele>
        <time>2013-10-26T08:19:12Z</time>
      </trkpt>
      <trkpt lat="47.54972" lon="-2.9174">
        <ele>2</ele>
        <time>2013-10-26T08:19:16Z</time>
      </trkpt>
      <trkpt lat="47.54968" lon="-2.91745">
        <ele>2</ele>
        <time>2013-10-26T08:19:18Z</time>
      </trkpt>
      <trkpt lat="47.54964" lon="-2.9175">
        <time>2013-10-26T08:19:21Z</time>
      </trkpt>
      <trkpt lat="47.54959" lon="-2.91755">
        <time>2013-10-26T08:19:24Z</time>
      </trkpt>
      <trkpt lat="47.54955" lon="-2.91762">
        <time>2013-10-26T08:19:27Z</time>
      </trkpt>
      <trkpt lat="47.54951" lon="-2.91765">
        <time>2013-10-26T08:19:30Z</time>
      </trkpt>
      <trkpt lat="47.54947" lon="-2.91772">
        <time>2013-10-26T08:19:32Z</time>
      </trkpt>
      <trkpt lat="47.54946" lon="-2.91778">
        <time>2013-10-26T08:19:35Z</time>
      </trkpt>
      <trkpt lat="47.54944" lon="-2.91787">
        <time>2013-10-26T08:19:39Z</time>
      </trkpt>
      <trkpt lat="47.54941" lon="-2.91792">
        <time>2013-10-26T08:19:42Z</time>
      </trkpt>
      <trkpt lat="47.54938" lon="-2.91798">
        <time>2013-10-26T08:19:45Z</time>
      </trkpt>
      <trkpt lat="47.54935" lon="-2.91804">
        <time>2013-10-26T08:19:48Z</time>
      </trkpt>
      <trkpt lat="47.54931" lon="-2.91809">
        <time>2013-10-26T08:19:52Z</time>
      </trkpt>
      <trkpt lat="47.54928" lon="-2.91813">
        <time>2013-10-26T08:19:54Z</time>
      </trkpt>
      <trkpt lat="47.54924" lon="-2.91817">
        <time>2013-10-26T08:19:58Z</time>
      </trkpt>
      <trkpt lat="47.5492" lon="-2.91822">
        <time>2013-10-26T08:20:01Z</time>
      </trkpt>
      <trkpt lat="47.54917" lon="-2.91828">
        <time>2013-10-26T08:20:03Z</time>
      </trkpt>
      <trkpt lat="47.54915" lon="-2.91835">
        <ele>9</ele>
        <time>2013-10-26T08:20:06Z</time>
      </trkpt>
      <trkpt lat="47.54911" lon="-2.91841">
        <ele>9</ele>
        <time>2013-10-26T08:20:10Z</time>
      </trkpt>
      <trkpt lat="47.54908" lon="-2.91847">
        <ele>9</ele>
        <time>2013-10-26T08:20:14Z</time>
      </trkpt>
      <trkpt lat="47.54905" lon="-2.91854">
        <ele>9</ele>
        <time>2013-10-26T08:20:17Z</time>
      </trkpt>
      <trkpt lat="47.54901" lon="-2.91861">
        <ele>9</ele>
        <time>2013-10-26T08:20:21Z</time>
      </trkpt>
      <trkpt lat="47.54897" lon="-2.91867">
        <ele>9</ele>
        <time>2013-10-26T08:20:25Z</time>
      </trkpt>
      <trkpt lat="47.54893" lon="-2.91873">
        <ele>9</ele>
        <time>2013-10-26T08:20:29Z</time>
      </trkpt>
      <trkpt lat="47.54889" lon="-2.9188">
        <ele>8</ele>
        <time>2013-10-26T08:20:33Z</time>
      </trkpt>
      <trkpt lat="47.54887" lon="-2.91886">
        <ele>8</ele>
        <time>2013-10-26T08:20:37Z</time>
      </trkpt>
      <trkpt lat="47.54883" lon="-2.91892">
        <ele>8</ele>
        <time>2013-10-26T08:20:40Z</time>
      </trkpt>
      <trkpt lat="47.54878" lon="-2.91898">
        <ele>8</ele>
        <time>2013-10-26T08:20:47Z</time>
      </trkpt>
      <trkpt lat="47.54874" lon="-2.91901">
        <ele>8</ele>
        <time>2013-10-26T08:20:51Z</time>
      </trkpt>
      <trkpt lat="47.5487" lon="-2.91906">
        <ele>8</ele>
        <time>2013-10-26T08:20:56Z</time>
      </trkpt>
      <trkpt lat="47.54868" lon="-2.91912">
        <ele>7</ele>
        <time>2013-10-26T08:21:02Z</time>
      </trkpt>
      <trkpt lat="47.54866" lon="-2.91919">
        <ele>6</ele>
        <time>2013-10-26T08:21:07Z</time>
      </trkpt>
      <trkpt lat="47.54864" lon="-2.91926">
        <ele>6</ele>
        <time>2013-10-26T08:21:12Z</time>
      </trkpt>
      <trkpt lat="47.54861" lon="-2.91931">
        <ele>6</ele>
        <time>2013-10-26T08:21:19Z</time>
      </trkpt>
      <trkpt lat="47.54858" lon="-2.91937">
        <ele>6</ele>
        <time>2013-10-26T08:21:26Z</time>
      </trkpt>
      <trkpt lat="47.54863" lon="-2.91937">
        <ele>6</ele>
        <time>2013-10-26T08:22:00Z</time>
      </trkpt>
      <trkpt lat="47.54867" lon="-2.91934">
        <ele>6</ele>
        <time>2013-10-26T08:22:22Z</time>
      </trkpt>
      <trkpt lat="47.54866" lon="-2.91941">
        <ele>6</ele>
        <time>2013-10-26T08:22:56Z</time>
      </trkpt>
      <trkpt lat="47.54864" lon="-2.91946">
        <ele>6</ele>
        <time>2013-10-26T08:23:00Z</time>
      </trkpt>
      <trkpt lat="47.54859" lon="-2.91951">
        <ele>6</ele>
        <time>2013-10-26T08:23:06Z</time>
      </trkpt>
      <trkpt lat="47.54855" lon="-2.91956">
        <ele>6</ele>
        <time>2013-10-26T08:23:13Z</time>
      </trkpt>
      <trkpt lat="47.54852" lon="-2.91962">
        <ele>6</ele>
        <time>2013-10-26T08:23:18Z</time>
      </trkpt>
      <trkpt lat="47.54847" lon="-2.91967">
        <ele>6</ele>
        <time>2013-10-26T08:23:21Z</time>
      </trkpt>
      <trkpt lat="47.54842" lon="-2.9197">
        <ele>6</ele>
        <time>2013-10-26T08:23:23Z</time>
      </trkpt>
      <trkpt lat="47.54837" lon="-2.91972">
        <ele>6</ele>
        <time>2013-10-26T08:23:28Z</time>
      </trkpt>
      <trkpt lat="47.54833" lon="-2.91977">
        <ele>5</ele>
        <time>2013-10-26T08:23:33Z</time>
      </trkpt>
      <trkpt lat="47.54828" lon="-2.9198">
        <ele>5</ele>
        <time>2013-10-26T08:23:40Z</time>
      </trkpt>
      <trkpt lat="47.54824" lon="-2.91978">
        <ele>5</ele>
        <time>2013-10-26T08:23:48Z</time>
      </trkpt>
      <trkpt lat="47.54819" lon="-2.91974">
        <ele>5</ele>
        <time>2013-10-26T08:23:54Z</time>
      </trkpt>
      <trkpt lat="47.54814" lon="-2.91974">
        <ele>5</ele>
        <time>2013-10-26T08:23:58Z</time>
      </trkpt>
      <trkpt lat="47.54809" lon="-2.91974">
        <ele>5</ele>
        <time>2013-10-26T08:24:01Z</time>
      </trkpt>
      <trkpt lat="47.54805" lon="-2.91975">
        <ele>5</ele>
        <time>2013-10-26T08:24:05Z</time>
      </trkpt>
      <trkpt lat="47.54799" lon="-2.91977">
        <ele>5</ele>
        <time>2013-10-26T08:24:11Z</time>
      </trkpt>
      <trkpt lat="47.54798" lon="-2.91984">
        <ele>5</ele>
        <time>2013-10-26T08:24:35Z</time>
      </trkpt>
      <trkpt lat="47.548" lon="-2.9199">
        <ele>5</ele>
        <time>2013-10-26T08:24:38Z</time>
      </trkpt>
      <trkpt lat="47.54803" lon="-2.91996">
        <ele>5</ele>
        <time>2013-10-26T08:24:41Z</time>
      </trkpt>
      <trkpt lat="47.54806" lon="-2.92002">
        <time>2013-10-26T08:24:45Z</time>
      </trkpt>
      <trkpt lat="47.54808" lon="-2.92008">
        <time>2013-10-26T08:24:49Z</time>
      </trkpt>
      <trkpt lat="47.54812" lon="-2.92016">
        <time>2013-10-26T08:24:55Z</time>
      </trkpt>
      <trkpt lat="47.54816" lon="-2.92021">
        <time>2013-10-26T08:24:58Z</time>
      </trkpt>
      <trkpt lat="47.54818" lon="-2.92027">
        <time>2013-10-26T08:25:01Z</time>
      </trkpt>
      <trkpt lat="47.54821" lon="-2.92042">
        <time>2013-10-26T08:25:07Z</time>
      </trkpt>
      <trkpt lat="47.54823" lon="-2.92051">
        <time>2013-10-26T08:25:10Z</time>
      </trkpt>
      <trkpt lat="47.54825" lon="-2.92058">
        <time>2013-10-26T08:25:13Z</time>
      </trkpt>
      <trkpt lat="47.54828" lon="-2.92065">
        <time>2013-10-26T08:25:17Z</time>
      </trkpt>
      <trkpt lat="47.54833" lon="-2.92068">
        <time>2013-10-26T08:25:22Z</time>
      </trkpt>
      <trkpt lat="47.54838" lon="-2.92068">
        <time>2013-10-26T08:25:30Z</time>
      </trkpt>
      <trkpt lat="47.54842" lon="-2.92066">
        <time>2013-10-26T08:25:36Z</time>
      </trkpt>
      <trkpt lat="47.54847" lon="-2.92066">
        <time>2013-10-26T08:25:41Z</time>
      </trkpt>
      <trkpt lat="47.54853" lon="-2.92066">
        <time>2013-10-26T08:25:47Z</time>
      </trkpt>
      <trkpt lat="47.54859" lon="-2.92065">
        <time>2013-10-26T08:25:53Z</time>
      </trkpt>
      <trkpt lat="47.54864" lon="-2.92063">
        <time>2013-10-26T08:25:58Z</time>
      </trkpt>
      <trkpt lat="47.54869" lon="-2.9206">
        <time>2013-10-26T08:26:02Z</time>
      </trkpt>
      <trkpt lat="47.54874" lon="-2.92058">
        <time>2013-10-26T08:26:07Z</time>
      </trkpt>
      <trkpt lat="47.5488" lon="-2.92056">
        <time>2013-10-26T08:26:12Z</time>
      </trkpt>
      <trkpt lat="47.54887" lon="-2.92057">
        <time>2013-10-26T08:26:19Z</time>
      </trkpt>
      <trkpt lat="47.54891" lon="-2.92061">
        <time>2013-10-26T08:26:24Z</time>
      </trkpt>
      <trkpt lat="47.54894" lon="-2.92066">
        <time>2013-10-26T08:26:26Z</time>
      </trkpt>
      <trkpt lat="47.54897" lon="-2.92073">
        <time>2013-10-26T08:26:30Z</time>
      </trkpt>
      <trkpt lat="47.54897" lon="-2.9208">
        <time>2013-10-26T08:26:34Z</time>
      </trkpt>
      <trkpt lat="47.54899" lon="-2.92086">
        <time>2013-10-26T08:26:48Z</time>
      </trkpt>
      <trkpt lat="47.54902" lon="-2.92093">
        <time>2013-10-26T08:26:54Z</time>
      </trkpt>
      <trkpt lat="47.54905" lon="-2.92098">
        <time>2013-10-26T08:26:58Z</time>
      </trkpt>
      <trkpt lat="47.54908" lon="-2.92103">
        <time>2013-10-26T08:27:06Z</time>
      </trkpt>
      <trkpt lat="47.54914" lon="-2.92101">
        <time>2013-10-26T08:27:15Z</time>
      </trkpt>
      <trkpt lat="47.54918" lon="-2.92096">
        <time>2013-10-26T08:27:20Z</time>
      </trkpt>
      <trkpt lat="47.54923" lon="-2.92094">
        <time>2013-10-26T08:27:26Z</time>
      </trkpt>
      <trkpt lat="47.54927" lon="-2.92094">
        <time>2013-10-26T08:27:33Z</time>
      </trkpt>
      <trkpt lat="47.54931" lon="-2.9209">
        <time>2013-10-26T08:27:42Z</time>
      </trkpt>
      <trkpt lat="47.54935" lon="-2.92087">
        <time>2013-10-26T08:27:51Z</time>
      </trkpt>
      <trkpt lat="47.5494" lon="-2.92085">
        <time>2013-10-26T08:28:00Z</time>
      </trkpt>
      <trkpt lat="47.54942" lon="-2.92091">
        <time>2013-10-26T08:28:06Z</time>
      </trkpt>
      <trkpt lat="47.54944" lon="-2.92098">
        <time>2013-10-26T08:28:10Z</time>
      </trkpt>
      <trkpt lat="47.54945" lon="-2.92105">
        <time>2013-10-26T08:28:12Z</time>
      </trkpt>
      <trkpt lat="47.54947" lon="-2.92113">
        <time>2013-10-26T08:28:16Z</time>
      </trkpt>
      <trkpt lat="47.54949" lon="-2.92121">
        <time>2013-10-26T08:28:20Z</time>
      </trkpt>
      <trkpt lat="47.5495" lon="-2.92129">
        <time>2013-10-26T08:28:23Z</time>
      </trkpt>
      <trkpt lat="47.54952" lon="-2.92141">
        <time>2013-10-26T08:28:26Z</time>
      </trkpt>
      <trkpt lat="47.54954" lon="-2.9215">
        <time>2013-10-26T08:28:29Z</time>
      </trkpt>
      <trkpt lat="47.54955" lon="-2.92159">
        <time>2013-10-26T08:28:32Z</time>
      </trkpt>
      <trkpt lat="47.54955" lon="-2.92168">
        <time>2013-10-26T08:28:35Z</time>
      </trkpt>
      <trkpt lat="47.54955" lon="-2.92176">
        <time>2013-10-26T08:28:38Z</time>
      </trkpt>
      <trkpt lat="47.54955" lon="-2.92184">
        <time>2013-10-26T08:28:42Z</time>
      </trkpt>
      <trkpt lat="47.54955" lon="-2.92193">
        <time>2013-10-26T08:28:45Z</time>
      </trkpt>
      <trkpt lat="47.54955" lon="-2.92201">
        <time>2013-10-26T08:28:48Z</time>
      </trkpt>
      <trkpt lat="47.54955" lon="-2.92209">
        <time>2013-10-26T08:28:51Z</time>
      </trkpt>
      <trkpt lat="47.54955" lon="-2.92217">
        <time>2013-10-26T08:28:55Z</time>
      </trkpt>
      <trkpt lat="47.54956" lon="-2.92228">
        <time>2013-10-26T08:28:58Z</time>
      </trkpt>
      <trkpt lat="47.54956" lon="-2.92237">
        <time>2013-10-26T08:29:01Z</time>
      </trkpt>
      <trkpt lat="47.54957" lon="-2.92244">
        <time>2013-10-26T08:29:05Z</time>
      </trkpt>
      <trkpt lat="47.54958" lon="-2.92251">
        <time>2013-10-26T08:29:09Z</time>
      </trkpt>
      <trkpt lat="47.54961" lon="-2.92258">
        <time>2013-10-26T08:29:15Z</time>
      </trkpt>
      <trkpt lat="47.54963" lon="-2.92264">
        <time>2013-10-26T08:29:19Z</time>
      </trkpt>
      <trkpt lat="47.54966" lon="-2.92269">
        <time>2013-10-26T08:29:24Z</time>
      </trkpt>
      <trkpt lat="47.54968" lon="-2.92276">
        <time>2013-10-26T08:29:29Z</time>
      </trkpt>
      <trkpt lat="47.5497" lon="-2.92283">
        <time>2013-10-26T08:29:33Z</time>
      </trkpt>
      <trkpt lat="47.54972" lon="-2.92291">
        <time>2013-10-26T08:29:37Z</time>
      </trkpt>
      <trkpt lat="47.54974" lon="-2.92297">
        <time>2013-10-26T08:29:41Z</time>
      </trkpt>
      <trkpt lat="47.54975" lon="-2.92304">
        <time>2013-10-26T08:29:46Z</time>
      </trkpt>
      <trkpt lat="47.54978" lon="-2.92313">
        <time>2013-10-26T08:29:51Z</time>
      </trkpt>
      <trkpt lat="47.5498" lon="-2.9232">
        <time>2013-10-26T08:29:56Z</time>
      </trkpt>
      <trkpt lat="47.54982" lon="-2.92327">
        <time>2013-10-26T08:30:01Z</time>
      </trkpt>
      <trkpt lat="47.54984" lon="-2.92335">
        <time>2013-10-26T08:30:05Z</time>
      </trkpt>
      <trkpt lat="47.54986" lon="-2.92343">
        <time>2013-10-26T08:30:09Z</time>
      </trkpt>
      <trkpt lat="47.54988" lon="-2.92349">
        <time>2013-10-26T08:30:12Z</time>
      </trkpt>
      <trkpt lat="47.54988" lon="-2.9236">
        <time>2013-10-26T08:30:19Z</time>
      </trkpt>
      <trkpt lat="47.54988" lon="-2.92368">
        <time>2013-10-26T08:30:22Z</time>
      </trkpt>
      <trkpt lat="47.54989" lon="-2.92377">
        <time>2013-10-26T08:30:24Z</time>
      </trkpt>
      <trkpt lat="47.5499" lon="-2.92386">
        <time>2013-10-26T08:30:28Z</time>
      </trkpt>
      <trkpt lat="47.5499" lon="-2.92393">
        <time>2013-10-26T08:30:31Z</time>
      </trkpt>
      <trkpt lat="47.54992" lon="-2.92403">
        <time>2013-10-26T08:30:37Z</time>
      </trkpt>
      <trkpt lat="47.54994" lon="-2.9241">
        <time>2013-10-26T08:30:41Z</time>
      </trkpt>
      <trkpt lat="47.54995" lon="-2.9242">
        <time>2013-10-26T08:30:46Z</time>
      </trkpt>
      <trkpt lat="47.54995" lon="-2.92428">
        <time>2013-10-26T08:30:50Z</time>
      </trkpt>
      <trkpt lat="47.54997" lon="-2.92435">
        <time>2013-10-26T08:30:52Z</time>
      </trkpt>
      <trkpt lat="47.54999" lon="-2.92443">
        <time>2013-10-26T08:30:56Z</time>
      </trkpt>
      <trkpt lat="47.55002" lon="-2.9245">
        <time>2013-10-26T08:31:01Z</time>
      </trkpt>
      <trkpt lat="47.55005" lon="-2.92457">
        <time>2013-10-26T08:31:03Z</time>
      </trkpt>
      <trkpt lat="47.55006" lon="-2.92463">
        <time>2013-10-26T08:31:06Z</time>
      </trkpt>
      <trkpt lat="47.55008" lon="-2.92472">
        <time>2013-10-26T08:31:10Z</time>
      </trkpt>
      <trkpt lat="47.55009" lon="-2.9248">
        <time>2013-10-26T08:31:14Z</time>
      </trkpt>
      <trkpt lat="47.5501" lon="-2.92486">
        <time>2013-10-26T08:31:16Z</time>
      </trkpt>
      <trkpt lat="47.5501" lon="-2.92495">
        <time>2013-10-26T08:31:21Z</time>
      </trkpt>
      <trkpt lat="47.55011" lon="-2.92503">
        <time>2013-10-26T08:31:24Z</time>
      </trkpt>
      <trkpt lat="47.55012" lon="-2.92511">
        <time>2013-10-26T08:31:28Z</time>
      </trkpt>
      <trkpt lat="47.55014" lon="-2.9252">
        <time>2013-10-26T08:31:34Z</time>
      </trkpt>
      <trkpt lat="47.55016" lon="-2.92526">
        <time>2013-10-26T08:31:40Z</time>
      </trkpt>
      <trkpt lat="47.55016" lon="-2.92533">
        <time>2013-10-26T08:31:48Z</time>
      </trkpt>
      <trkpt lat="47.55017" lon="-2.9254">
        <time>2013-10-26T08:31:53Z</time>
      </trkpt>
      <trkpt lat="47.55017" lon="-2.9255">
        <time>2013-10-26T08:31:57Z</time>
      </trkpt>
      <trkpt lat="47.55017" lon="-2.92558">
        <time>2013-10-26T08:32:02Z</time>
      </trkpt>
      <trkpt lat="47.55019" lon="-2.92566">
        <time>2013-10-26T08:32:04Z</time>
      </trkpt>
      <trkpt lat="47.55021" lon="-2.92573">
        <time>2013-10-26T08:32:07Z</time>
      </trkpt>
      <trkpt lat="47.55022" lon="-2.9258">
        <time>2013-10-26T08:32:10Z</time>
      </trkpt>
      <trkpt lat="47.55023" lon="-2.92587">
        <time>2013-10-26T08:32:14Z</time>
      </trkpt>
      <trkpt lat="47.55024" lon="-2.92594">
        <time>2013-10-26T08:32:16Z</time>
      </trkpt>
      <trkpt lat="47.55023" lon="-2.92601">
        <time>2013-10-26T08:32:19Z</time>
      </trkpt>
      <trkpt lat="47.55025" lon="-2.92612">
        <time>2013-10-26T08:32:24Z</time>
      </trkpt>
      <trkpt lat="47.55025" lon="-2.92619">
        <time>2013-10-26T08:32:27Z</time>
      </trkpt>
      <trkpt lat="47.55025" lon="-2.92626">
        <time>2013-10-26T08:32:30Z</time>
      </trkpt>
      <trkpt lat="47.55026" lon="-2.92633">
        <time>2013-10-26T08:32:33Z</time>
      </trkpt>
      <trkpt lat="47.55027" lon="-2.92641">
        <time>2013-10-26T08:32:36Z</time>
      </trkpt>
      <trkpt lat="47.55027" lon="-2.92648">
        <time>2013-10-26T08:32:40Z</time>
      </trkpt>
      <trkpt lat="47.55026" lon="-2.92655">
        <time>2013-10-26T08:32:42Z</time>
      </trkpt>
      <trkpt lat="47.55027" lon="-2.92663">
        <time>2013-10-26T08:32:47Z</time>
      </trkpt>
      <trkpt lat="47.55028" lon="-2.9267">
        <time>2013-10-26T08:32:51Z</time>
      </trkpt>
      <trkpt lat="47.55029" lon="-2.92677">
        <time>2013-10-26T08:32:56Z</time>
      </trkpt>
      <trkpt lat="47.5503" lon="-2.92684">
        <time>2013-10-26T08:33:01Z</time>
      </trkpt>
      <trkpt lat="47.5503" lon="-2.92692">
        <time>2013-10-26T08:33:06Z</time>
      </trkpt>
      <trkpt lat="47.55029" lon="-2.92699">
        <time>2013-10-26T08:33:11Z</time>
      </trkpt>
      <trkpt lat="47.55029" lon="-2.92707">
        <time>2013-10-26T08:33:16Z</time>
      </trkpt>
      <trkpt lat="47.5503" lon="-2.92714">
        <time>2013-10-26T08:33:21Z</time>
      </trkpt>
      <trkpt lat="47.55031" lon="-2.92721">
        <time>2013-10-26T08:33:27Z</time>
      </trkpt>
      <trkpt lat="47.55033" lon="-2.92727">
        <time>2013-10-26T08:33:32Z</time>
      </trkpt>
      <trkpt lat="47.55035" lon="-2.92735">
        <time>2013-10-26T08:33:37Z</time>
      </trkpt>
      <trkpt lat="47.55038" lon="-2.92741">
        <time>2013-10-26T08:33:43Z</time>
      </trkpt>
      <trkpt lat="47.55042" lon="-2.92747">
        <time>2013-10-26T08:33:59Z</time>
      </trkpt>
      <trkpt lat="47.55045" lon="-2.92752">
        <time>2013-10-26T08:34:02Z</time>
      </trkpt>
      <trkpt lat="47.55049" lon="-2.92757">
        <time>2013-10-26T08:34:05Z</time>
      </trkpt>
      <trkpt lat="47.55053" lon="-2.92762">
        <time>2013-10-26T08:34:08Z</time>
      </trkpt>
      <trkpt lat="47.55055" lon="-2.92768">
        <time>2013-10-26T08:34:12Z</time>
      </trkpt>
      <trkpt lat="47.55058" lon="-2.92775">
        <time>2013-10-26T08:34:16Z</time>
      </trkpt>
      <trkpt lat="47.55061" lon="-2.9278">
        <time>2013-10-26T08:34:20Z</time>
      </trkpt>
      <trkpt lat="47.55065" lon="-2.92786">
        <time>2013-10-26T08:34:24Z</time>
      </trkpt>
      <trkpt lat="47.55068" lon="-2.92793">
        <time>2013-10-26T08:34:27Z</time>
      </trkpt>
      <trkpt lat="47.55072" lon="-2.92797">
        <time>2013-10-26T08:34:31Z</time>
      </trkpt>
      <trkpt lat="47.55077" lon="-2.92802">
        <time>2013-10-26T08:34:36Z</time>
      </trkpt>
      <trkpt lat="47.5508" lon="-2.92809">
        <time>2013-10-26T08:34:40Z</time>
      </trkpt>
      <trkpt lat="47.55083" lon="-2.92815">
        <time>2013-10-26T08:34:44Z</time>
      </trkpt>
      <trkpt lat="47.55089" lon="-2.92818">
        <time>2013-10-26T08:34:52Z</time>
      </trkpt>
      <trkpt lat="47.55094" lon="-2.92816">
        <time>2013-10-26T08:34:57Z</time>
      </trkpt>
      <trkpt lat="47.55099" lon="-2.92813">
        <time>2013-10-26T08:35:02Z</time>
      </trkpt>
      <trkpt lat="47.55103" lon="-2.92812">
        <time>2013-10-26T08:35:08Z</time>
      </trkpt>
      <trkpt lat="47.55109" lon="-2.92811">
        <time>2013-10-26T08:35:15Z</time>
      </trkpt>
      <trkpt lat="47.55114" lon="-2.92813">
        <time>2013-10-26T08:35:20Z</time>
      </trkpt>
      <trkpt lat="47.55119" lon="-2.92813">
        <time>2013-10-26T08:35:26Z</time>
      </trkpt>
      <trkpt lat="47.55124" lon="-2.92813">
        <time>2013-10-26T08:35:30Z</time>
      </trkpt>
      <trkpt lat="47.55129" lon="-2.92814">
        <time>2013-10-26T08:35:35Z</time>
      </trkpt>
      <trkpt lat="47.55135" lon="-2.92816">
        <time>2013-10-26T08:35:40Z</time>
      </trkpt>
      <trkpt lat="47.5514" lon="-2.92817">
        <time>2013-10-26T08:35:45Z</time>
      </trkpt>
      <trkpt lat="47.55145" lon="-2.92819">
        <time>2013-10-26T08:35:51Z</time>
      </trkpt>
      <trkpt lat="47.5515" lon="-2.9282">
        <time>2013-10-26T08:35:55Z</time>
      </trkpt>
      <trkpt lat="47.55156" lon="-2.9282">
        <time>2013-10-26T08:36:00Z</time>
      </trkpt>
      <trkpt lat="47.5516" lon="-2.92817">
        <time>2013-10-26T08:36:06Z</time>
      </trkpt>
      <trkpt lat="47.55164" lon="-2.92814">
        <time>2013-10-26T08:36:11Z</time>
      </trkpt>
      <trkpt lat="47.5517" lon="-2.9281">
        <time>2013-10-26T08:36:14Z</time>
      </trkpt>
      <trkpt lat="47.55177" lon="-2.92806">
        <time>2013-10-26T08:36:17Z</time>
      </trkpt>
      <trkpt lat="47.55182" lon="-2.92804">
        <time>2013-10-26T08:36:20Z</time>
      </trkpt>
      <trkpt lat="47.55187" lon="-2.92801">
        <time>2013-10-26T08:36:21Z</time>
      </trkpt>
      <trkpt lat="47.55192" lon="-2.92799">
        <time>2013-10-26T08:36:23Z</time>
      </trkpt>
      <trkpt lat="47.55197" lon="-2.92798">
        <time>2013-10-26T08:36:25Z</time>
      </trkpt>
      <trkpt lat="47.55203" lon="-2.92795">
        <time>2013-10-26T08:36:28Z</time>
      </trkpt>
      <trkpt lat="47.55209" lon="-2.92793">
        <time>2013-10-26T08:36:30Z</time>
      </trkpt>
      <trkpt lat="47.55214" lon="-2.92792">
        <time>2013-10-26T08:36:33Z</time>
      </trkpt>
      <trkpt lat="47.55221" lon="-2.92791">
        <time>2013-10-26T08:36:37Z</time>
      </trkpt>
      <trkpt lat="47.55225" lon="-2.92786">
        <time>2013-10-26T08:36:42Z</time>
      </trkpt>
      <trkpt lat="47.55229" lon="-2.92782">
        <time>2013-10-26T08:36:43Z</time>
      </trkpt>
      <trkpt lat="47.55234" lon="-2.92778">
        <time>2013-10-26T08:36:45Z</time>
      </trkpt>
      <trkpt lat="47.55239" lon="-2.92775">
        <time>2013-10-26T08:36:48Z</time>
      </trkpt>
      <trkpt lat="47.55243" lon="-2.92772">
        <time>2013-10-26T08:36:50Z</time>
      </trkpt>
      <trkpt lat="47.55247" lon="-2.92769">
        <time>2013-10-26T08:36:52Z</time>
      </trkpt>
      <trkpt lat="47.55252" lon="-2.92767">
        <time>2013-10-26T08:36:53Z</time>
      </trkpt>
      <trkpt lat="47.55257" lon="-2.92766">
        <time>2013-10-26T08:36:55Z</time>
      </trkpt>
      <trkpt lat="47.55262" lon="-2.92765">
        <time>2013-10-26T08:36:59Z</time>
      </trkpt>
      <trkpt lat="47.55268" lon="-2.92764">
        <time>2013-10-26T08:37:02Z</time>
      </trkpt>
      <trkpt lat="47.55274" lon="-2.92762">
        <time>2013-10-26T08:37:05Z</time>
      </trkpt>
      <trkpt lat="47.55278" lon="-2.9276">
        <time>2013-10-26T08:37:08Z</time>
      </trkpt>
      <trkpt lat="47.55284" lon="-2.92758">
        <time>2013-10-26T08:37:09Z</time>
      </trkpt>
      <trkpt lat="47.55289" lon="-2.92756">
        <time>2013-10-26T08:37:11Z</time>
      </trkpt>
      <trkpt lat="47.55294" lon="-2.92754">
        <time>2013-10-26T08:37:13Z</time>
      </trkpt>
      <trkpt lat="47.553" lon="-2.92752">
        <time>2013-10-26T08:37:16Z</time>
      </trkpt>
      <trkpt lat="47.55307" lon="-2.9275">
        <time>2013-10-26T08:37:19Z</time>
      </trkpt>
      <trkpt lat="47.55314" lon="-2.92748">
        <time>2013-10-26T08:37:23Z</time>
      </trkpt>
      <trkpt lat="47.55319" lon="-2.92748">
        <time>2013-10-26T08:37:24Z</time>
      </trkpt>
      <trkpt lat="47.55325" lon="-2.92749">
        <time>2013-10-26T08:37:28Z</time>
      </trkpt>
      <trkpt lat="47.55332" lon="-2.92752">
        <time>2013-10-26T08:37:30Z</time>
      </trkpt>
      <trkpt lat="47.55337" lon="-2.92755">
        <time>2013-10-26T08:37:33Z</time>
      </trkpt>
      <trkpt lat="47.55341" lon="-2.92756">
        <time>2013-10-26T08:37:36Z</time>
      </trkpt>
      <trkpt lat="47.55347" lon="-2.92755">
        <time>2013-10-26T08:37:39Z</time>
      </trkpt>
      <trkpt lat="47.55352" lon="-2.92753">
        <time>2013-10-26T08:37:42Z</time>
      </trkpt>
      <trkpt lat="47.55357" lon="-2.92752">
        <time>2013-10-26T08:37:43Z</time>
      </trkpt>
      <trkpt lat="47.55362" lon="-2.9275">
        <time>2013-10-26T08:37:45Z</time>
      </trkpt>
      <trkpt lat="47.55367" lon="-2.92745">
        <time>2013-10-26T08:37:48Z</time>
      </trkpt>
      <trkpt lat="47.55372" lon="-2.92743">
        <time>2013-10-26T08:37:51Z</time>
      </trkpt>
      <trkpt lat="47.55378" lon="-2.92743">
        <time>2013-10-26T08:37:54Z</time>
      </trkpt>
      <trkpt lat="47.55387" lon="-2.92745">
        <time>2013-10-26T08:37:59Z</time>
      </trkpt>
      <trkpt lat="47.55392" lon="-2.92747">
        <time>2013-10-26T08:38:01Z</time>
      </trkpt>
      <trkpt lat="47.55397" lon="-2.92749">
        <time>2013-10-26T08:38:05Z</time>
      </trkpt>
      <trkpt lat="47.55402" lon="-2.92751">
        <time>2013-10-26T08:38:08Z</time>
      </trkpt>
      <trkpt lat="47.55407" lon="-2.92752">
        <time>2013-10-26T08:38:12Z</time>
      </trkpt>
      <trkpt lat="47.55413" lon="-2.92753">
        <time>2013-10-26T08:38:14Z</time>
      </trkpt>
      <trkpt lat="47.55419" lon="-2.92754">
        <ele>3</ele>
        <time>2013-10-26T08:38:18Z</time>
      </trkpt>
      <trkpt lat="47.55424" lon="-2.92754">
        <ele>3</ele>
        <time>2013-10-26T08:38:20Z</time>
      </trkpt>
      <trkpt lat="47.55432" lon="-2.92756">
        <ele>3</ele>
        <time>2013-10-26T08:38:24Z</time>
      </trkpt>
      <trkpt lat="47.55437" lon="-2.92759">
        <ele>3</ele>
        <time>2013-10-26T08:38:27Z</time>
      </trkpt>
      <trkpt lat="47.55441" lon="-2.92763">
        <ele>3</ele>
        <time>2013-10-26T08:38:30Z</time>
      </trkpt>
      <trkpt lat="47.55446" lon="-2.92767">
        <ele>3</ele>
        <time>2013-10-26T08:38:35Z</time>
      </trkpt>
      <trkpt lat="47.5545" lon="-2.92771">
        <ele>3</ele>
        <time>2013-10-26T08:38:40Z</time>
      </trkpt>
      <trkpt lat="47.55455" lon="-2.92773">
        <ele>3</ele>
        <time>2013-10-26T08:38:46Z</time>
      </trkpt>
      <trkpt lat="47.5546" lon="-2.92777">
        <ele>3</ele>
        <time>2013-10-26T08:38:49Z</time>
      </trkpt>
      <trkpt lat="47.55464" lon="-2.92782">
        <ele>3</ele>
        <time>2013-10-26T08:38:53Z</time>
      </trkpt>
      <trkpt lat="47.5547" lon="-2.92788">
        <ele>3</ele>
        <time>2013-10-26T08:38:58Z</time>
      </trkpt>
      <trkpt lat="47.55473" lon="-2.92792">
        <ele>3</ele>
        <time>2013-10-26T08:39:01Z</time>
      </trkpt>
      <trkpt lat="47.55476" lon="-2.92797">
        <ele>3</ele>
        <time>2013-10-26T08:39:05Z</time>
      </trkpt>
      <trkpt lat="47.5548" lon="-2.92802">
        <ele>3</ele>
        <time>2013-10-26T08:39:12Z</time>
      </trkpt>
      <trkpt lat="47.55484" lon="-2.92807">
        <ele>3</ele>
        <time>2013-10-26T08:39:19Z</time>
      </trkpt>
      <trkpt lat="47.55487" lon="-2.92811">
        <ele>3</ele>
        <time>2013-10-26T08:39:24Z</time>
      </trkpt>
      <trkpt lat="47.55491" lon="-2.92816">
        <ele>3</ele>
        <time>2013-10-26T08:39:29Z</time>
      </trkpt>
      <trkpt lat="47.55495" lon="-2.92814">
        <ele>3</ele>
        <time>2013-10-26T08:40:01Z</time>
      </trkpt>
      <trkpt lat="47.555" lon="-2.92815">
        <ele>4</ele>
        <time>2013-10-26T08:40:40Z</time>
      </trkpt>
      <trkpt lat="47.55499" lon="-2.92823">
        <ele>3</ele>
        <time>2013-10-26T08:41:12Z</time>
      </trkpt>
      <trkpt lat="47.55495" lon="-2.92818">
        <ele>3</ele>
        <time>2013-10-26T08:41:39Z</time>
      </trkpt>
      <trkpt lat="47.5549" lon="-2.92818">
        <ele>3</ele>
        <time>2013-10-26T08:41:48Z</time>
      </trkpt>
      <trkpt lat="47.55486" lon="-2.92822">
        <ele>3</ele>
        <time>2013-10-26T08:41:53Z</time>
      </trkpt>
      <trkpt lat="47.55483" lon="-2.9283">
        <ele>3</ele>
        <time>2013-10-26T08:42:00Z</time>
      </trkpt>
      <trkpt lat="47.55481" lon="-2.92836">
        <ele>4</ele>
        <time>2013-10-26T08:42:05Z</time>
      </trkpt>
      <trkpt lat="47.55478" lon="-2.92843">
        <ele>4</ele>
        <time>2013-10-26T08:42:11Z</time>
      </trkpt>
      <trkpt lat="47.55477" lon="-2.9285">
        <ele>4</ele>
        <time>2013-10-26T08:42:18Z</time>
      </trkpt>
      <trkpt lat="47.55475" lon="-2.92857">
        <ele>5</ele>
        <time>2013-10-26T08:42:31Z</time>
      </trkpt>
      <trkpt lat="47.55475" lon="-2.92864">
        <ele>5</ele>
        <time>2013-10-26T08:42:39Z</time>
      </trkpt>
      <trkpt lat="47.55476" lon="-2.92871">
        <ele>5</ele>
        <time>2013-10-26T08:42:46Z</time>
      </trkpt>
      <trkpt lat="47.55473" lon="-2.92876">
        <ele>6</ele>
        <time>2013-10-26T08:43:57Z</time>
      </trkpt>
      <trkpt lat="47.55474" lon="-2.92882">
        <ele>6</ele>
        <time>2013-10-26T08:51:43Z</time>
      </trkpt>
      <trkpt lat="47.55473" lon="-2.92875">
        <ele>6</ele>
        <time>2013-10-26T09:00:06Z</time>
      </trkpt>
      <trkpt lat="47.55471" lon="-2.92869">
        <ele>5</ele>
        <time>2013-10-26T09:00:39Z</time>
      </trkpt>
      <trkpt lat="47.55474" lon="-2.92865">
        <ele>5</ele>
        <time>2013-10-26T09:02:08Z</time>
      </trkpt>
      <trkpt lat="47.55477" lon="-2.92859">
        <ele>5</ele>
        <time>2013-10-26T09:02:12Z</time>
      </trkpt>
      <trkpt lat="47.55479" lon="-2.92852">
        <ele>4</ele>
        <time>2013-10-26T09:02:17Z</time>
      </trkpt>
      <trkpt lat="47.5548" lon="-2.92845">
        <ele>4</ele>
        <time>2013-10-26T09:02:22Z</time>
      </trkpt>
      <trkpt lat="47.55481" lon="-2.92838">
        <ele>4</ele>
        <time>2013-10-26T09:02:28Z</time>
      </trkpt>
      <trkpt lat="47.55482" lon="-2.92831">
        <ele>3</ele>
        <time>2013-10-26T09:02:37Z</time>
      </trkpt>
      <trkpt lat="47.55482" lon="-2.92824">
        <ele>3</ele>
        <time>2013-10-26T09:02:46Z</time>
      </trkpt>
      <trkpt lat="47.55483" lon="-2.92817">
        <ele>3</ele>
        <time>2013-10-26T09:02:56Z</time>
      </trkpt>
      <trkpt lat="47.55484" lon="-2.92809">
        <ele>3</ele>
        <time>2013-10-26T09:03:02Z</time>
      </trkpt>
      <trkpt lat="47.55487" lon="-2.92802">
        <ele>3</ele>
        <time>2013-10-26T09:03:14Z</time>
      </trkpt>
      <trkpt lat="47.55488" lon="-2.92795">
        <ele>3</ele>
        <time>2013-10-26T09:03:18Z</time>
      </trkpt>
      <trkpt lat="47.55491" lon="-2.92788">
        <ele>3</ele>
        <time>2013-10-26T09:03:22Z</time>
      </trkpt>
      <trkpt lat="47.55493" lon="-2.92782">
        <ele>3</ele>
        <time>2013-10-26T09:03:29Z</time>
      </trkpt>
      <trkpt lat="47.55495" lon="-2.92775">
        <ele>3</ele>
        <time>2013-10-26T09:03:36Z</time>
      </trkpt>
      <trkpt lat="47.55496" lon="-2.92769">
        <ele>3</ele>
        <time>2013-10-26T09:03:41Z</time>
      </trkpt>
      <trkpt lat="47.55499" lon="-2.92761">
        <ele>3</ele>
        <time>2013-10-26T09:03:44Z</time>
      </trkpt>
      <trkpt lat="47.55502" lon="-2.92754">
        <ele>4</ele>
        <time>2013-10-26T09:03:49Z</time>
      </trkpt>
      <trkpt lat="47.55505" lon="-2.92749">
        <time>2013-10-26T09:03:53Z</time>
      </trkpt>
      <trkpt lat="47.55508" lon="-2.92743">
        <time>2013-10-26T09:03:59Z</time>
      </trkpt>
      <trkpt lat="47.5551" lon="-2.92736">
        <time>2013-10-26T09:04:04Z</time>
      </trkpt>
      <trkpt lat="47.55512" lon="-2.92728">
        <time>2013-10-26T09:04:07Z</time>
      </trkpt>
      <trkpt lat="47.55514" lon="-2.92722">
        <time>2013-10-26T09:04:12Z</time>
      </trkpt>
      <trkpt lat="47.55516" lon="-2.92716">
        <time>2013-10-26T09:04:30Z</time>
      </trkpt>
      <trkpt lat="47.55518" lon="-2.9271">
        <time>2013-10-26T09:04:42Z</time>
      </trkpt>
      <trkpt lat="47.55521" lon="-2.92704">
        <time>2013-10-26T09:04:49Z</time>
      </trkpt>
      <trkpt lat="47.55525" lon="-2.92699">
        <time>2013-10-26T09:04:54Z</time>
      </trkpt>
      <trkpt lat="47.55527" lon="-2.92693">
        <time>2013-10-26T09:05:06Z</time>
      </trkpt>
      <trkpt lat="47.55529" lon="-2.92686">
        <time>2013-10-26T09:05:12Z</time>
      </trkpt>
      <trkpt lat="47.5553" lon="-2.92679">
        <time>2013-10-26T09:05:17Z</time>
      </trkpt>
      <trkpt lat="47.5553" lon="-2.92672">
        <time>2013-10-26T09:05:33Z</time>
      </trkpt>
      <trkpt lat="47.55529" lon="-2.92666">
        <time>2013-10-26T09:05:55Z</time>
      </trkpt>
      <trkpt lat="47.55528" lon="-2.92659">
        <time>2013-10-26T09:06:09Z</time>
      </trkpt>
      <trkpt lat="47.55526" lon="-2.92652">
        <time>2013-10-26T09:06:21Z</time>
      </trkpt>
      <trkpt lat="47.55526" lon="-2.92645">
        <time>2013-10-26T09:06:34Z</time>
      </trkpt>
      <trkpt lat="47.55527" lon="-2.92638">
        <time>2013-10-26T09:06:44Z</time>
      </trkpt>
      <trkpt lat="47.55528" lon="-2.92631">
        <time>2013-10-26T09:06:55Z</time>
      </trkpt>
      <trkpt lat="47.5553" lon="-2.92624">
        <time>2013-10-26T09:07:02Z</time>
      </trkpt>
      <trkpt lat="47.55531" lon="-2.92617">
        <time>2013-10-26T09:07:11Z</time>
      </trkpt>
      <trkpt lat="47.55533" lon="-2.9261">
        <time>2013-10-26T09:07:20Z</time>
      </trkpt>
      <trkpt lat="47.55535" lon="-2.92603">
        <time>2013-10-26T09:07:26Z</time>
      </trkpt>
      <trkpt lat="47.55537" lon="-2.92597">
        <time>2013-10-26T09:07:46Z</time>
      </trkpt>
      <trkpt lat="47.55542" lon="-2.92595">
        <time>2013-10-26T09:07:51Z</time>
      </trkpt>
      <trkpt lat="47.55547" lon="-2.92592">
        <time>2013-10-26T09:07:54Z</time>
      </trkpt>
      <trkpt lat="47.55554" lon="-2.92589">
        <time>2013-10-26T09:07:58Z</time>
      </trkpt>
      <trkpt lat="47.5556" lon="-2.92587">
        <time>2013-10-26T09:07:59Z</time>
      </trkpt>
      <trkpt lat="47.55566" lon="-2.92586">
        <time>2013-10-26T09:08:02Z</time>
      </trkpt>
      <trkpt lat="47.55572" lon="-2.92585">
        <time>2013-10-26T09:08:04Z</time>
      </trkpt>
      <trkpt lat="47.55577" lon="-2.92582">
        <time>2013-10-26T09:08:06Z</time>
      </trkpt>
      <trkpt lat="47.55583" lon="-2.92578">
        <time>2013-10-26T09:08:09Z</time>
      </trkpt>
      <trkpt lat="47.55589" lon="-2.92573">
        <time>2013-10-26T09:08:12Z</time>
      </trkpt>
      <trkpt lat="47.55595" lon="-2.92569">
        <time>2013-10-26T09:08:15Z</time>
      </trkpt>
      <trkpt lat="47.55599" lon="-2.92566">
        <time>2013-10-26T09:08:19Z</time>
      </trkpt>
      <trkpt lat="47.55604" lon="-2.92564">
        <time>2013-10-26T09:08:22Z</time>
      </trkpt>
      <trkpt lat="47.55609" lon="-2.92563">
        <time>2013-10-26T09:08:26Z</time>
      </trkpt>
      <trkpt lat="47.55614" lon="-2.92562">
        <time>2013-10-26T09:08:31Z</time>
      </trkpt>
      <trkpt lat="47.55619" lon="-2.92561">
        <time>2013-10-26T09:08:37Z</time>
      </trkpt>
      <trkpt lat="47.55625" lon="-2.9256">
        <time>2013-10-26T09:08:41Z</time>
      </trkpt>
      <trkpt lat="47.55629" lon="-2.9256">
        <time>2013-10-26T09:08:44Z</time>
      </trkpt>
      <trkpt lat="47.55634" lon="-2.92558">
        <time>2013-10-26T09:08:48Z</time>
      </trkpt>
      <trkpt lat="47.55639" lon="-2.92557">
        <time>2013-10-26T09:08:51Z</time>
      </trkpt>
      <trkpt lat="47.55645" lon="-2.92556">
        <time>2013-10-26T09:08:53Z</time>
      </trkpt>
      <trkpt lat="47.55651" lon="-2.92554">
        <time>2013-10-26T09:08:56Z</time>
      </trkpt>
      <trkpt lat="47.55658" lon="-2.92552">
        <time>2013-10-26T09:08:59Z</time>
      </trkpt>
      <trkpt lat="47.55664" lon="-2.9255">
        <time>2013-10-26T09:09:03Z</time>
      </trkpt>
      <trkpt lat="47.55669" lon="-2.92546">
        <time>2013-10-26T09:09:06Z</time>
      </trkpt>
      <trkpt lat="47.55673" lon="-2.92543">
        <time>2013-10-26T09:09:09Z</time>
      </trkpt>
      <trkpt lat="47.55679" lon="-2.92541">
        <time>2013-10-26T09:09:13Z</time>
      </trkpt>
      <trkpt lat="47.55683" lon="-2.92539">
        <time>2013-10-26T09:09:16Z</time>
      </trkpt>
      <trkpt lat="47.55688" lon="-2.92536">
        <time>2013-10-26T09:09:19Z</time>
      </trkpt>
      <trkpt lat="47.55693" lon="-2.92534">
        <time>2013-10-26T09:09:24Z</time>
      </trkpt>
      <trkpt lat="47.55699" lon="-2.92531">
        <time>2013-10-26T09:09:28Z</time>
      </trkpt>
      <trkpt lat="47.55704" lon="-2.92529">
        <time>2013-10-26T09:09:32Z</time>
      </trkpt>
      <trkpt lat="47.5571" lon="-2.92527">
        <time>2013-10-26T09:09:36Z</time>
      </trkpt>
      <trkpt lat="47.55715" lon="-2.92525">
        <time>2013-10-26T09:09:39Z</time>
      </trkpt>
      <trkpt lat="47.5572" lon="-2.92524">
        <time>2013-10-26T09:09:44Z</time>
      </trkpt>
      <trkpt lat="47.55725" lon="-2.92524">
        <time>2013-10-26T09:09:49Z</time>
      </trkpt>
      <trkpt lat="47.5573" lon="-2.92523">
        <time>2013-10-26T09:09:59Z</time>
      </trkpt>
      <trkpt lat="47.55735" lon="-2.9252">
        <time>2013-10-26T09:10:05Z</time>
      </trkpt>
      <trkpt lat="47.55739" lon="-2.92515">
        <time>2013-10-26T09:10:10Z</time>
      </trkpt>
      <trkpt lat="47.55744" lon="-2.9251">
        <time>2013-10-26T09:10:14Z</time>
      </trkpt>
      <trkpt lat="47.55748" lon="-2.92505">
        <time>2013-10-26T09:10:17Z</time>
      </trkpt>
      <trkpt lat="47.55753" lon="-2.92499">
        <time>2013-10-26T09:10:19Z</time>
      </trkpt>
      <trkpt lat="47.55757" lon="-2.92496">
        <time>2013-10-26T09:10:22Z</time>
      </trkpt>
      <trkpt lat="47.55762" lon="-2.92492">
        <time>2013-10-26T09:10:25Z</time>
      </trkpt>
      <trkpt lat="47.55766" lon="-2.92489">
        <time>2013-10-26T09:10:26Z</time>
      </trkpt>
      <trkpt lat="47.55771" lon="-2.92485">
        <time>2013-10-26T09:10:28Z</time>
      </trkpt>
      <trkpt lat="47.55776" lon="-2.92479">
        <time>2013-10-26T09:10:32Z</time>
      </trkpt>
      <trkpt lat="47.55776" lon="-2.92472">
        <time>2013-10-26T09:10:35Z</time>
      </trkpt>
      <trkpt lat="47.55778" lon="-2.92464">
        <time>2013-10-26T09:10:38Z</time>
      </trkpt>
      <trkpt lat="47.5578" lon="-2.92456">
        <time>2013-10-26T09:10:40Z</time>
      </trkpt>
      <trkpt lat="47.55781" lon="-2.92449">
        <time>2013-10-26T09:10:44Z</time>
      </trkpt>
      <trkpt lat="47.55782" lon="-2.92442">
        <time>2013-10-26T09:10:46Z</time>
      </trkpt>
      <trkpt lat="47.55783" lon="-2.92433">
        <time>2013-10-26T09:10:51Z</time>
      </trkpt>
      <trkpt lat="47.55786" lon="-2.92426">
        <time>2013-10-26T09:10:55Z</time>
      </trkpt>
      <trkpt lat="47.55788" lon="-2.92421">
        <time>2013-10-26T09:10:57Z</time>
      </trkpt>
      <trkpt lat="47.55792" lon="-2.92415">
        <time>2013-10-26T09:11:00Z</time>
      </trkpt>
      <trkpt lat="47.55796" lon="-2.9241">
        <time>2013-10-26T09:11:04Z</time>
      </trkpt>
      <trkpt lat="47.558" lon="-2.92406">
        <time>2013-10-26T09:11:06Z</time>
      </trkpt>
      <trkpt lat="47.55804" lon="-2.92401">
        <time>2013-10-26T09:11:10Z</time>
      </trkpt>
      <trkpt lat="47.55808" lon="-2.92395">
        <time>2013-10-26T09:11:13Z</time>
      </trkpt>
      <trkpt lat="47.55812" lon="-2.92388">
        <time>2013-10-26T09:11:16Z</time>
      </trkpt>
      <trkpt lat="47.55816" lon="-2.92383">
        <time>2013-10-26T09:11:18Z</time>
      </trkpt>
      <trkpt lat="47.55821" lon="-2.92378">
        <time>2013-10-26T09:11:22Z</time>
      </trkpt>
      <trkpt lat="47.55826" lon="-2.92374">
        <time>2013-10-26T09:11:24Z</time>
      </trkpt>
      <trkpt lat="47.55831" lon="-2.92371">
        <time>2013-10-26T09:11:27Z</time>
      </trkpt>
      <trkpt lat="47.55836" lon="-2.92365">
        <time>2013-10-26T09:11:30Z</time>
      </trkpt>
      <trkpt lat="47.5584" lon="-2.92357">
        <time>2013-10-26T09:11:33Z</time>
      </trkpt>
      <trkpt lat="47.55843" lon="-2.92352">
        <time>2013-10-26T09:11:35Z</time>
      </trkpt>
      <trkpt lat="47.55847" lon="-2.92346">
        <time>2013-10-26T09:11:38Z</time>
      </trkpt>
      <trkpt lat="47.5585" lon="-2.9234">
        <time>2013-10-26T09:11:41Z</time>
      </trkpt>
      <trkpt lat="47.55854" lon="-2.92337">
        <time>2013-10-26T09:11:46Z</time>
      </trkpt>
      <trkpt lat="47.5586" lon="-2.92335">
        <time>2013-10-26T09:11:51Z</time>
      </trkpt>
      <trkpt lat="47.55865" lon="-2.92333">
        <time>2013-10-26T09:11:54Z</time>
      </trkpt>
      <trkpt lat="47.55869" lon="-2.92329">
        <time>2013-10-26T09:11:58Z</time>
      </trkpt>
      <trkpt lat="47.55873" lon="-2.92324">
        <time>2013-10-26T09:12:03Z</time>
      </trkpt>
      <trkpt lat="47.55878" lon="-2.92319">
        <time>2013-10-26T09:12:07Z</time>
      </trkpt>
      <trkpt lat="47.55882" lon="-2.92315">
        <time>2013-10-26T09:12:10Z</time>
      </trkpt>
      <trkpt lat="47.55886" lon="-2.9231">
        <time>2013-10-26T09:12:12Z</time>
      </trkpt>
      <trkpt lat="47.5589" lon="-2.92306">
        <time>2013-10-26T09:12:16Z</time>
      </trkpt>
      <trkpt lat="47.55894" lon="-2.92302">
        <time>2013-10-26T09:12:18Z</time>
      </trkpt>
      <trkpt lat="47.55899" lon="-2.92299">
        <time>2013-10-26T09:12:22Z</time>
      </trkpt>
      <trkpt lat="47.55904" lon="-2.92295">
        <time>2013-10-26T09:12:24Z</time>
      </trkpt>
      <trkpt lat="47.5591" lon="-2.92292">
        <time>2013-10-26T09:12:26Z</time>
      </trkpt>
      <trkpt lat="47.55915" lon="-2.92288">
        <time>2013-10-26T09:12:28Z</time>
      </trkpt>
      <trkpt lat="47.5592" lon="-2.92284">
        <time>2013-10-26T09:12:31Z</time>
      </trkpt>
      <trkpt lat="47.55924" lon="-2.92279">
        <time>2013-10-26T09:12:33Z</time>
      </trkpt>
      <trkpt lat="47.55927" lon="-2.92273">
        <time>2013-10-26T09:12:37Z</time>
      </trkpt>
      <trkpt lat="47.55931" lon="-2.92267">
        <time>2013-10-26T09:12:41Z</time>
      </trkpt>
      <trkpt lat="47.55935" lon="-2.92261">
        <time>2013-10-26T09:12:44Z</time>
      </trkpt>
      <trkpt lat="47.55939" lon="-2.92257">
        <time>2013-10-26T09:12:48Z</time>
      </trkpt>
      <trkpt lat="47.55943" lon="-2.92252">
        <time>2013-10-26T09:12:51Z</time>
      </trkpt>
      <trkpt lat="47.55947" lon="-2.92247">
        <time>2013-10-26T09:12:55Z</time>
      </trkpt>
      <trkpt lat="47.5595" lon="-2.92242">
        <time>2013-10-26T09:12:57Z</time>
      </trkpt>
      <trkpt lat="47.55954" lon="-2.92235">
        <time>2013-10-26T09:13:01Z</time>
      </trkpt>
      <trkpt lat="47.55957" lon="-2.92229">
        <time>2013-10-26T09:13:06Z</time>
      </trkpt>
      <trkpt lat="47.55961" lon="-2.92222">
        <time>2013-10-26T09:13:10Z</time>
      </trkpt>
      <trkpt lat="47.55965" lon="-2.92216">
        <time>2013-10-26T09:13:12Z</time>
      </trkpt>
      <trkpt lat="47.55968" lon="-2.9221">
        <time>2013-10-26T09:13:16Z</time>
      </trkpt>
      <trkpt lat="47.55971" lon="-2.92205">
        <time>2013-10-26T09:13:18Z</time>
      </trkpt>
      <trkpt lat="47.55975" lon="-2.922">
        <time>2013-10-26T09:13:22Z</time>
      </trkpt>
      <trkpt lat="47.55979" lon="-2.92196">
        <time>2013-10-26T09:13:24Z</time>
      </trkpt>
      <trkpt lat="47.55984" lon="-2.92193">
        <time>2013-10-26T09:13:28Z</time>
      </trkpt>
      <trkpt lat="47.55987" lon="-2.92188">
        <time>2013-10-26T09:13:31Z</time>
      </trkpt>
      <trkpt lat="47.55991" lon="-2.92182">
        <time>2013-10-26T09:13:35Z</time>
      </trkpt>
      <trkpt lat="47.55994" lon="-2.92176">
        <time>2013-10-26T09:13:37Z</time>
      </trkpt>
      <trkpt lat="47.55996" lon="-2.9217">
        <time>2013-10-26T09:13:41Z</time>
      </trkpt>
      <trkpt lat="47.55998" lon="-2.92163">
        <time>2013-10-26T09:13:44Z</time>
      </trkpt>
      <trkpt lat="47.56" lon="-2.92157">
        <time>2013-10-26T09:13:46Z</time>
      </trkpt>
      <trkpt lat="47.56003" lon="-2.9215">
        <time>2013-10-26T09:13:50Z</time>
      </trkpt>
      <trkpt lat="47.56006" lon="-2.92144">
        <time>2013-10-26T09:13:52Z</time>
      </trkpt>
      <trkpt lat="47.56009" lon="-2.92138">
        <time>2013-10-26T09:13:56Z</time>
      </trkpt>
      <trkpt lat="47.56012" lon="-2.92131">
        <time>2013-10-26T09:13:58Z</time>
      </trkpt>
      <trkpt lat="47.56013" lon="-2.92125">
        <time>2013-10-26T09:14:01Z</time>
      </trkpt>
      <trkpt lat="47.56016" lon="-2.92119">
        <time>2013-10-26T09:14:06Z</time>
      </trkpt>
      <trkpt lat="47.56019" lon="-2.92112">
        <time>2013-10-26T09:14:10Z</time>
      </trkpt>
      <trkpt lat="47.56023" lon="-2.92108">
        <time>2013-10-26T09:14:14Z</time>
      </trkpt>
      <trkpt lat="47.56025" lon="-2.92102">
        <time>2013-10-26T09:14:17Z</time>
      </trkpt>
      <trkpt lat="47.56028" lon="-2.92096">
        <time>2013-10-26T09:14:20Z</time>
      </trkpt>
      <trkpt lat="47.5603" lon="-2.92089">
        <time>2013-10-26T09:14:24Z</time>
      </trkpt>
      <trkpt lat="47.56033" lon="-2.92083">
        <time>2013-10-26T09:14:27Z</time>
      </trkpt>
      <trkpt lat="47.56036" lon="-2.92076">
        <time>2013-10-26T09:14:30Z</time>
      </trkpt>
      <trkpt lat="47.56039" lon="-2.92071">
        <time>2013-10-26T09:14:37Z</time>
      </trkpt>
      <trkpt lat="47.56042" lon="-2.92065">
        <time>2013-10-26T09:14:39Z</time>
      </trkpt>
      <trkpt lat="47.56044" lon="-2.92057">
        <time>2013-10-26T09:14:43Z</time>
      </trkpt>
      <trkpt lat="47.56046" lon="-2.92051">
        <time>2013-10-26T09:14:44Z</time>
      </trkpt>
      <trkpt lat="47.56048" lon="-2.92044">
        <time>2013-10-26T09:14:47Z</time>
      </trkpt>
      <trkpt lat="47.56049" lon="-2.92037">
        <time>2013-10-26T09:14:48Z</time>
      </trkpt>
      <trkpt lat="47.56051" lon="-2.9203">
        <time>2013-10-26T09:14:50Z</time>
      </trkpt>
      <trkpt lat="47.56054" lon="-2.92021">
        <time>2013-10-26T09:14:54Z</time>
      </trkpt>
      <trkpt lat="47.56056" lon="-2.92015">
        <time>2013-10-26T09:14:56Z</time>
      </trkpt>
      <trkpt lat="47.5606" lon="-2.92009">
        <time>2013-10-26T09:14:59Z</time>
      </trkpt>
      <trkpt lat="47.56065" lon="-2.92003">
        <time>2013-10-26T09:15:02Z</time>
      </trkpt>
      <trkpt lat="47.5607" lon="-2.91997">
        <time>2013-10-26T09:15:04Z</time>
      </trkpt>
      <trkpt lat="47.56074" lon="-2.91991">
        <time>2013-10-26T09:15:08Z</time>
      </trkpt>
      <trkpt lat="47.56077" lon="-2.91983">
        <time>2013-10-26T09:15:10Z</time>
      </trkpt>
      <trkpt lat="47.5608" lon="-2.91975">
        <time>2013-10-26T09:15:14Z</time>
      </trkpt>
      <trkpt lat="47.56083" lon="-2.91968">
        <time>2013-10-26T09:15:17Z</time>
      </trkpt>
      <trkpt lat="47.56086" lon="-2.91961">
        <time>2013-10-26T09:15:20Z</time>
      </trkpt>
      <trkpt lat="47.5609" lon="-2.91955">
        <time>2013-10-26T09:15:23Z</time>
      </trkpt>
      <trkpt lat="47.56093" lon="-2.91948">
        <time>2013-10-26T09:15:26Z</time>
      </trkpt>
      <trkpt lat="47.56096" lon="-2.9194">
        <time>2013-10-26T09:15:29Z</time>
      </trkpt>
      <trkpt lat="47.56099" lon="-2.91933">
        <time>2013-10-26T09:15:32Z</time>
      </trkpt>
      <trkpt lat="47.56103" lon="-2.91928">
        <time>2013-10-26T09:15:35Z</time>
      </trkpt>
      <trkpt lat="47.56107" lon="-2.91923">
        <time>2013-10-26T09:15:37Z</time>
      </trkpt>
      <trkpt lat="47.56111" lon="-2.91916">
        <time>2013-10-26T09:15:41Z</time>
      </trkpt>
      <trkpt lat="47.56114" lon="-2.9191">
        <time>2013-10-26T09:15:44Z</time>
      </trkpt>
      <trkpt lat="47.56117" lon="-2.91903">
        <time>2013-10-26T09:15:47Z</time>
      </trkpt>
      <trkpt lat="47.56121" lon="-2.91896">
        <time>2013-10-26T09:15:49Z</time>
      </trkpt>
      <trkpt lat="47.56125" lon="-2.91889">
        <time>2013-10-26T09:15:53Z</time>
      </trkpt>
      <trkpt lat="47.56129" lon="-2.91882">
        <time>2013-10-26T09:15:56Z</time>
      </trkpt>
      <trkpt lat="47.56132" lon="-2.91875">
        <time>2013-10-26T09:15:59Z</time>
      </trkpt>
      <trkpt lat="47.56136" lon="-2.91868">
        <time>2013-10-26T09:16:01Z</time>
      </trkpt>
      <trkpt lat="47.56139" lon="-2.9186">
        <time>2013-10-26T09:16:04Z</time>
      </trkpt>
      <trkpt lat="47.56142" lon="-2.91851">
        <time>2013-10-26T09:16:07Z</time>
      </trkpt>
      <trkpt lat="47.56145" lon="-2.91845">
        <time>2013-10-26T09:16:10Z</time>
      </trkpt>
      <trkpt lat="47.56149" lon="-2.91839">
        <time>2013-10-26T09:16:11Z</time>
      </trkpt>
      <trkpt lat="47.56151" lon="-2.91834">
        <time>2013-10-26T09:16:14Z</time>
      </trkpt>
      <trkpt lat="47.56155" lon="-2.91827">
        <time>2013-10-26T09:16:17Z</time>
      </trkpt>
      <trkpt lat="47.56159" lon="-2.91822">
        <time>2013-10-26T09:16:19Z</time>
      </trkpt>
      <trkpt lat="47.56163" lon="-2.91817">
        <time>2013-10-26T09:16:21Z</time>
      </trkpt>
      <trkpt lat="47.56166" lon="-2.91812">
        <time>2013-10-26T09:16:23Z</time>
      </trkpt>
      <trkpt lat="47.56169" lon="-2.91807">
        <time>2013-10-26T09:16:24Z</time>
      </trkpt>
      <trkpt lat="47.56172" lon="-2.91801">
        <time>2013-10-26T09:16:27Z</time>
      </trkpt>
      <trkpt lat="47.56175" lon="-2.91796">
        <time>2013-10-26T09:16:29Z</time>
      </trkpt>
      <trkpt lat="47.56178" lon="-2.9179">
        <time>2013-10-26T09:16:30Z</time>
      </trkpt>
      <trkpt lat="47.56181" lon="-2.91784">
        <time>2013-10-26T09:16:33Z</time>
      </trkpt>
      <trkpt lat="47.56184" lon="-2.91778">
        <time>2013-10-26T09:16:34Z</time>
      </trkpt>
      <trkpt lat="47.56187" lon="-2.91772">
        <time>2013-10-26T09:16:36Z</time>
      </trkpt>
      <trkpt lat="47.56189" lon="-2.91766">
        <time>2013-10-26T09:16:38Z</time>
      </trkpt>
      <trkpt lat="47.56191" lon="-2.91757">
        <time>2013-10-26T09:16:41Z</time>
      </trkpt>
      <trkpt lat="47.56192" lon="-2.9175">
        <time>2013-10-26T09:16:45Z</time>
      </trkpt>
      <trkpt lat="47.56192" lon="-2.91743">
        <time>2013-10-26T09:16:48Z</time>
      </trkpt>
      <trkpt lat="47.56193" lon="-2.91736">
        <time>2013-10-26T09:16:50Z</time>
      </trkpt>
      <trkpt lat="47.56195" lon="-2.91729">
        <time>2013-10-26T09:16:53Z</time>
      </trkpt>
      <trkpt lat="47.56198" lon="-2.91722">
        <time>2013-10-26T09:16:56Z</time>
      </trkpt>
      <trkpt lat="47.56201" lon="-2.91716">
        <time>2013-10-26T09:16:59Z</time>
      </trkpt>
      <trkpt lat="47.56205" lon="-2.9171">
        <time>2013-10-26T09:17:02Z</time>
      </trkpt>
      <trkpt lat="47.56208" lon="-2.91703">
        <time>2013-10-26T09:17:05Z</time>
      </trkpt>
      <trkpt lat="47.56212" lon="-2.91696">
        <time>2013-10-26T09:17:09Z</time>
      </trkpt>
      <trkpt lat="47.56215" lon="-2.91688">
        <time>2013-10-26T09:17:11Z</time>
      </trkpt>
      <trkpt lat="47.56219" lon="-2.9168">
        <time>2013-10-26T09:17:14Z</time>
      </trkpt>
      <trkpt lat="47.56221" lon="-2.91674">
        <time>2013-10-26T09:17:16Z</time>
      </trkpt>
      <trkpt lat="47.56224" lon="-2.91668">
        <time>2013-10-26T09:17:18Z</time>
      </trkpt>
      <trkpt lat="47.56227" lon="-2.91662">
        <time>2013-10-26T09:17:21Z</time>
      </trkpt>
      <trkpt lat="47.56229" lon="-2.91656">
        <time>2013-10-26T09:17:23Z</time>
      </trkpt>
      <trkpt lat="47.5623" lon="-2.91649">
        <time>2013-10-26T09:17:24Z</time>
      </trkpt>
      <trkpt lat="47.56233" lon="-2.9164">
        <time>2013-10-26T09:17:28Z</time>
      </trkpt>
      <trkpt lat="47.56234" lon="-2.91633">
        <time>2013-10-26T09:17:30Z</time>
      </trkpt>
      <trkpt lat="47.56236" lon="-2.91625">
        <time>2013-10-26T09:17:35Z</time>
      </trkpt>
      <trkpt lat="47.56238" lon="-2.91618">
        <time>2013-10-26T09:17:39Z</time>
      </trkpt>
      <trkpt lat="47.56241" lon="-2.9161">
        <time>2013-10-26T09:17:42Z</time>
      </trkpt>
      <trkpt lat="47.56243" lon="-2.91604">
        <time>2013-10-26T09:17:46Z</time>
      </trkpt>
      <trkpt lat="47.56246" lon="-2.91598">
        <time>2013-10-26T09:17:49Z</time>
      </trkpt>
      <trkpt lat="47.5625" lon="-2.91592">
        <time>2013-10-26T09:17:51Z</time>
      </trkpt>
      <trkpt lat="47.56255" lon="-2.91585">
        <time>2013-10-26T09:17:55Z</time>
      </trkpt>
      <trkpt lat="47.56258" lon="-2.9158">
        <time>2013-10-26T09:17:56Z</time>
      </trkpt>
      <trkpt lat="47.56261" lon="-2.91574">
        <time>2013-10-26T09:17:59Z</time>
      </trkpt>
      <trkpt lat="47.56264" lon="-2.91568">
        <time>2013-10-26T09:18:01Z</time>
      </trkpt>
      <trkpt lat="47.56268" lon="-2.91561">
        <time>2013-10-26T09:18:03Z</time>
      </trkpt>
      <trkpt lat="47.5627" lon="-2.91555">
        <time>2013-10-26T09:18:05Z</time>
      </trkpt>
      <trkpt lat="47.56274" lon="-2.91548">
        <time>2013-10-26T09:18:08Z</time>
      </trkpt>
      <trkpt lat="47.56279" lon="-2.91542">
        <time>2013-10-26T09:18:10Z</time>
      </trkpt>
      <trkpt lat="47.56284" lon="-2.91535">
        <time>2013-10-26T09:18:14Z</time>
      </trkpt>
      <trkpt lat="47.56287" lon="-2.91528">
        <time>2013-10-26T09:18:17Z</time>
      </trkpt>
      <trkpt lat="47.56291" lon="-2.91521">
        <time>2013-10-26T09:18:20Z</time>
      </trkpt>
      <trkpt lat="47.56293" lon="-2.91513">
        <time>2013-10-26T09:18:23Z</time>
      </trkpt>
      <trkpt lat="47.56296" lon="-2.91505">
        <time>2013-10-26T09:18:25Z</time>
      </trkpt>
      <trkpt lat="47.56299" lon="-2.91497">
        <time>2013-10-26T09:18:28Z</time>
      </trkpt>
      <trkpt lat="47.56302" lon="-2.91489">
        <time>2013-10-26T09:18:31Z</time>
      </trkpt>
      <trkpt lat="47.56305" lon="-2.91481">
        <time>2013-10-26T09:18:35Z</time>
      </trkpt>
      <trkpt lat="47.56309" lon="-2.91473">
        <time>2013-10-26T09:18:38Z</time>
      </trkpt>
      <trkpt lat="47.56312" lon="-2.91465">
        <time>2013-10-26T09:18:41Z</time>
      </trkpt>
      <trkpt lat="47.56315" lon="-2.91458">
        <time>2013-10-26T09:18:43Z</time>
      </trkpt>
      <trkpt lat="47.56317" lon="-2.91449">
        <time>2013-10-26T09:18:47Z</time>
      </trkpt>
      <trkpt lat="47.56319" lon="-2.91443">
        <time>2013-10-26T09:18:49Z</time>
      </trkpt>
      <trkpt lat="47.56322" lon="-2.91436">
        <time>2013-10-26T09:18:52Z</time>
      </trkpt>
      <trkpt lat="47.56325" lon="-2.9143">
        <time>2013-10-26T09:18:56Z</time>
      </trkpt>
      <trkpt lat="47.56328" lon="-2.91423">
        <time>2013-10-26T09:18:59Z</time>
      </trkpt>
      <trkpt lat="47.56331" lon="-2.91415">
        <time>2013-10-26T09:19:02Z</time>
      </trkpt>
      <trkpt lat="47.56334" lon="-2.91407">
        <time>2013-10-26T09:19:05Z</time>
      </trkpt>
      <trkpt lat="47.56337" lon="-2.91398">
        <time>2013-10-26T09:19:08Z</time>
      </trkpt>
      <trkpt lat="47.56341" lon="-2.9139">
        <time>2013-10-26T09:19:10Z</time>
      </trkpt>
      <trkpt lat="47.56344" lon="-2.91381">
        <time>2013-10-26T09:19:13Z</time>
      </trkpt>
      <trkpt lat="47.56346" lon="-2.91372">
        <time>2013-10-26T09:19:16Z</time>
      </trkpt>
      <trkpt lat="47.56348" lon="-2.91366">
        <time>2013-10-26T09:19:18Z</time>
      </trkpt>
      <trkpt lat="47.56351" lon="-2.91357">
        <time>2013-10-26T09:19:21Z</time>
      </trkpt>
      <trkpt lat="47.56355" lon="-2.91349">
        <time>2013-10-26T09:19:24Z</time>
      </trkpt>
      <trkpt lat="47.56358" lon="-2.91341">
        <time>2013-10-26T09:19:27Z</time>
      </trkpt>
      <trkpt lat="47.56362" lon="-2.91333">
        <time>2013-10-26T09:19:30Z</time>
      </trkpt>
      <trkpt lat="47.56365" lon="-2.91325">
        <time>2013-10-26T09:19:33Z</time>
      </trkpt>
      <trkpt lat="47.56367" lon="-2.91317">
        <time>2013-10-26T09:19:36Z</time>
      </trkpt>
      <trkpt lat="47.56369" lon="-2.91309">
        <time>2013-10-26T09:19:39Z</time>
      </trkpt>
      <trkpt lat="47.56371" lon="-2.91302">
        <time>2013-10-26T09:19:42Z</time>
      </trkpt>
      <trkpt lat="47.56373" lon="-2.91295">
        <time>2013-10-26T09:19:46Z</time>
      </trkpt>
      <trkpt lat="47.56376" lon="-2.91289">
        <time>2013-10-26T09:19:49Z</time>
      </trkpt>
      <trkpt lat="47.56378" lon="-2.91282">
        <time>2013-10-26T09:19:53Z</time>
      </trkpt>
      <trkpt lat="47.56381" lon="-2.91274">
        <time>2013-10-26T09:19:56Z</time>
      </trkpt>
      <trkpt lat="47.56383" lon="-2.91268">
        <time>2013-10-26T09:20:00Z</time>
      </trkpt>
      <trkpt lat="47.56386" lon="-2.91262">
        <time>2013-10-26T09:20:03Z</time>
      </trkpt>
      <trkpt lat="47.56388" lon="-2.91256">
        <time>2013-10-26T09:20:05Z</time>
      </trkpt>
      <trkpt lat="47.56391" lon="-2.91251">
        <time>2013-10-26T09:20:09Z</time>
      </trkpt>
      <trkpt lat="47.56394" lon="-2.91246">
        <time>2013-10-26T09:20:12Z</time>
      </trkpt>
      <trkpt lat="47.56398" lon="-2.91239">
        <time>2013-10-26T09:20:16Z</time>
      </trkpt>
      <trkpt lat="47.564" lon="-2.91232">
        <time>2013-10-26T09:20:20Z</time>
      </trkpt>
      <trkpt lat="47.56402" lon="-2.91225">
        <time>2013-10-26T09:20:23Z</time>
      </trkpt>
      <trkpt lat="47.56404" lon="-2.91218">
        <time>2013-10-26T09:20:27Z</time>
      </trkpt>
      <trkpt lat="47.56407" lon="-2.9121">
        <time>2013-10-26T09:20:32Z</time>
      </trkpt>
      <trkpt lat="47.5641" lon="-2.91205">
        <time>2013-10-26T09:20:34Z</time>
      </trkpt>
      <trkpt lat="47.56413" lon="-2.91199">
        <time>2013-10-26T09:20:38Z</time>
      </trkpt>
      <trkpt lat="47.56415" lon="-2.91193">
        <time>2013-10-26T09:20:40Z</time>
      </trkpt>
      <trkpt lat="47.56417" lon="-2.91187">
        <time>2013-10-26T09:20:45Z</time>
      </trkpt>
      <trkpt lat="47.56421" lon="-2.91181">
        <time>2013-10-26T09:20:49Z</time>
      </trkpt>
      <trkpt lat="47.56424" lon="-2.91174">
        <time>2013-10-26T09:20:53Z</time>
      </trkpt>
      <trkpt lat="47.56427" lon="-2.91169">
        <time>2013-10-26T09:20:56Z</time>
      </trkpt>
      <trkpt lat="47.56431" lon="-2.91163">
        <time>2013-10-26T09:20:59Z</time>
      </trkpt>
      <trkpt lat="47.56434" lon="-2.91157">
        <time>2013-10-26T09:21:01Z</time>
      </trkpt>
      <trkpt lat="47.56438" lon="-2.91151">
        <time>2013-10-26T09:21:04Z</time>
      </trkpt>
      <trkpt lat="47.56441" lon="-2.91145">
        <time>2013-10-26T09:21:08Z</time>
      </trkpt>
      <trkpt lat="47.56443" lon="-2.91137">
        <time>2013-10-26T09:21:10Z</time>
      </trkpt>
      <trkpt lat="47.56446" lon="-2.91129">
        <time>2013-10-26T09:21:14Z</time>
      </trkpt>
      <trkpt lat="47.56449" lon="-2.91123">
        <time>2013-10-26T09:21:16Z</time>
      </trkpt>
      <trkpt lat="47.56451" lon="-2.91117">
        <time>2013-10-26T09:21:18Z</time>
      </trkpt>
      <trkpt lat="47.56454" lon="-2.91111">
        <time>2013-10-26T09:21:20Z</time>
      </trkpt>
      <trkpt lat="47.56456" lon="-2.91104">
        <time>2013-10-26T09:21:22Z</time>
      </trkpt>
      <trkpt lat="47.56457" lon="-2.91097">
        <time>2013-10-26T09:21:23Z</time>
      </trkpt>
      <trkpt lat="47.56458" lon="-2.91091">
        <time>2013-10-26T09:21:26Z</time>
      </trkpt>
      <trkpt lat="47.5646" lon="-2.91081">
        <time>2013-10-26T09:21:28Z</time>
      </trkpt>
      <trkpt lat="47.56463" lon="-2.91074">
        <time>2013-10-26T09:21:31Z</time>
      </trkpt>
      <trkpt lat="47.56466" lon="-2.91067">
        <time>2013-10-26T09:21:35Z</time>
      </trkpt>
      <trkpt lat="47.5647" lon="-2.91059">
        <time>2013-10-26T09:21:38Z</time>
      </trkpt>
      <trkpt lat="47.56474" lon="-2.91051">
        <time>2013-10-26T09:21:41Z</time>
      </trkpt>
      <trkpt lat="47.56477" lon="-2.91045">
        <time>2013-10-26T09:21:43Z</time>
      </trkpt>
      <trkpt lat="47.5648" lon="-2.9104">
        <time>2013-10-26T09:21:44Z</time>
      </trkpt>
      <trkpt lat="47.56484" lon="-2.91034">
        <time>2013-10-26T09:21:48Z</time>
      </trkpt>
      <trkpt lat="47.56488" lon="-2.91028">
        <time>2013-10-26T09:21:50Z</time>
      </trkpt>
      <trkpt lat="47.56491" lon="-2.9102">
        <time>2013-10-26T09:21:54Z</time>
      </trkpt>
      <trkpt lat="47.56492" lon="-2.91014">
        <time>2013-10-26T09:21:56Z</time>
      </trkpt>
      <trkpt lat="47.56495" lon="-2.91007">
        <time>2013-10-26T09:21:57Z</time>
      </trkpt>
      <trkpt lat="47.56496" lon="-2.91">
        <time>2013-10-26T09:22:00Z</time>
      </trkpt>
      <trkpt lat="47.56498" lon="-2.90993">
        <time>2013-10-26T09:22:02Z</time>
      </trkpt>
      <trkpt lat="47.565" lon="-2.90986">
        <time>2013-10-26T09:22:03Z</time>
      </trkpt>
      <trkpt lat="47.56502" lon="-2.90977">
        <time>2013-10-26T09:22:07Z</time>
      </trkpt>
      <trkpt lat="47.56504" lon="-2.90971">
        <time>2013-10-26T09:22:09Z</time>
      </trkpt>
      <trkpt lat="47.56506" lon="-2.90962">
        <time>2013-10-26T09:22:12Z</time>
      </trkpt>
      <trkpt lat="47.56509" lon="-2.90954">
        <time>2013-10-26T09:22:15Z</time>
      </trkpt>
      <trkpt lat="47.56512" lon="-2.90946">
        <time>2013-10-26T09:22:18Z</time>
      </trkpt>
      <trkpt lat="47.56514" lon="-2.90939">
        <time>2013-10-26T09:22:20Z</time>
      </trkpt>
      <trkpt lat="47.56515" lon="-2.9093">
        <time>2013-10-26T09:22:24Z</time>
      </trkpt>
      <trkpt lat="47.56516" lon="-2.90923">
        <time>2013-10-26T09:22:28Z</time>
      </trkpt>
      <trkpt lat="47.56517" lon="-2.90915">
        <time>2013-10-26T09:22:31Z</time>
      </trkpt>
      <trkpt lat="47.56519" lon="-2.90908">
        <time>2013-10-26T09:22:34Z</time>
      </trkpt>
      <trkpt lat="47.5652" lon="-2.90901">
        <time>2013-10-26T09:22:36Z</time>
      </trkpt>
      <trkpt lat="47.56521" lon="-2.90894">
        <time>2013-10-26T09:22:41Z</time>
      </trkpt>
      <trkpt lat="47.56523" lon="-2.90887">
        <time>2013-10-26T09:22:45Z</time>
      </trkpt>
      <trkpt lat="47.56525" lon="-2.90879">
        <time>2013-10-26T09:22:49Z</time>
      </trkpt>
      <trkpt lat="47.56527" lon="-2.90872">
        <time>2013-10-26T09:22:52Z</time>
      </trkpt>
      <trkpt lat="47.56529" lon="-2.90866">
        <time>2013-10-26T09:22:56Z</time>
      </trkpt>
      <trkpt lat="47.56531" lon="-2.90858">
        <time>2013-10-26T09:23:01Z</time>
      </trkpt>
      <trkpt lat="47.56534" lon="-2.90852">
        <time>2013-10-26T09:23:03Z</time>
      </trkpt>
      <trkpt lat="47.56538" lon="-2.90846">
        <time>2013-10-26T09:23:07Z</time>
      </trkpt>
      <trkpt lat="47.56542" lon="-2.9084">
        <time>2013-10-26T09:23:10Z</time>
      </trkpt>
      <trkpt lat="47.56544" lon="-2.90834">
        <time>2013-10-26T09:23:14Z</time>
      </trkpt>
      <trkpt lat="47.56548" lon="-2.90827">
        <time>2013-10-26T09:23:16Z</time>
      </trkpt>
      <trkpt lat="47.56551" lon="-2.90818">
        <time>2013-10-26T09:23:20Z</time>
      </trkpt>
      <trkpt lat="47.56555" lon="-2.9081">
        <time>2013-10-26T09:23:22Z</time>
      </trkpt>
      <trkpt lat="47.56557" lon="-2.90804">
        <time>2013-10-26T09:23:24Z</time>
      </trkpt>
      <trkpt lat="47.56559" lon="-2.90797">
        <time>2013-10-26T09:23:26Z</time>
      </trkpt>
      <trkpt lat="47.56561" lon="-2.9079">
        <time>2013-10-26T09:23:29Z</time>
      </trkpt>
      <trkpt lat="47.56562" lon="-2.90781">
        <time>2013-10-26T09:23:30Z</time>
      </trkpt>
      <trkpt lat="47.56563" lon="-2.90773">
        <time>2013-10-26T09:23:33Z</time>
      </trkpt>
      <trkpt lat="47.56565" lon="-2.90765">
        <time>2013-10-26T09:23:35Z</time>
      </trkpt>
      <trkpt lat="47.56567" lon="-2.90757">
        <time>2013-10-26T09:23:36Z</time>
      </trkpt>
      <trkpt lat="47.56569" lon="-2.90749">
        <time>2013-10-26T09:23:38Z</time>
      </trkpt>
      <trkpt lat="47.56571" lon="-2.90741">
        <time>2013-10-26T09:23:41Z</time>
      </trkpt>
      <trkpt lat="47.56573" lon="-2.90732">
        <time>2013-10-26T09:23:42Z</time>
      </trkpt>
      <trkpt lat="47.56575" lon="-2.90724">
        <time>2013-10-26T09:23:45Z</time>
      </trkpt>
      <trkpt lat="47.56577" lon="-2.90717">
        <time>2013-10-26T09:23:47Z</time>
      </trkpt>
      <trkpt lat="47.5658" lon="-2.9071">
        <time>2013-10-26T09:23:49Z</time>
      </trkpt>
      <trkpt lat="47.56583" lon="-2.90704">
        <time>2013-10-26T09:23:51Z</time>
      </trkpt>
      <trkpt lat="47.56585" lon="-2.90697">
        <time>2013-10-26T09:23:53Z</time>
      </trkpt>
      <trkpt lat="47.56588" lon="-2.9069">
        <time>2013-10-26T09:23:55Z</time>
      </trkpt>
      <trkpt lat="47.56589" lon="-2.90683">
        <time>2013-10-26T09:23:56Z</time>
      </trkpt>
      <trkpt lat="47.5659" lon="-2.90675">
        <time>2013-10-26T09:23:59Z</time>
      </trkpt>
      <trkpt lat="47.56591" lon="-2.90666">
        <time>2013-10-26T09:24:01Z</time>
      </trkpt>
      <trkpt lat="47.56593" lon="-2.90659">
        <time>2013-10-26T09:24:02Z</time>
      </trkpt>
      <trkpt lat="47.56593" lon="-2.90652">
        <time>2013-10-26T09:24:04Z</time>
      </trkpt>
      <trkpt lat="47.56595" lon="-2.90642">
        <time>2013-10-26T09:24:07Z</time>
      </trkpt>
      <trkpt lat="47.56596" lon="-2.90634">
        <time>2013-10-26T09:24:10Z</time>
      </trkpt>
      <trkpt lat="47.56598" lon="-2.90628">
        <time>2013-10-26T09:24:13Z</time>
      </trkpt>
      <trkpt lat="47.56601" lon="-2.90621">
        <time>2013-10-26T09:24:18Z</time>
      </trkpt>
      <trkpt lat="47.56604" lon="-2.90615">
        <time>2013-10-26T09:24:22Z</time>
      </trkpt>
      <trkpt lat="47.56607" lon="-2.90609">
        <time>2013-10-26T09:24:25Z</time>
      </trkpt>
      <trkpt lat="47.56611" lon="-2.90602">
        <time>2013-10-26T09:24:28Z</time>
      </trkpt>
      <trkpt lat="47.56614" lon="-2.90595">
        <time>2013-10-26T09:24:30Z</time>
      </trkpt>
      <trkpt lat="47.56616" lon="-2.90587">
        <time>2013-10-26T09:24:34Z</time>
      </trkpt>
      <trkpt lat="47.56618" lon="-2.90579">
        <time>2013-10-26T09:24:37Z</time>
      </trkpt>
      <trkpt lat="47.5662" lon="-2.9057">
        <time>2013-10-26T09:24:40Z</time>
      </trkpt>
      <trkpt lat="47.56622" lon="-2.90563">
        <time>2013-10-26T09:24:42Z</time>
      </trkpt>
      <trkpt lat="47.56624" lon="-2.90554">
        <time>2013-10-26T09:24:44Z</time>
      </trkpt>
      <trkpt lat="47.56626" lon="-2.90548">
        <time>2013-10-26T09:24:46Z</time>
      </trkpt>
      <trkpt lat="47.56627" lon="-2.90539">
        <time>2013-10-26T09:24:50Z</time>
      </trkpt>
      <trkpt lat="47.56629" lon="-2.9053">
        <time>2013-10-26T09:24:52Z</time>
      </trkpt>
      <trkpt lat="47.56631" lon="-2.90521">
        <time>2013-10-26T09:24:56Z</time>
      </trkpt>
      <trkpt lat="47.56633" lon="-2.90511">
        <time>2013-10-26T09:24:59Z</time>
      </trkpt>
      <trkpt lat="47.56634" lon="-2.90505">
        <time>2013-10-26T09:25:01Z</time>
      </trkpt>
      <trkpt lat="47.56636" lon="-2.90498">
        <time>2013-10-26T09:25:03Z</time>
      </trkpt>
      <trkpt lat="47.56639" lon="-2.9049">
        <time>2013-10-26T09:25:05Z</time>
      </trkpt>
      <trkpt lat="47.56641" lon="-2.90483">
        <time>2013-10-26T09:25:06Z</time>
      </trkpt>
      <trkpt lat="47.56644" lon="-2.90475">
        <time>2013-10-26T09:25:09Z</time>
      </trkpt>
      <trkpt lat="47.56647" lon="-2.90466">
        <time>2013-10-26T09:25:11Z</time>
      </trkpt>
      <trkpt lat="47.56649" lon="-2.90458">
        <time>2013-10-26T09:25:13Z</time>
      </trkpt>
      <trkpt lat="47.56651" lon="-2.90451">
        <time>2013-10-26T09:25:15Z</time>
      </trkpt>
      <trkpt lat="47.56653" lon="-2.90444">
        <time>2013-10-26T09:25:16Z</time>
      </trkpt>
      <trkpt lat="47.56655" lon="-2.90438">
        <time>2013-10-26T09:25:19Z</time>
      </trkpt>
      <trkpt lat="47.56657" lon="-2.90431">
        <time>2013-10-26T09:25:21Z</time>
      </trkpt>
      <trkpt lat="47.56658" lon="-2.90425">
        <time>2013-10-26T09:25:23Z</time>
      </trkpt>
      <trkpt lat="47.56659" lon="-2.90416">
        <time>2013-10-26T09:25:26Z</time>
      </trkpt>
      <trkpt lat="47.5666" lon="-2.90407">
        <time>2013-10-26T09:25:29Z</time>
      </trkpt>
      <trkpt lat="47.56662" lon="-2.904">
        <time>2013-10-26T09:25:32Z</time>
      </trkpt>
      <trkpt lat="47.56664" lon="-2.90393">
        <time>2013-10-26T09:25:35Z</time>
      </trkpt>
      <trkpt lat="47.56666" lon="-2.90385">
        <time>2013-10-26T09:25:38Z</time>
      </trkpt>
      <trkpt lat="47.56668" lon="-2.90378">
        <time>2013-10-26T09:25:41Z</time>
      </trkpt>
      <trkpt lat="47.5667" lon="-2.9037">
        <time>2013-10-26T09:25:44Z</time>
      </trkpt>
      <trkpt lat="47.56673" lon="-2.90362">
        <time>2013-10-26T09:25:47Z</time>
      </trkpt>
      <trkpt lat="47.56676" lon="-2.90354">
        <time>2013-10-26T09:25:50Z</time>
      </trkpt>
      <trkpt lat="47.56679" lon="-2.90346">
        <time>2013-10-26T09:25:53Z</time>
      </trkpt>
      <trkpt lat="47.56682" lon="-2.90338">
        <time>2013-10-26T09:25:56Z</time>
      </trkpt>
      <trkpt lat="47.56685" lon="-2.90329">
        <time>2013-10-26T09:25:59Z</time>
      </trkpt>
      <trkpt lat="47.56688" lon="-2.9032">
        <time>2013-10-26T09:26:02Z</time>
      </trkpt>
      <trkpt lat="47.5669" lon="-2.90315">
        <time>2013-10-26T09:26:04Z</time>
      </trkpt>
      <trkpt lat="47.56692" lon="-2.90307">
        <time>2013-10-26T09:26:07Z</time>
      </trkpt>
      <trkpt lat="47.56693" lon="-2.903">
        <time>2013-10-26T09:26:10Z</time>
      </trkpt>
      <trkpt lat="47.56696" lon="-2.90293">
        <time>2013-10-26T09:26:16Z</time>
      </trkpt>
      <trkpt lat="47.56699" lon="-2.90288">
        <time>2013-10-26T09:26:19Z</time>
      </trkpt>
      <trkpt lat="47.56704" lon="-2.90281">
        <time>2013-10-26T09:26:24Z</time>
      </trkpt>
      <trkpt lat="47.56707" lon="-2.90275">
        <time>2013-10-26T09:26:27Z</time>
      </trkpt>
      <trkpt lat="47.5671" lon="-2.90268">
        <time>2013-10-26T09:26:30Z</time>
      </trkpt>
      <trkpt lat="47.56713" lon="-2.9026">
        <time>2013-10-26T09:26:33Z</time>
      </trkpt>
      <trkpt lat="47.56717" lon="-2.90251">
        <time>2013-10-26T09:26:36Z</time>
      </trkpt>
      <trkpt lat="47.5672" lon="-2.90243">
        <time>2013-10-26T09:26:39Z</time>
      </trkpt>
      <trkpt lat="47.56723" lon="-2.90236">
        <time>2013-10-26T09:26:42Z</time>
      </trkpt>
      <trkpt lat="47.56726" lon="-2.90229">
        <time>2013-10-26T09:26:44Z</time>
      </trkpt>
      <trkpt lat="47.5673" lon="-2.90221">
        <time>2013-10-26T09:26:47Z</time>
      </trkpt>
      <trkpt lat="47.56733" lon="-2.90214">
        <time>2013-10-26T09:26:51Z</time>
      </trkpt>
      <trkpt lat="47.56736" lon="-2.90206">
        <time>2013-10-26T09:26:53Z</time>
      </trkpt>
      <trkpt lat="47.56739" lon="-2.90198">
        <time>2013-10-26T09:26:56Z</time>
      </trkpt>
      <trkpt lat="47.56742" lon="-2.90192">
        <time>2013-10-26T09:27:00Z</time>
      </trkpt>
      <trkpt lat="47.56746" lon="-2.90184">
        <time>2013-10-26T09:27:03Z</time>
      </trkpt>
      <trkpt lat="47.56749" lon="-2.90177">
        <time>2013-10-26T09:27:06Z</time>
      </trkpt>
      <trkpt lat="47.56751" lon="-2.9017">
        <time>2013-10-26T09:27:10Z</time>
      </trkpt>
      <trkpt lat="47.56755" lon="-2.90164">
        <time>2013-10-26T09:27:14Z</time>
      </trkpt>
      <trkpt lat="47.56759" lon="-2.90158">
        <time>2013-10-26T09:27:18Z</time>
      </trkpt>
      <trkpt lat="47.56762" lon="-2.90152">
        <time>2013-10-26T09:27:22Z</time>
      </trkpt>
      <trkpt lat="47.56766" lon="-2.90147">
        <time>2013-10-26T09:27:26Z</time>
      </trkpt>
      <trkpt lat="47.5677" lon="-2.90143">
        <time>2013-10-26T09:27:29Z</time>
      </trkpt>
      <trkpt lat="47.56773" lon="-2.90138">
        <time>2013-10-26T09:27:32Z</time>
      </trkpt>
      <trkpt lat="47.56777" lon="-2.90132">
        <time>2013-10-26T09:27:35Z</time>
      </trkpt>
      <trkpt lat="47.56781" lon="-2.90125">
        <time>2013-10-26T09:27:38Z</time>
      </trkpt>
      <trkpt lat="47.56785" lon="-2.90119">
        <time>2013-10-26T09:27:41Z</time>
      </trkpt>
      <trkpt lat="47.56788" lon="-2.90112">
        <time>2013-10-26T09:27:44Z</time>
      </trkpt>
      <trkpt lat="47.56791" lon="-2.90105">
        <time>2013-10-26T09:27:47Z</time>
      </trkpt>
      <trkpt lat="47.56794" lon="-2.90097">
        <time>2013-10-26T09:27:50Z</time>
      </trkpt>
      <trkpt lat="47.56797" lon="-2.9009">
        <time>2013-10-26T09:27:52Z</time>
      </trkpt>
      <trkpt lat="47.56799" lon="-2.90082">
        <time>2013-10-26T09:27:55Z</time>
      </trkpt>
      <trkpt lat="47.56801" lon="-2.90075">
        <time>2013-10-26T09:27:58Z</time>
      </trkpt>
      <trkpt lat="47.56803" lon="-2.90068">
        <time>2013-10-26T09:28:01Z</time>
      </trkpt>
      <trkpt lat="47.56805" lon="-2.9006">
        <time>2013-10-26T09:28:05Z</time>
      </trkpt>
      <trkpt lat="47.56807" lon="-2.90052">
        <time>2013-10-26T09:28:08Z</time>
      </trkpt>
      <trkpt lat="47.56807" lon="-2.90043">
        <time>2013-10-26T09:28:10Z</time>
      </trkpt>
      <trkpt lat="47.56808" lon="-2.90034">
        <time>2013-10-26T09:28:14Z</time>
      </trkpt>
      <trkpt lat="47.56809" lon="-2.90024">
        <time>2013-10-26T09:28:16Z</time>
      </trkpt>
      <trkpt lat="47.56812" lon="-2.90015">
        <time>2013-10-26T09:28:20Z</time>
      </trkpt>
      <trkpt lat="47.56814" lon="-2.90006">
        <time>2013-10-26T09:28:23Z</time>
      </trkpt>
      <trkpt lat="47.56816" lon="-2.89999">
        <time>2013-10-26T09:28:25Z</time>
      </trkpt>
      <trkpt lat="47.56818" lon="-2.89993">
        <time>2013-10-26T09:28:27Z</time>
      </trkpt>
      <trkpt lat="47.5682" lon="-2.89987">
        <time>2013-10-26T09:28:29Z</time>
      </trkpt>
      <trkpt lat="47.56822" lon="-2.89978">
        <time>2013-10-26T09:28:31Z</time>
      </trkpt>
      <trkpt lat="47.56823" lon="-2.89971">
        <time>2013-10-26T09:28:33Z</time>
      </trkpt>
      <trkpt lat="47.56825" lon="-2.89965">
        <time>2013-10-26T09:28:35Z</time>
      </trkpt>
      <trkpt lat="47.56826" lon="-2.89958">
        <time>2013-10-26T09:28:37Z</time>
      </trkpt>
      <trkpt lat="47.56828" lon="-2.89949">
        <time>2013-10-26T09:28:41Z</time>
      </trkpt>
      <trkpt lat="47.56828" lon="-2.89941">
        <time>2013-10-26T09:28:44Z</time>
      </trkpt>
      <trkpt lat="47.5683" lon="-2.89932">
        <time>2013-10-26T09:28:47Z</time>
      </trkpt>
      <trkpt lat="47.56834" lon="-2.89925">
        <time>2013-10-26T09:28:50Z</time>
      </trkpt>
      <trkpt lat="47.56839" lon="-2.89919">
        <time>2013-10-26T09:28:53Z</time>
      </trkpt>
      <trkpt lat="47.56843" lon="-2.89912">
        <time>2013-10-26T09:28:56Z</time>
      </trkpt>
      <trkpt lat="47.56846" lon="-2.89905">
        <time>2013-10-26T09:28:59Z</time>
      </trkpt>
      <trkpt lat="47.56848" lon="-2.89897">
        <time>2013-10-26T09:29:02Z</time>
      </trkpt>
      <trkpt lat="47.5685" lon="-2.89891">
        <time>2013-10-26T09:29:07Z</time>
      </trkpt>
      <trkpt lat="47.56854" lon="-2.89886">
        <time>2013-10-26T09:29:10Z</time>
      </trkpt>
      <trkpt lat="47.56858" lon="-2.89882">
        <time>2013-10-26T09:29:13Z</time>
      </trkpt>
      <trkpt lat="47.56863" lon="-2.89877">
        <time>2013-10-26T09:29:15Z</time>
      </trkpt>
      <trkpt lat="47.56869" lon="-2.89872">
        <time>2013-10-26T09:29:18Z</time>
      </trkpt>
      <trkpt lat="47.56874" lon="-2.89868">
        <time>2013-10-26T09:29:21Z</time>
      </trkpt>
      <trkpt lat="47.5688" lon="-2.89865">
        <time>2013-10-26T09:29:25Z</time>
      </trkpt>
      <trkpt lat="47.56885" lon="-2.89864">
        <time>2013-10-26T09:29:27Z</time>
      </trkpt>
      <trkpt lat="47.5689" lon="-2.89862">
        <time>2013-10-26T09:29:33Z</time>
      </trkpt>
      <trkpt lat="47.56895" lon="-2.89858">
        <time>2013-10-26T09:29:37Z</time>
      </trkpt>
      <trkpt lat="47.56899" lon="-2.89853">
        <time>2013-10-26T09:29:40Z</time>
      </trkpt>
      <trkpt lat="47.56902" lon="-2.89847">
        <time>2013-10-26T09:29:44Z</time>
      </trkpt>
      <trkpt lat="47.56904" lon="-2.8984">
        <time>2013-10-26T09:29:47Z</time>
      </trkpt>
      <trkpt lat="47.56905" lon="-2.89833">
        <time>2013-10-26T09:29:50Z</time>
      </trkpt>
      <trkpt lat="47.56906" lon="-2.89826">
        <time>2013-10-26T09:29:54Z</time>
      </trkpt>
      <trkpt lat="47.56908" lon="-2.89818">
        <time>2013-10-26T09:29:58Z</time>
      </trkpt>
      <trkpt lat="47.56911" lon="-2.89811">
        <time>2013-10-26T09:30:01Z</time>
      </trkpt>
      <trkpt lat="47.56913" lon="-2.89803">
        <time>2013-10-26T09:30:03Z</time>
      </trkpt>
      <trkpt lat="47.56914" lon="-2.89795">
        <time>2013-10-26T09:30:07Z</time>
      </trkpt>
      <trkpt lat="47.56916" lon="-2.89786">
        <time>2013-10-26T09:30:10Z</time>
      </trkpt>
      <trkpt lat="47.56919" lon="-2.89779">
        <time>2013-10-26T09:30:12Z</time>
      </trkpt>
      <trkpt lat="47.56921" lon="-2.89772">
        <time>2013-10-26T09:30:16Z</time>
      </trkpt>
      <trkpt lat="47.56924" lon="-2.89765">
        <time>2013-10-26T09:30:20Z</time>
      </trkpt>
      <trkpt lat="47.56925" lon="-2.89758">
        <time>2013-10-26T09:30:25Z</time>
      </trkpt>
      <trkpt lat="47.56927" lon="-2.89752">
        <time>2013-10-26T09:30:30Z</time>
      </trkpt>
      <trkpt lat="47.56929" lon="-2.89745">
        <time>2013-10-26T09:30:33Z</time>
      </trkpt>
      <trkpt lat="47.56932" lon="-2.89735">
        <time>2013-10-26T09:30:35Z</time>
      </trkpt>
      <trkpt lat="47.56933" lon="-2.89728">
        <time>2013-10-26T09:30:38Z</time>
      </trkpt>
      <trkpt lat="47.56935" lon="-2.89721">
        <time>2013-10-26T09:30:40Z</time>
      </trkpt>
      <trkpt lat="47.56937" lon="-2.89713">
        <time>2013-10-26T09:30:42Z</time>
      </trkpt>
      <trkpt lat="47.56939" lon="-2.89706">
        <time>2013-10-26T09:30:44Z</time>
      </trkpt>
      <trkpt lat="47.56942" lon="-2.897">
        <time>2013-10-26T09:30:46Z</time>
      </trkpt>
      <trkpt lat="47.56944" lon="-2.89693">
        <time>2013-10-26T09:30:48Z</time>
      </trkpt>
      <trkpt lat="47.56946" lon="-2.89687">
        <time>2013-10-26T09:30:50Z</time>
      </trkpt>
      <trkpt lat="47.56948" lon="-2.89681">
        <time>2013-10-26T09:30:52Z</time>
      </trkpt>
      <trkpt lat="47.56952" lon="-2.89673">
        <time>2013-10-26T09:30:54Z</time>
      </trkpt>
      <trkpt lat="47.56955" lon="-2.89664">
        <time>2013-10-26T09:30:57Z</time>
      </trkpt>
      <trkpt lat="47.56958" lon="-2.89656">
        <time>2013-10-26T09:31:00Z</time>
      </trkpt>
      <trkpt lat="47.56961" lon="-2.89647">
        <time>2013-10-26T09:31:03Z</time>
      </trkpt>
      <trkpt lat="47.56965" lon="-2.89639">
        <time>2013-10-26T09:31:07Z</time>
      </trkpt>
      <trkpt lat="47.56967" lon="-2.89632">
        <time>2013-10-26T09:31:10Z</time>
      </trkpt>
      <trkpt lat="47.56968" lon="-2.89623">
        <time>2013-10-26T09:31:13Z</time>
      </trkpt>
      <trkpt lat="47.56971" lon="-2.89615">
        <time>2013-10-26T09:31:15Z</time>
      </trkpt>
      <trkpt lat="47.56974" lon="-2.89608">
        <time>2013-10-26T09:31:19Z</time>
      </trkpt>
      <trkpt lat="47.56976" lon="-2.89601">
        <time>2013-10-26T09:31:21Z</time>
      </trkpt>
      <trkpt lat="47.56979" lon="-2.89593">
        <time>2013-10-26T09:31:25Z</time>
      </trkpt>
      <trkpt lat="47.56983" lon="-2.89586">
        <time>2013-10-26T09:31:28Z</time>
      </trkpt>
      <trkpt lat="47.56986" lon="-2.89578">
        <time>2013-10-26T09:31:30Z</time>
      </trkpt>
      <trkpt lat="47.56989" lon="-2.89571">
        <time>2013-10-26T09:31:34Z</time>
      </trkpt>
      <trkpt lat="47.56991" lon="-2.89565">
        <time>2013-10-26T09:31:36Z</time>
      </trkpt>
      <trkpt lat="47.56994" lon="-2.89559">
        <time>2013-10-26T09:31:38Z</time>
      </trkpt>
      <trkpt lat="47.56996" lon="-2.89553">
        <time>2013-10-26T09:31:40Z</time>
      </trkpt>
      <trkpt lat="47.56998" lon="-2.89547">
        <time>2013-10-26T09:31:41Z</time>
      </trkpt>
      <trkpt lat="47.57" lon="-2.8954">
        <time>2013-10-26T09:31:43Z</time>
      </trkpt>
      <trkpt lat="47.57002" lon="-2.89534">
        <time>2013-10-26T09:31:45Z</time>
      </trkpt>
      <trkpt lat="47.57004" lon="-2.89527">
        <time>2013-10-26T09:31:48Z</time>
      </trkpt>
      <trkpt lat="47.57006" lon="-2.89518">
        <time>2013-10-26T09:31:51Z</time>
      </trkpt>
      <trkpt lat="47.57005" lon="-2.89511">
        <time>2013-10-26T09:31:54Z</time>
      </trkpt>
      <trkpt lat="47.57005" lon="-2.89503">
        <time>2013-10-26T09:31:57Z</time>
      </trkpt>
      <trkpt lat="47.57008" lon="-2.89497">
        <time>2013-10-26T09:32:00Z</time>
      </trkpt>
      <trkpt lat="47.57011" lon="-2.89492">
        <time>2013-10-26T09:32:04Z</time>
      </trkpt>
      <trkpt lat="47.57014" lon="-2.89486">
        <time>2013-10-26T09:32:07Z</time>
      </trkpt>
      <trkpt lat="47.57016" lon="-2.89478">
        <time>2013-10-26T09:32:10Z</time>
      </trkpt>
      <trkpt lat="47.57018" lon="-2.89471">
        <time>2013-10-26T09:32:16Z</time>
      </trkpt>
      <trkpt lat="47.57022" lon="-2.89465">
        <time>2013-10-26T09:32:21Z</time>
      </trkpt>
      <trkpt lat="47.57026" lon="-2.8946">
        <time>2013-10-26T09:32:23Z</time>
      </trkpt>
      <trkpt lat="47.57029" lon="-2.89453">
        <time>2013-10-26T09:32:26Z</time>
      </trkpt>
      <trkpt lat="47.57032" lon="-2.89446">
        <time>2013-10-26T09:32:30Z</time>
      </trkpt>
      <trkpt lat="47.57034" lon="-2.89438">
        <time>2013-10-26T09:32:33Z</time>
      </trkpt>
      <trkpt lat="47.57037" lon="-2.89429">
        <time>2013-10-26T09:32:36Z</time>
      </trkpt>
      <trkpt lat="47.57038" lon="-2.89421">
        <time>2013-10-26T09:32:39Z</time>
      </trkpt>
      <trkpt lat="47.57038" lon="-2.89413">
        <time>2013-10-26T09:32:42Z</time>
      </trkpt>
      <trkpt lat="47.57037" lon="-2.89405">
        <time>2013-10-26T09:32:45Z</time>
      </trkpt>
      <trkpt lat="47.57037" lon="-2.89396">
        <time>2013-10-26T09:32:47Z</time>
      </trkpt>
      <trkpt lat="47.57036" lon="-2.89389">
        <time>2013-10-26T09:32:50Z</time>
      </trkpt>
      <trkpt lat="47.57036" lon="-2.89382">
        <time>2013-10-26T09:32:53Z</time>
      </trkpt>
      <trkpt lat="47.57036" lon="-2.89374">
        <time>2013-10-26T09:32:57Z</time>
      </trkpt>
      <trkpt lat="47.57037" lon="-2.89367">
        <time>2013-10-26T09:33:00Z</time>
      </trkpt>
      <trkpt lat="47.57039" lon="-2.89359">
        <time>2013-10-26T09:33:03Z</time>
      </trkpt>
      <trkpt lat="47.57039" lon="-2.89351">
        <time>2013-10-26T09:33:06Z</time>
      </trkpt>
      <trkpt lat="47.57038" lon="-2.89344">
        <time>2013-10-26T09:33:08Z</time>
      </trkpt>
      <trkpt lat="47.57038" lon="-2.89335">
        <time>2013-10-26T09:33:13Z</time>
      </trkpt>
      <trkpt lat="47.5704" lon="-2.89328">
        <time>2013-10-26T09:33:15Z</time>
      </trkpt>
      <trkpt lat="47.57042" lon="-2.89319">
        <time>2013-10-26T09:33:19Z</time>
      </trkpt>
      <trkpt lat="47.57044" lon="-2.8931">
        <time>2013-10-26T09:33:22Z</time>
      </trkpt>
      <trkpt lat="47.57045" lon="-2.89301">
        <time>2013-10-26T09:33:25Z</time>
      </trkpt>
      <trkpt lat="47.57048" lon="-2.89292">
        <time>2013-10-26T09:33:28Z</time>
      </trkpt>
      <trkpt lat="47.5705" lon="-2.89286">
        <time>2013-10-26T09:33:30Z</time>
      </trkpt>
      <trkpt lat="47.57052" lon="-2.89279">
        <time>2013-10-26T09:33:32Z</time>
      </trkpt>
      <trkpt lat="47.57054" lon="-2.89273">
        <time>2013-10-26T09:33:34Z</time>
      </trkpt>
      <trkpt lat="47.57057" lon="-2.89265">
        <time>2013-10-26T09:33:37Z</time>
      </trkpt>
      <trkpt lat="47.5706" lon="-2.89259">
        <time>2013-10-26T09:33:39Z</time>
      </trkpt>
      <trkpt lat="47.57062" lon="-2.89252">
        <time>2013-10-26T09:33:41Z</time>
      </trkpt>
      <trkpt lat="47.57063" lon="-2.89243">
        <time>2013-10-26T09:33:44Z</time>
      </trkpt>
      <trkpt lat="47.57063" lon="-2.89234">
        <time>2013-10-26T09:33:46Z</time>
      </trkpt>
      <trkpt lat="47.57062" lon="-2.89225">
        <time>2013-10-26T09:33:50Z</time>
      </trkpt>
      <trkpt lat="47.57062" lon="-2.89217">
        <time>2013-10-26T09:33:53Z</time>
      </trkpt>
      <trkpt lat="47.57063" lon="-2.89208">
        <time>2013-10-26T09:33:55Z</time>
      </trkpt>
      <trkpt lat="47.57063" lon="-2.892">
        <time>2013-10-26T09:33:59Z</time>
      </trkpt>
      <trkpt lat="47.57064" lon="-2.89191">
        <time>2013-10-26T09:34:02Z</time>
      </trkpt>
      <trkpt lat="47.57066" lon="-2.89183">
        <time>2013-10-26T09:34:05Z</time>
      </trkpt>
      <trkpt lat="47.57068" lon="-2.89175">
        <time>2013-10-26T09:34:08Z</time>
      </trkpt>
      <trkpt lat="47.5707" lon="-2.89167">
        <time>2013-10-26T09:34:11Z</time>
      </trkpt>
      <trkpt lat="47.57073" lon="-2.89159">
        <time>2013-10-26T09:34:14Z</time>
      </trkpt>
      <trkpt lat="47.57074" lon="-2.89151">
        <time>2013-10-26T09:34:17Z</time>
      </trkpt>
      <trkpt lat="47.57074" lon="-2.89143">
        <time>2013-10-26T09:34:19Z</time>
      </trkpt>
      <trkpt lat="47.57073" lon="-2.89135">
        <time>2013-10-26T09:34:23Z</time>
      </trkpt>
      <trkpt lat="47.57074" lon="-2.89127">
        <time>2013-10-26T09:34:25Z</time>
      </trkpt>
      <trkpt lat="47.57075" lon="-2.89121">
        <time>2013-10-26T09:34:29Z</time>
      </trkpt>
      <trkpt lat="47.57077" lon="-2.89115">
        <time>2013-10-26T09:34:31Z</time>
      </trkpt>
      <trkpt lat="47.57081" lon="-2.89109">
        <time>2013-10-26T09:34:35Z</time>
      </trkpt>
      <trkpt lat="47.57085" lon="-2.89104">
        <time>2013-10-26T09:34:38Z</time>
      </trkpt>
      <trkpt lat="47.57089" lon="-2.891">
        <time>2013-10-26T09:34:40Z</time>
      </trkpt>
      <trkpt lat="47.57094" lon="-2.89095">
        <time>2013-10-26T09:34:42Z</time>
      </trkpt>
      <trkpt lat="47.57098" lon="-2.8909">
        <time>2013-10-26T09:34:44Z</time>
      </trkpt>
      <trkpt lat="47.57102" lon="-2.89085">
        <time>2013-10-26T09:34:46Z</time>
      </trkpt>
      <trkpt lat="47.57106" lon="-2.8908">
        <time>2013-10-26T09:34:48Z</time>
      </trkpt>
      <trkpt lat="47.57109" lon="-2.89073">
        <time>2013-10-26T09:34:51Z</time>
      </trkpt>
      <trkpt lat="47.57114" lon="-2.89065">
        <time>2013-10-26T09:34:54Z</time>
      </trkpt>
      <trkpt lat="47.57116" lon="-2.89059">
        <time>2013-10-26T09:34:56Z</time>
      </trkpt>
      <trkpt lat="47.57119" lon="-2.89051">
        <time>2013-10-26T09:34:59Z</time>
      </trkpt>
      <trkpt lat="47.57122" lon="-2.89043">
        <time>2013-10-26T09:35:02Z</time>
      </trkpt>
      <trkpt lat="47.57125" lon="-2.89035">
        <time>2013-10-26T09:35:05Z</time>
      </trkpt>
      <trkpt lat="47.57129" lon="-2.89027">
        <time>2013-10-26T09:35:08Z</time>
      </trkpt>
      <trkpt lat="47.57131" lon="-2.8902">
        <time>2013-10-26T09:35:11Z</time>
      </trkpt>
      <trkpt lat="47.57134" lon="-2.89013">
        <time>2013-10-26T09:35:14Z</time>
      </trkpt>
      <trkpt lat="47.57137" lon="-2.89005">
        <time>2013-10-26T09:35:17Z</time>
      </trkpt>
      <trkpt lat="47.5714" lon="-2.88997">
        <time>2013-10-26T09:35:20Z</time>
      </trkpt>
      <trkpt lat="47.57142" lon="-2.8899">
        <time>2013-10-26T09:35:23Z</time>
      </trkpt>
      <trkpt lat="47.57143" lon="-2.88983">
        <time>2013-10-26T09:35:26Z</time>
      </trkpt>
      <trkpt lat="47.57146" lon="-2.88977">
        <time>2013-10-26T09:35:29Z</time>
      </trkpt>
      <trkpt lat="47.57149" lon="-2.8897">
        <time>2013-10-26T09:35:33Z</time>
      </trkpt>
      <trkpt lat="47.57153" lon="-2.88963">
        <time>2013-10-26T09:35:37Z</time>
      </trkpt>
      <trkpt lat="47.57156" lon="-2.88957">
        <time>2013-10-26T09:35:40Z</time>
      </trkpt>
      <trkpt lat="47.57158" lon="-2.88952">
        <time>2013-10-26T09:35:43Z</time>
      </trkpt>
      <trkpt lat="47.5716" lon="-2.88945">
        <time>2013-10-26T09:35:46Z</time>
      </trkpt>
      <trkpt lat="47.57163" lon="-2.88939">
        <time>2013-10-26T09:35:49Z</time>
      </trkpt>
      <trkpt lat="47.57165" lon="-2.88931">
        <time>2013-10-26T09:35:52Z</time>
      </trkpt>
      <trkpt lat="47.57168" lon="-2.88924">
        <time>2013-10-26T09:35:57Z</time>
      </trkpt>
      <trkpt lat="47.57171" lon="-2.88919">
        <time>2013-10-26T09:36:00Z</time>
      </trkpt>
      <trkpt lat="47.57175" lon="-2.88914">
        <time>2013-10-26T09:36:02Z</time>
      </trkpt>
      <trkpt lat="47.57179" lon="-2.88908">
        <time>2013-10-26T09:36:06Z</time>
      </trkpt>
      <trkpt lat="47.57182" lon="-2.88901">
        <time>2013-10-26T09:36:09Z</time>
      </trkpt>
      <trkpt lat="47.57186" lon="-2.88895">
        <time>2013-10-26T09:36:12Z</time>
      </trkpt>
      <trkpt lat="47.57187" lon="-2.88888">
        <time>2013-10-26T09:36:16Z</time>
      </trkpt>
      <trkpt lat="47.57189" lon="-2.88881">
        <time>2013-10-26T09:36:22Z</time>
      </trkpt>
      <trkpt lat="47.57191" lon="-2.88874">
        <time>2013-10-26T09:36:28Z</time>
      </trkpt>
      <trkpt lat="47.5719" lon="-2.88868">
        <time>2013-10-26T09:36:38Z</time>
      </trkpt>
      <trkpt lat="47.57192" lon="-2.88861">
        <time>2013-10-26T09:36:46Z</time>
      </trkpt>
      <trkpt lat="47.57195" lon="-2.88854">
        <time>2013-10-26T09:36:55Z</time>
      </trkpt>
      <trkpt lat="47.57197" lon="-2.88848">
        <time>2013-10-26T09:37:03Z</time>
      </trkpt>
      <trkpt lat="47.57193" lon="-2.88837">
        <ele>6</ele>
        <time>2013-10-26T09:37:30Z</time>
      </trkpt>
      <trkpt lat="47.57197" lon="-2.88824">
        <ele>9</ele>
        <time>2013-10-26T09:37:42Z</time>
      </trkpt>
      <trkpt lat="47.572" lon="-2.88817">
        <ele>9</ele>
        <time>2013-10-26T09:37:48Z</time>
      </trkpt>
      <trkpt lat="47.57203" lon="-2.88813">
        <ele>9</ele>
        <time>2013-10-26T09:37:56Z</time>
      </trkpt>
      <trkpt lat="47.57207" lon="-2.8881">
        <ele>9</ele>
        <time>2013-10-26T09:38:43Z</time>
      </trkpt>
      <trkpt lat="47.57212" lon="-2.88808">
        <ele>9</ele>
        <time>2013-10-26T09:39:19Z</time>
      </trkpt>
      <trkpt lat="47.57217" lon="-2.88812">
        <ele>9</ele>
        <time>2013-10-26T09:39:32Z</time>
      </trkpt>
      <trkpt lat="47.57221" lon="-2.88817">
        <ele>9</ele>
        <time>2013-10-26T09:39:35Z</time>
      </trkpt>
      <trkpt lat="47.57225" lon="-2.88822">
        <ele>9</ele>
        <time>2013-10-26T09:39:38Z</time>
      </trkpt>
      <trkpt lat="47.57229" lon="-2.88828">
        <ele>9</ele>
        <time>2013-10-26T09:39:41Z</time>
      </trkpt>
      <trkpt lat="47.57235" lon="-2.88833">
        <ele>9</ele>
        <time>2013-10-26T09:39:44Z</time>
      </trkpt>
      <trkpt lat="47.57239" lon="-2.88838">
        <time>2013-10-26T09:39:47Z</time>
      </trkpt>
      <trkpt lat="47.57243" lon="-2.88843">
        <time>2013-10-26T09:39:51Z</time>
      </trkpt>
      <trkpt lat="47.57246" lon="-2.88848">
        <time>2013-10-26T09:39:55Z</time>
      </trkpt>
      <trkpt lat="47.57249" lon="-2.88854">
        <time>2013-10-26T09:39:59Z</time>
      </trkpt>
      <trkpt lat="47.57252" lon="-2.88861">
        <time>2013-10-26T09:40:02Z</time>
      </trkpt>
      <trkpt lat="47.57253" lon="-2.8887">
        <time>2013-10-26T09:40:05Z</time>
      </trkpt>
      <trkpt lat="47.57256" lon="-2.88879">
        <time>2013-10-26T09:40:08Z</time>
      </trkpt>
      <trkpt lat="47.57257" lon="-2.88886">
        <time>2013-10-26T09:40:10Z</time>
      </trkpt>
      <trkpt lat="47.57259" lon="-2.88893">
        <time>2013-10-26T09:40:12Z</time>
      </trkpt>
      <trkpt lat="47.57261" lon="-2.88899">
        <time>2013-10-26T09:40:14Z</time>
      </trkpt>
      <trkpt lat="47.57262" lon="-2.88905">
        <time>2013-10-26T09:40:16Z</time>
      </trkpt>
      <trkpt lat="47.57264" lon="-2.88912">
        <time>2013-10-26T09:40:18Z</time>
      </trkpt>
      <trkpt lat="47.57266" lon="-2.88918">
        <time>2013-10-26T09:40:20Z</time>
      </trkpt>
      <trkpt lat="47.57268" lon="-2.88924">
        <time>2013-10-26T09:40:22Z</time>
      </trkpt>
      <trkpt lat="47.57271" lon="-2.88931">
        <time>2013-10-26T09:40:24Z</time>
      </trkpt>
      <trkpt lat="47.57273" lon="-2.88937">
        <time>2013-10-26T09:40:26Z</time>
      </trkpt>
      <trkpt lat="47.57276" lon="-2.88943">
        <time>2013-10-26T09:40:28Z</time>
      </trkpt>
      <trkpt lat="47.57279" lon="-2.88948">
        <time>2013-10-26T09:40:30Z</time>
      </trkpt>
      <trkpt lat="47.57282" lon="-2.88954">
        <time>2013-10-26T09:40:32Z</time>
      </trkpt>
      <trkpt lat="47.57285" lon="-2.8896">
        <time>2013-10-26T09:40:34Z</time>
      </trkpt>
      <trkpt lat="47.57287" lon="-2.88966">
        <time>2013-10-26T09:40:36Z</time>
      </trkpt>
      <trkpt lat="47.5729" lon="-2.88974">
        <time>2013-10-26T09:40:39Z</time>
      </trkpt>
      <trkpt lat="47.57292" lon="-2.88982">
        <time>2013-10-26T09:40:42Z</time>
      </trkpt>
      <trkpt lat="47.57295" lon="-2.8899">
        <time>2013-10-26T09:40:45Z</time>
      </trkpt>
      <trkpt lat="47.57299" lon="-2.88998">
        <time>2013-10-26T09:40:48Z</time>
      </trkpt>
      <trkpt lat="47.57303" lon="-2.89005">
        <time>2013-10-26T09:40:51Z</time>
      </trkpt>
      <trkpt lat="47.57307" lon="-2.89013">
        <time>2013-10-26T09:40:54Z</time>
      </trkpt>
      <trkpt lat="47.57311" lon="-2.89021">
        <time>2013-10-26T09:40:57Z</time>
      </trkpt>
      <trkpt lat="47.57315" lon="-2.89027">
        <time>2013-10-26T09:41:00Z</time>
      </trkpt>
      <trkpt lat="47.5732" lon="-2.89031">
        <time>2013-10-26T09:41:03Z</time>
      </trkpt>
      <trkpt lat="47.57326" lon="-2.89035">
        <time>2013-10-26T09:41:06Z</time>
      </trkpt>
      <trkpt lat="47.57331" lon="-2.89037">
        <time>2013-10-26T09:41:08Z</time>
      </trkpt>
      <trkpt lat="47.57337" lon="-2.8904">
        <time>2013-10-26T09:41:11Z</time>
      </trkpt>
      <trkpt lat="47.57343" lon="-2.89044">
        <time>2013-10-26T09:41:14Z</time>
      </trkpt>
      <trkpt lat="47.57347" lon="-2.89047">
        <time>2013-10-26T09:41:16Z</time>
      </trkpt>
      <trkpt lat="47.57352" lon="-2.89049">
        <time>2013-10-26T09:41:18Z</time>
      </trkpt>
      <trkpt lat="47.57356" lon="-2.8905">
        <time>2013-10-26T09:41:20Z</time>
      </trkpt>
      <trkpt lat="47.57361" lon="-2.89052">
        <time>2013-10-26T09:41:22Z</time>
      </trkpt>
      <trkpt lat="47.57367" lon="-2.89055">
        <time>2013-10-26T09:41:25Z</time>
      </trkpt>
      <trkpt lat="47.57374" lon="-2.89056">
        <time>2013-10-26T09:41:28Z</time>
      </trkpt>
      <trkpt lat="47.57378" lon="-2.89058">
        <time>2013-10-26T09:41:30Z</time>
      </trkpt>
      <trkpt lat="47.57383" lon="-2.8906">
        <time>2013-10-26T09:41:32Z</time>
      </trkpt>
      <trkpt lat="47.57389" lon="-2.89064">
        <time>2013-10-26T09:41:35Z</time>
      </trkpt>
      <trkpt lat="47.57394" lon="-2.89068">
        <time>2013-10-26T09:41:38Z</time>
      </trkpt>
      <trkpt lat="47.57399" lon="-2.89072">
        <time>2013-10-26T09:41:41Z</time>
      </trkpt>
      <trkpt lat="47.57404" lon="-2.89077">
        <time>2013-10-26T09:41:45Z</time>
      </trkpt>
      <trkpt lat="47.57409" lon="-2.89079">
        <time>2013-10-26T09:41:48Z</time>
      </trkpt>
      <trkpt lat="47.57413" lon="-2.89082">
        <time>2013-10-26T09:41:51Z</time>
      </trkpt>
      <trkpt lat="47.57418" lon="-2.89086">
        <ele>8</ele>
        <time>2013-10-26T09:41:54Z</time>
      </trkpt>
      <trkpt lat="47.57423" lon="-2.8909">
        <ele>8</ele>
        <time>2013-10-26T09:41:57Z</time>
      </trkpt>
      <trkpt lat="47.57428" lon="-2.89095">
        <ele>8</ele>
        <time>2013-10-26T09:42:00Z</time>
      </trkpt>
      <trkpt lat="47.57433" lon="-2.891">
        <ele>8</ele>
        <time>2013-10-26T09:42:03Z</time>
      </trkpt>
      <trkpt lat="47.57437" lon="-2.89106">
        <ele>8</ele>
        <time>2013-10-26T09:42:06Z</time>
      </trkpt>
      <trkpt lat="47.57441" lon="-2.89112">
        <ele>8</ele>
        <time>2013-10-26T09:42:09Z</time>
      </trkpt>
      <trkpt lat="47.57447" lon="-2.89117">
        <ele>8</ele>
        <time>2013-10-26T09:42:12Z</time>
      </trkpt>
      <trkpt lat="47.57452" lon="-2.89121">
        <ele>8</ele>
        <time>2013-10-26T09:42:15Z</time>
      </trkpt>
      <trkpt lat="47.57457" lon="-2.89126">
        <ele>8</ele>
        <time>2013-10-26T09:42:18Z</time>
      </trkpt>
      <trkpt lat="47.57464" lon="-2.89129">
        <ele>8</ele>
        <time>2013-10-26T09:42:21Z</time>
      </trkpt>
      <trkpt lat="47.5747" lon="-2.89132">
        <ele>8</ele>
        <time>2013-10-26T09:42:24Z</time>
      </trkpt>
      <trkpt lat="47.57475" lon="-2.89135">
        <ele>8</ele>
        <time>2013-10-26T09:42:27Z</time>
      </trkpt>
      <trkpt lat="47.57479" lon="-2.89139">
        <ele>8</ele>
        <time>2013-10-26T09:42:31Z</time>
      </trkpt>
      <trkpt lat="47.57484" lon="-2.8914">
        <ele>8</ele>
        <time>2013-10-26T09:42:36Z</time>
      </trkpt>
      <trkpt lat="47.57489" lon="-2.89142">
        <ele>8</ele>
        <time>2013-10-26T09:42:43Z</time>
      </trkpt>
      <trkpt lat="47.57493" lon="-2.89145">
        <ele>8</ele>
        <time>2013-10-26T09:42:48Z</time>
      </trkpt>
      <trkpt lat="47.57497" lon="-2.8915">
        <ele>8</ele>
        <time>2013-10-26T09:42:53Z</time>
      </trkpt>
      <trkpt lat="47.57496" lon="-2.89143">
        <ele>8</ele>
        <time>2013-10-26T09:43:31Z</time>
      </trkpt>
      <trkpt lat="47.57492" lon="-2.89139">
        <ele>8</ele>
        <time>2013-10-26T09:43:35Z</time>
      </trkpt>
      <trkpt lat="47.57488" lon="-2.89135">
        <ele>8</ele>
        <time>2013-10-26T09:43:39Z</time>
      </trkpt>
      <trkpt lat="47.57484" lon="-2.8913">
        <ele>8</ele>
        <time>2013-10-26T09:43:43Z</time>
      </trkpt>
      <trkpt lat="47.5748" lon="-2.89124">
        <ele>8</ele>
        <time>2013-10-26T09:43:47Z</time>
      </trkpt>
      <trkpt lat="47.57472" lon="-2.89114">
        <ele>8</ele>
        <time>2013-10-26T09:44:10Z</time>
      </trkpt>
      <trkpt lat="47.57467" lon="-2.8911">
        <ele>8</ele>
        <time>2013-10-26T09:44:16Z</time>
      </trkpt>
      <trkpt lat="47.57467" lon="-2.89117">
        <ele>8</ele>
        <time>2013-10-26T09:44:29Z</time>
      </trkpt>
      <trkpt lat="47.5747" lon="-2.89122">
        <ele>8</ele>
        <time>2013-10-26T09:45:34Z</time>
      </trkpt>
      <trkpt lat="47.57475" lon="-2.89121">
        <ele>8</ele>
        <time>2013-10-26T09:46:16Z</time>
      </trkpt>
      <trkpt lat="47.57479" lon="-2.89121">
        <ele>8</ele>
        <time>2013-10-26T09:47:17Z</time>
      </trkpt>
      <trkpt lat="47.57484" lon="-2.89124">
        <ele>8</ele>
        <time>2013-10-26T09:47:24Z</time>
      </trkpt>
      <trkpt lat="47.57488" lon="-2.89126">
        <ele>8</ele>
        <time>2013-10-26T09:47:32Z</time>
      </trkpt>
      <trkpt lat="47.57491" lon="-2.89133">
        <ele>8</ele>
        <time>2013-10-26T09:47:36Z</time>
      </trkpt>
      <trkpt lat="47.57493" lon="-2.89139">
        <ele>8</ele>
        <time>2013-10-26T09:47:39Z</time>
      </trkpt>
      <trkpt lat="47.57496" lon="-2.89145">
        <ele>8</ele>
        <time>2013-10-26T09:47:42Z</time>
      </trkpt>
      <trkpt lat="47.57501" lon="-2.8915">
        <ele>8</ele>
        <time>2013-10-26T09:47:46Z</time>
      </trkpt>
      <trkpt lat="47.57505" lon="-2.89154">
        <ele>8</ele>
        <time>2013-10-26T09:47:49Z</time>
      </trkpt>
      <trkpt lat="47.5751" lon="-2.89159">
        <ele>8</ele>
        <time>2013-10-26T09:47:52Z</time>
      </trkpt>
      <trkpt lat="47.57515" lon="-2.89163">
        <ele>8</ele>
        <time>2013-10-26T09:47:55Z</time>
      </trkpt>
      <trkpt lat="47.57522" lon="-2.89166">
        <ele>8</ele>
        <time>2013-10-26T09:47:58Z</time>
      </trkpt>
      <trkpt lat="47.57526" lon="-2.89168">
        <ele>4</ele>
        <time>2013-10-26T09:48:00Z</time>
      </trkpt>
      <trkpt lat="47.57533" lon="-2.89169">
        <ele>4</ele>
        <time>2013-10-26T09:48:03Z</time>
      </trkpt>
      <trkpt lat="47.57539" lon="-2.89172">
        <ele>4</ele>
        <time>2013-10-26T09:48:06Z</time>
      </trkpt>
      <trkpt lat="47.57545" lon="-2.89175">
        <ele>4</ele>
        <time>2013-10-26T09:48:09Z</time>
      </trkpt>
      <trkpt lat="47.57552" lon="-2.89177">
        <ele>4</ele>
        <time>2013-10-26T09:48:12Z</time>
      </trkpt>
      <trkpt lat="47.57557" lon="-2.89177">
        <ele>4</ele>
        <time>2013-10-26T09:48:14Z</time>
      </trkpt>
      <trkpt lat="47.57563" lon="-2.89178">
        <ele>4</ele>
        <time>2013-10-26T09:48:17Z</time>
      </trkpt>
      <trkpt lat="47.5757" lon="-2.8918">
        <ele>4</ele>
        <time>2013-10-26T09:48:20Z</time>
      </trkpt>
      <trkpt lat="47.57575" lon="-2.89182">
        <ele>4</ele>
        <time>2013-10-26T09:48:22Z</time>
      </trkpt>
      <trkpt lat="47.57579" lon="-2.89184">
        <ele>4</ele>
        <time>2013-10-26T09:48:24Z</time>
      </trkpt>
      <trkpt lat="47.57583" lon="-2.89186">
        <ele>4</ele>
        <time>2013-10-26T09:48:26Z</time>
      </trkpt>
      <trkpt lat="47.57589" lon="-2.89188">
        <ele>4</ele>
        <time>2013-10-26T09:48:28Z</time>
      </trkpt>
      <trkpt lat="47.57594" lon="-2.8919">
        <ele>4</ele>
        <time>2013-10-26T09:48:30Z</time>
      </trkpt>
      <trkpt lat="47.57599" lon="-2.89191">
        <ele>4</ele>
        <time>2013-10-26T09:48:32Z</time>
      </trkpt>
      <trkpt lat="47.57603" lon="-2.89193">
        <ele>4</ele>
        <time>2013-10-26T09:48:34Z</time>
      </trkpt>
      <trkpt lat="47.57609" lon="-2.89197">
        <ele>4</ele>
        <time>2013-10-26T09:48:37Z</time>
      </trkpt>
      <trkpt lat="47.57615" lon="-2.892">
        <ele>4</ele>
        <time>2013-10-26T09:48:40Z</time>
      </trkpt>
      <trkpt lat="47.57621" lon="-2.89203">
        <ele>4</ele>
        <time>2013-10-26T09:48:43Z</time>
      </trkpt>
      <trkpt lat="47.57626" lon="-2.89205">
        <ele>5</ele>
        <time>2013-10-26T09:48:46Z</time>
      </trkpt>
      <trkpt lat="47.57632" lon="-2.89207">
        <ele>5</ele>
        <time>2013-10-26T09:48:49Z</time>
      </trkpt>
      <trkpt lat="47.57638" lon="-2.89208">
        <ele>5</ele>
        <time>2013-10-26T09:48:52Z</time>
      </trkpt>
      <trkpt lat="47.57644" lon="-2.89209">
        <ele>5</ele>
        <time>2013-10-26T09:48:55Z</time>
      </trkpt>
      <trkpt lat="47.5765" lon="-2.89212">
        <ele>5</ele>
        <time>2013-10-26T09:48:58Z</time>
      </trkpt>
      <trkpt lat="47.57656" lon="-2.89214">
        <ele>5</ele>
        <time>2013-10-26T09:49:01Z</time>
      </trkpt>
      <trkpt lat="47.57663" lon="-2.89216">
        <ele>5</ele>
        <time>2013-10-26T09:49:04Z</time>
      </trkpt>
      <trkpt lat="47.57669" lon="-2.89218">
        <ele>5</ele>
        <time>2013-10-26T09:49:07Z</time>
      </trkpt>
      <trkpt lat="47.57674" lon="-2.89221">
        <ele>5</ele>
        <time>2013-10-26T09:49:10Z</time>
      </trkpt>
      <trkpt lat="47.57681" lon="-2.89223">
        <ele>5</ele>
        <time>2013-10-26T09:49:13Z</time>
      </trkpt>
      <trkpt lat="47.57687" lon="-2.89225">
        <ele>5</ele>
        <time>2013-10-26T09:49:16Z</time>
      </trkpt>
      <trkpt lat="47.57693" lon="-2.89227">
        <ele>5</ele>
        <time>2013-10-26T09:49:19Z</time>
      </trkpt>
      <trkpt lat="47.57699" lon="-2.89229">
        <ele>5</ele>
        <time>2013-10-26T09:49:22Z</time>
      </trkpt>
      <trkpt lat="47.57704" lon="-2.8923">
        <ele>5</ele>
        <time>2013-10-26T09:49:24Z</time>
      </trkpt>
      <trkpt lat="47.5771" lon="-2.89233">
        <ele>5</ele>
        <time>2013-10-26T09:49:27Z</time>
      </trkpt>
      <trkpt lat="47.57716" lon="-2.89236">
        <ele>5</ele>
        <time>2013-10-26T09:49:30Z</time>
      </trkpt>
      <trkpt lat="47.57722" lon="-2.89238">
        <ele>5</ele>
        <time>2013-10-26T09:49:33Z</time>
      </trkpt>
      <trkpt lat="47.57727" lon="-2.89239">
        <ele>5</ele>
        <time>2013-10-26T09:49:36Z</time>
      </trkpt>
      <trkpt lat="47.57732" lon="-2.89238">
        <ele>5</ele>
        <time>2013-10-26T09:49:39Z</time>
      </trkpt>
      <trkpt lat="47.57738" lon="-2.89237">
        <ele>5</ele>
        <time>2013-10-26T09:49:42Z</time>
      </trkpt>
      <trkpt lat="47.57743" lon="-2.89237">
        <ele>5</ele>
        <time>2013-10-26T09:49:45Z</time>
      </trkpt>
      <trkpt lat="47.57748" lon="-2.89239">
        <ele>5</ele>
        <time>2013-10-26T09:49:48Z</time>
      </trkpt>
      <trkpt lat="47.57753" lon="-2.89241">
        <time>2013-10-26T09:49:51Z</time>
      </trkpt>
      <trkpt lat="47.57758" lon="-2.89243">
        <time>2013-10-26T09:49:54Z</time>
      </trkpt>
      <trkpt lat="47.57763" lon="-2.89245">
        <time>2013-10-26T09:49:57Z</time>
      </trkpt>
      <trkpt lat="47.57768" lon="-2.89248">
        <time>2013-10-26T09:50:00Z</time>
      </trkpt>
      <trkpt lat="47.57773" lon="-2.89251">
        <time>2013-10-26T09:50:03Z</time>
      </trkpt>
      <trkpt lat="47.57778" lon="-2.89253">
        <time>2013-10-26T09:50:06Z</time>
      </trkpt>
      <trkpt lat="47.57783" lon="-2.89255">
        <time>2013-10-26T09:50:09Z</time>
      </trkpt>
      <trkpt lat="47.57788" lon="-2.89258">
        <time>2013-10-26T09:50:12Z</time>
      </trkpt>
      <trkpt lat="47.57793" lon="-2.89261">
        <time>2013-10-26T09:50:15Z</time>
      </trkpt>
      <trkpt lat="47.57798" lon="-2.89264">
        <time>2013-10-26T09:50:18Z</time>
      </trkpt>
      <trkpt lat="47.57804" lon="-2.89267">
        <time>2013-10-26T09:50:21Z</time>
      </trkpt>
      <trkpt lat="47.57809" lon="-2.89269">
        <time>2013-10-26T09:50:24Z</time>
      </trkpt>
      <trkpt lat="47.57815" lon="-2.89271">
        <time>2013-10-26T09:50:27Z</time>
      </trkpt>
      <trkpt lat="47.5782" lon="-2.89273">
        <time>2013-10-26T09:50:30Z</time>
      </trkpt>
      <trkpt lat="47.57826" lon="-2.89276">
        <time>2013-10-26T09:50:33Z</time>
      </trkpt>
      <trkpt lat="47.57832" lon="-2.89277">
        <time>2013-10-26T09:50:36Z</time>
      </trkpt>
      <trkpt lat="47.57838" lon="-2.89279">
        <time>2013-10-26T09:50:39Z</time>
      </trkpt>
      <trkpt lat="47.57844" lon="-2.8928">
        <time>2013-10-26T09:50:42Z</time>
      </trkpt>
      <trkpt lat="47.57849" lon="-2.89281">
        <time>2013-10-26T09:50:45Z</time>
      </trkpt>
      <trkpt lat="47.57854" lon="-2.89284">
        <time>2013-10-26T09:50:48Z</time>
      </trkpt>
      <trkpt lat="47.5786" lon="-2.89285">
        <time>2013-10-26T09:50:51Z</time>
      </trkpt>
      <trkpt lat="47.57865" lon="-2.89286">
        <time>2013-10-26T09:50:54Z</time>
      </trkpt>
      <trkpt lat="47.57871" lon="-2.89287">
        <time>2013-10-26T09:50:57Z</time>
      </trkpt>
      <trkpt lat="47.57877" lon="-2.89288">
        <time>2013-10-26T09:51:00Z</time>
      </trkpt>
      <trkpt lat="47.57882" lon="-2.89289">
        <time>2013-10-26T09:51:03Z</time>
      </trkpt>
      <trkpt lat="47.57887" lon="-2.89291">
        <time>2013-10-26T09:51:06Z</time>
      </trkpt>
      <trkpt lat="47.57893" lon="-2.89293">
        <time>2013-10-26T09:51:09Z</time>
      </trkpt>
      <trkpt lat="47.57898" lon="-2.89296">
        <time>2013-10-26T09:51:12Z</time>
      </trkpt>
      <trkpt lat="47.57904" lon="-2.89299">
        <time>2013-10-26T09:51:15Z</time>
      </trkpt>
      <trkpt lat="47.57909" lon="-2.89303">
        <time>2013-10-26T09:51:18Z</time>
      </trkpt>
      <trkpt lat="47.57914" lon="-2.89307">
        <time>2013-10-26T09:51:21Z</time>
      </trkpt>
      <trkpt lat="47.57919" lon="-2.8931">
        <time>2013-10-26T09:51:24Z</time>
      </trkpt>
      <trkpt lat="47.57924" lon="-2.89313">
        <time>2013-10-26T09:51:27Z</time>
      </trkpt>
      <trkpt lat="47.57928" lon="-2.89315">
        <time>2013-10-26T09:51:30Z</time>
      </trkpt>
      <trkpt lat="47.57933" lon="-2.89318">
        <time>2013-10-26T09:51:33Z</time>
      </trkpt>
      <trkpt lat="47.57937" lon="-2.89321">
        <time>2013-10-26T09:51:36Z</time>
      </trkpt>
      <trkpt lat="47.57942" lon="-2.89324">
        <time>2013-10-26T09:51:39Z</time>
      </trkpt>
      <trkpt lat="47.57946" lon="-2.89327">
        <time>2013-10-26T09:51:42Z</time>
      </trkpt>
      <trkpt lat="47.57951" lon="-2.8933">
        <time>2013-10-26T09:51:45Z</time>
      </trkpt>
      <trkpt lat="47.57957" lon="-2.89333">
        <time>2013-10-26T09:51:48Z</time>
      </trkpt>
      <trkpt lat="47.57961" lon="-2.89335">
        <time>2013-10-26T09:51:50Z</time>
      </trkpt>
      <trkpt lat="47.57966" lon="-2.89337">
        <time>2013-10-26T09:51:52Z</time>
      </trkpt>
      <trkpt lat="47.57972" lon="-2.89338">
        <time>2013-10-26T09:51:54Z</time>
      </trkpt>
      <trkpt lat="47.57977" lon="-2.89339">
        <time>2013-10-26T09:51:56Z</time>
      </trkpt>
      <trkpt lat="47.57984" lon="-2.89342">
        <time>2013-10-26T09:51:59Z</time>
      </trkpt>
      <trkpt lat="47.57988" lon="-2.89346">
        <time>2013-10-26T09:52:01Z</time>
      </trkpt>
      <trkpt lat="47.57992" lon="-2.89351">
        <time>2013-10-26T09:52:03Z</time>
      </trkpt>
      <trkpt lat="47.57997" lon="-2.89356">
        <time>2013-10-26T09:52:05Z</time>
      </trkpt>
      <trkpt lat="47.58001" lon="-2.89359">
        <time>2013-10-26T09:52:07Z</time>
      </trkpt>
      <trkpt lat="47.58006" lon="-2.89362">
        <time>2013-10-26T09:52:09Z</time>
      </trkpt>
      <trkpt lat="47.58011" lon="-2.89364">
        <time>2013-10-26T09:52:11Z</time>
      </trkpt>
      <trkpt lat="47.58016" lon="-2.89365">
        <time>2013-10-26T09:52:14Z</time>
      </trkpt>
      <trkpt lat="47.58022" lon="-2.89368">
        <time>2013-10-26T09:52:17Z</time>
      </trkpt>
      <trkpt lat="47.58028" lon="-2.89372">
        <time>2013-10-26T09:52:20Z</time>
      </trkpt>
      <trkpt lat="47.58034" lon="-2.89377">
        <time>2013-10-26T09:52:23Z</time>
      </trkpt>
      <trkpt lat="47.58038" lon="-2.8938">
        <time>2013-10-26T09:52:25Z</time>
      </trkpt>
      <trkpt lat="47.58042" lon="-2.89383">
        <time>2013-10-26T09:52:27Z</time>
      </trkpt>
      <trkpt lat="47.58046" lon="-2.89387">
        <time>2013-10-26T09:52:29Z</time>
      </trkpt>
      <trkpt lat="47.58052" lon="-2.89392">
        <time>2013-10-26T09:52:32Z</time>
      </trkpt>
      <trkpt lat="47.58057" lon="-2.89397">
        <time>2013-10-26T09:52:35Z</time>
      </trkpt>
      <trkpt lat="47.58062" lon="-2.89401">
        <time>2013-10-26T09:52:38Z</time>
      </trkpt>
      <trkpt lat="47.58067" lon="-2.89405">
        <time>2013-10-26T09:52:41Z</time>
      </trkpt>
      <trkpt lat="47.58072" lon="-2.89409">
        <time>2013-10-26T09:52:44Z</time>
      </trkpt>
      <trkpt lat="47.58076" lon="-2.89414">
        <time>2013-10-26T09:52:47Z</time>
      </trkpt>
      <trkpt lat="47.5808" lon="-2.89419">
        <time>2013-10-26T09:52:50Z</time>
      </trkpt>
      <trkpt lat="47.58084" lon="-2.89425">
        <time>2013-10-26T09:52:53Z</time>
      </trkpt>
      <trkpt lat="47.58088" lon="-2.89433">
        <time>2013-10-26T09:52:56Z</time>
      </trkpt>
      <trkpt lat="47.58091" lon="-2.89439">
        <time>2013-10-26T09:52:58Z</time>
      </trkpt>
      <trkpt lat="47.58094" lon="-2.89445">
        <time>2013-10-26T09:53:00Z</time>
      </trkpt>
      <trkpt lat="47.58098" lon="-2.89453">
        <time>2013-10-26T09:53:03Z</time>
      </trkpt>
      <trkpt lat="47.58101" lon="-2.8946">
        <time>2013-10-26T09:53:06Z</time>
      </trkpt>
      <trkpt lat="47.58102" lon="-2.89468">
        <time>2013-10-26T09:53:10Z</time>
      </trkpt>
      <trkpt lat="47.58106" lon="-2.89473">
        <time>2013-10-26T09:53:17Z</time>
      </trkpt>
      <trkpt lat="47.5811" lon="-2.89478">
        <time>2013-10-26T09:53:21Z</time>
      </trkpt>
      <trkpt lat="47.58113" lon="-2.89483">
        <time>2013-10-26T09:53:26Z</time>
      </trkpt>
      <trkpt lat="47.58118" lon="-2.89486">
        <time>2013-10-26T09:53:30Z</time>
      </trkpt>
      <trkpt lat="47.58122" lon="-2.8949">
        <time>2013-10-26T09:53:35Z</time>
      </trkpt>
      <trkpt lat="47.58127" lon="-2.8949">
        <time>2013-10-26T09:53:39Z</time>
      </trkpt>
      <trkpt lat="47.58132" lon="-2.89492">
        <time>2013-10-26T09:53:43Z</time>
      </trkpt>
      <trkpt lat="47.58138" lon="-2.89493">
        <time>2013-10-26T09:53:47Z</time>
      </trkpt>
      <trkpt lat="47.58143" lon="-2.89496">
        <time>2013-10-26T09:53:51Z</time>
      </trkpt>
      <trkpt lat="47.58147" lon="-2.89499">
        <time>2013-10-26T09:54:12Z</time>
      </trkpt>
      <trkpt lat="47.58151" lon="-2.89501">
        <time>2013-10-26T09:56:37Z</time>
      </trkpt>
      <trkpt lat="47.58153" lon="-2.89507">
        <time>2013-10-26T09:56:54Z</time>
      </trkpt>
      <trkpt lat="47.58156" lon="-2.89513">
        <time>2013-10-26T09:58:40Z</time>
      </trkpt>
      <trkpt lat="47.5816" lon="-2.89512">
        <time>2013-10-26T09:59:00Z</time>
      </trkpt>
      <trkpt lat="47.58166" lon="-2.8951">
        <time>2013-10-26T09:59:06Z</time>
      </trkpt>
      <trkpt lat="47.58171" lon="-2.89513">
        <ele>4</ele>
        <time>2013-10-26T09:59:10Z</time>
      </trkpt>
      <trkpt lat="47.5818" lon="-2.89507">
        <ele>4</ele>
        <time>2013-10-26T10:15:46Z</time>
      </trkpt>
    </trkseg>
  </trk>
</gpx>